[[{"header":{"parameterUnit":"m.s-1","parameterCategory":1,"la1":30.6,"la2":28.766,"lo1":-90.7593,"lo2":-88.6598,"dy":0.0162,"dx":0.0183,"nx":116,"ny":114,"refTime":"2023-05-03T18:00:00:Z","depth":0,"parameterNumber":2,"parameterNumberName":"U-component_of_WINDS"},"data":[0.0,0.0,0.0,0.0,0.0,0.0,0.0,0.0,0.0,0.0,0.0,0.0,0.0,0.0,0.0,0.0,0.0,0.0,0.0,0.0,0.0,0.0,0.0,0.0,0.0,0.0,0.0,0.0,0.0,0.0,0.0,0.0,0.0,0.0,0.0,0.0,0.0,0.0,0.0,0.0,0.0,0.0,0.0,0.0,0.0,0.0,0.0,0.0,0.0,0.0,0.0,0.0,0.0,0.0,0.0,0.0,0.0,0.0,0.0,0.0,0.0,0.0,0.0,0.0,0.0,0.0,0.0,0.0,0.0,0.0,0.0,0.0,0.0,0.0,0.0,0.0,0.0,0.0,0.0,0.0,0.0,0.0,0.0,0.0,0.0,0.0,0.0,0.0,0.0,0.0,0.0,0.0,0.0,0.0,0.0,0.0,0.0,0.0,0.0,0.0,0.0,0.0,0.0,0.0,0.0,0.0,0.0,0.0,0.0,0.0,0.0,0.0,0.0,0.0,0.0,0.0,0.0,0.0,0.0,0.0,0.0,0.0,0.0,0.0,0.0,0.0,0.0,0.0,0.0,0.0,0.0,0.0,0.0,0.0,0.0,0.0,0.0,0.0,0.0,0.0,0.0,0.0,0.0,0.0,0.0,0.0,0.0,0.0,0.0,0.0,0.0,0.0,0.0,0.0,0.0,0.0,0.0,0.0,0.0,0.0,0.0,0.0,0.0,0.0,0.0,0.0,0.0,0.0,0.0,0.0,0.0,0.0,0.0,0.0,0.0,0.0,0.0,0.0,0.0,0.0,0.0,0.0,0.0,0.0,0.0,0.0,0.0,0.0,0.0,0.0,0.0,0.0,0.0,0.0,0.0,0.0,0.0,0.0,0.0,0.0,0.0,0.0,0.0,0.0,0.0,0.0,0.0,0.0,0.0,0.0,0.0,0.0,0.0,0.0,0.0,0.0,0.0,0.0,0.0,0.0,0.0,0.0,0.0,0.0,0.0,0.0,0.0,0.0,0.0,0.0,0.0,0.0,0.0,0.0,0.0,0.0,0.0,0.0,0.0,0.0,0.0,0.0,0.0,0.0,0.0,0.0,0.0,0.0,0.0,0.0,0.0,0.0,0.0,0.0,0.0,0.0,0.0,0.0,0.0,0.0,0.0,0.0,0.0,0.0,0.0,0.0,0.0,0.0,0.0,0.0,0.0,0.0,0.0,0.0,0.0,0.0,0.0,0.0,0.0,0.0,0.0,0.0,0.0,0.0,0.0,0.0,0.0,0.0,0.0,0.0,0.0,0.0,0.0,0.0,0.0,0.0,0.0,0.0,0.0,0.0,0.0,0.0,0.0,0.0,0.0,0.0,0.0,0.0,0.0,0.0,0.0,0.0,0.0,0.0,0.0,0.0,0.0,0.0,0.0,0.0,0.0,0.0,0.0,0.0,0.0,0.0,0.0,0.0,0.0,0.0,0.0,0.0,0.0,0.0,0.0,0.0,0.0,0.0,0.0,0.0,0.0,0.0,0.0,0.0,0.0,0.0,0.0,0.0,0.0,0.0,0.0,0.0,0.0,0.0,0.0,0.0,0.0,0.0,0.0,0.0,0.0,0.0,0.0,0.0,0.0,0.0,0.0,0.0,0.0,0.0,0.0,0.0,0.0,0.0,0.0,0.0,0.0,0.0,0.0,0.0,0.0,0.0,0.0,0.0,0.0,0.0,0.0,0.0,0.0,0.0,0.0,0.0,0.0,0.0,0.0,0.0,0.0,0.0,0.0,0.0,0.0,0.0,0.0,0.0,0.0,0.0,0.0,0.0,0.0,0.0,0.0,0.0,0.0,0.0,0.0,0.0,0.0,0.0,0.0,0.0,0.0,0.0,0.0,0.0,0.0,0.0,0.0,0.0,0.0,0.0,0.0,0.0,0.0,0.0,0.0,0.0,0.0,0.0,0.0,0.0,0.0,0.0,0.0,0.0,0.0,0.0,0.0,0.0,0.0,0.0,0.0,0.0,0.0,0.0,0.0,0.0,0.0,0.0,0.0,0.0,0.0,0.0,0.0,0.0,0.0,0.0,0.0,0.0,0.0,0.0,0.0,0.0,0.0,0.0,0.0,0.0,0.0,0.0,0.0,0.0,0.0,0.0,0.0,0.0,0.0,0.0,0.0,0.0,0.0,0.0,0.0,0.0,0.0,0.0,0.0,0.0,0.0,0.0,0.0,0.0,0.0,0.0,0.0,0.0,0.0,0.0,0.0,0.0,0.0,0.0,0.0,0.0,0.0,0.0,0.0,0.0,0.0,0.0,0.0,0.0,0.0,0.0,0.0,0.0,0.0,0.0,0.0,0.0,0.0,0.0,0.0,0.0,0.0,0.0,0.0,0.0,0.0,0.0,0.0,0.0,0.0,0.0,0.0,0.0,0.0,0.0,0.0,0.0,0.0,0.0,0.0,0.0,0.0,0.0,0.0,0.0,0.0,0.0,0.0,0.0,0.0,0.0,0.0,0.0,0.0,0.0,0.0,0.0,0.0,0.0,0.0,0.0,0.0,0.0,0.0,0.0,0.0,0.0,0.0,0.0,0.0,0.0,0.0,0.0,0.0,0.0,0.0,0.0,0.0,0.0,0.0,0.0,0.0,0.0,0.0,0.0,0.0,0.0,0.0,0.0,0.0,0.0,0.0,0.0,0.0,0.0,0.0,0.0,0.0,0.0,0.0,0.0,0.0,0.0,0.0,0.0,0.0,0.0,0.0,0.0,0.0,0.0,0.0,0.0,0.0,0.0,0.0,0.0,0.0,0.0,0.0,0.0,0.0,0.0,0.0,0.0,0.0,0.0,0.0,0.0,0.0,0.0,0.0,0.0,0.0,0.0,0.0,0.0,0.0,0.0,0.0,0.0,0.0,0.0,0.0,0.0,0.0,0.0,0.0,0.0,0.0,0.0,0.0,0.0,0.0,0.0,0.0,0.0,0.0,0.0,0.0,0.0,0.0,0.0,0.0,0.0,0.0,0.0,0.0,0.0,0.0,0.0,0.0,0.0,0.0,0.0,0.0,0.0,0.0,0.0,0.0,0.0,0.0,0.0,0.0,0.0,0.0,0.0,0.0,0.0,0.0,0.0,0.0,0.0,0.0,0.0,0.0,0.0,0.0,0.0,0.0,0.0,0.0,0.0,0.0,0.0,0.0,0.0,0.0,0.0,0.0,0.0,0.0,0.0,0.0,0.0,0.0,0.0,0.0,0.0,0.0,0.0,0.0,0.0,0.0,0.0,0.0,0.0,0.0,0.0,0.0,0.0,0.0,0.0,0.0,0.0,0.0,0.0,0.0,0.0,0.0,0.0,0.0,0.0,0.0,0.0,0.0,0.0,0.0,0.0,0.0,0.0,0.0,0.0,0.0,0.0,0.0,0.0,0.0,0.0,0.0,0.0,0.0,0.0,0.0,0.0,0.0,0.0,0.0,0.0,0.0,0.0,0.0,0.0,0.0,0.0,0.0,0.0,0.0,0.0,0.0,0.0,0.0,0.0,0.0,0.0,0.0,0.0,0.0,0.0,0.0,0.0,0.0,0.0,0.0,0.0,0.0,0.0,0.0,0.0,0.0,0.0,0.0,0.0,0.0,0.0,0.0,0.0,0.0,0.0,0.0,0.0,0.0,0.0,0.0,0.0,0.0,0.0,0.0,0.0,0.0,0.0,0.0,0.0,0.0,0.0,0.0,0.0,0.0,0.0,0.0,0.0,0.0,0.0,0.0,0.0,0.0,0.0,0.0,0.0,0.0,0.0,0.0,0.0,0.0,0.0,0.0,0.0,0.0,0.0,0.0,0.0,0.0,0.0,0.0,0.0,0.0,0.0,0.0,0.0,0.0,0.0,0.0,0.0,0.0,0.0,0.0,0.0,0.0,0.0,0.0,0.0,0.0,0.0,0.0,0.0,0.0,0.0,0.0,0.0,0.0,0.0,0.0,0.0,0.0,0.0,0.0,0.0,0.0,0.0,0.0,0.0,0.0,0.0,0.0,0.0,0.0,0.0,0.0,0.0,0.0,0.0,0.0,0.0,0.0,0.0,0.0,0.0,0.0,0.0,0.0,0.0,0.0,0.0,0.0,0.0,0.0,0.0,0.0,0.0,0.0,0.0,0.0,0.0,0.0,0.0,0.0,0.0,0.0,0.0,0.0,0.0,0.0,0.0,0.0,0.0,0.0,0.0,0.0,0.0,0.0,0.0,0.0,0.0,0.0,0.0,0.0,0.0,0.0,0.0,0.0,0.0,0.0,0.0,0.0,0.0,0.0,0.0,0.0,0.0,0.0,0.0,0.0,0.0,0.0,0.0,0.0,0.0,0.0,0.0,0.0,0.0,0.0,0.0,0.0,0.0,0.0,0.0,0.0,0.0,0.0,0.0,0.0,0.0,0.0,0.0,0.0,0.0,0.0,0.0,0.0,0.0,0.0,0.0,0.0,0.0,0.0,0.0,0.0,0.0,0.0,0.0,0.0,0.0,0.0,0.0,0.0,0.0,0.0,0.0,0.0,0.0,0.0,0.0,0.0,0.0,0.0,0.0,0.0,0.0,0.0,0.0,0.0,0.0,0.0,0.0,0.0,0.0,0.0,0.0,0.0,0.0,0.0,0.0,0.0,0.0,0.0,0.0,0.0,0.0,0.0,0.0,0.0,0.0,0.0,0.0,0.0,0.0,0.0,0.0,0.0,0.0,0.0,0.0,0.0,0.0,0.0,0.0,0.0,0.0,0.0,0.0,0.0,0.0,0.0,0.0,0.0,0.0,0.0,0.0,0.0,0.0,0.0,0.0,0.0,0.0,0.0,0.0,0.0,0.0,0.0,0.0,0.0,0.0,0.0,0.0,0.0,0.0,0.0,0.0,0.0,0.0,0.0,0.0,0.0,0.0,0.0,0.0,0.0,0.0,0.0,0.0,0.0,0.0,0.0,0.0,0.0,0.0,0.0,0.0,0.0,0.0,0.0,0.0,0.0,0.0,0.0,0.0,0.0,0.0,0.0,0.0,0.0,0.0,0.0,0.0,0.0,0.0,0.0,0.0,0.0,0.0,0.0,0.0,0.0,0.0,0.0,0.0,0.0,0.0,0.0,0.0,0.0,0.0,0.0,0.0,0.0,0.0,0.0,0.0,0.0,0.0,0.0,0.0,0.0,0.0,0.0,0.0,0.0,0.0,0.0,0.0,0.0,0.0,0.0,0.0,0.0,0.0,0.0,0.0,0.0,0.0,0.0,0.0,0.0,0.0,0.0,0.0,0.0,0.0,0.0,0.0,0.0,0.0,0.0,0.0,0.0,0.0,0.0,0.0,0.0,0.0,0.0,0.0,0.0,0.0,0.0,0.0,0.0,0.0,0.0,0.0,0.0,0.0,0.0,0.0,0.0,0.0,0.0,0.0,0.0,0.0,0.0,0.0,0.0,0.0,0.0,0.0,0.0,0.0,0.0,0.0,0.0,0.0,0.0,0.0,0.0,0.0,0.0,0.0,0.0,0.0,0.0,0.0,0.0,0.0,0.0,0.0,0.0,0.0,0.0,0.0,0.0,0.0,0.0,0.0,0.0,0.0,0.0,0.0,0.0,0.0,0.0,0.0,0.0,0.0,0.0,0.0,0.0,0.0,0.0,0.0,0.0,0.0,0.0,0.0,0.0,0.0,0.0,0.0,0.0,0.0,0.0,0.0,0.0,0.0,0.0,0.0,0.0,0.0,0.0,0.0,0.0,0.0,0.0,0.0,0.0,0.0,0.0,0.0,0.0,0.0,0.0,0.0,0.0,0.0,0.0,0.0,0.0,0.0,0.0,0.0,0.0,0.0,0.0,0.0,0.0,0.0,0.0,0.0,0.0,0.0,0.0,0.0,0.0,0.0,0.0,0.0,0.0,0.0,0.0,0.0,0.0,0.0,0.0,0.0,0.0,0.0,0.0,0.0,0.0,0.0,0.0,0.0,0.0,0.0,0.0,0.0,0.0,0.0,0.0,0.0,0.0,0.0,0.0,0.0,0.0,0.0,0.0,0.0,0.0,0.0,0.0,0.0,0.0,0.0,0.0,0.0,0.0,0.0,0.0,0.0,0.0,0.0,0.0,0.0,0.0,0.0,0.0,0.0,-3.2403,-3.173,0.0,0.0,0.0,0.0,0.0,0.0,0.0,0.0,0.0,0.0,0.0,0.0,0.0,0.0,0.0,0.0,0.0,0.0,0.0,0.0,0.0,0.0,0.0,0.0,0.0,0.0,0.0,0.0,0.0,0.0,0.0,0.0,0.0,0.0,0.0,0.0,0.0,0.0,-2.8726,-2.9547,-2.9938,-3.0397,-3.0041,-2.9027,0.0,0.0,0.0,0.0,0.0,0.0,0.0,0.0,0.0,0.0,0.0,0.0,0.0,0.0,0.0,0.0,0.0,0.0,0.0,0.0,0.0,0.0,0.0,0.0,0.0,0.0,0.0,0.0,0.0,0.0,0.0,0.0,0.0,0.0,0.0,0.0,0.0,0.0,0.0,0.0,0.0,0.0,0.0,0.0,0.0,0.0,0.0,0.0,0.0,0.0,0.0,0.0,0.0,0.0,0.0,0.0,0.0,0.0,0.0,0.0,0.0,0.0,0.0,0.0,0.0,0.0,0.0,0.0,0.0,0.0,-3.2923,-3.2224,0.0,0.0,0.0,0.0,0.0,0.0,0.0,0.0,0.0,0.0,0.0,0.0,0.0,0.0,0.0,0.0,0.0,0.0,0.0,0.0,0.0,0.0,0.0,0.0,-2.9414,-2.9293,-2.923,-2.9188,0.0,0.0,0.0,0.0,0.0,0.0,0.0,0.0,0.0,-2.689,-2.8536,-3.0138,-3.1658,-3.1598,-3.0528,-2.8688,-2.8895,0.0,0.0,0.0,0.0,0.0,0.0,0.0,0.0,0.0,0.0,0.0,0.0,0.0,0.0,0.0,0.0,0.0,0.0,0.0,0.0,0.0,0.0,0.0,0.0,0.0,0.0,0.0,0.0,0.0,0.0,0.0,0.0,0.0,0.0,0.0,0.0,0.0,0.0,0.0,0.0,0.0,0.0,0.0,0.0,0.0,0.0,0.0,0.0,0.0,0.0,0.0,0.0,0.0,0.0,0.0,0.0,0.0,0.0,0.0,0.0,0.0,0.0,0.0,-3.3062,-3.3154,-3.3249,-3.3907,-3.3869,-3.3304,-3.3311,-3.2749,-3.1847,-3.2051,0.0,0.0,0.0,0.0,0.0,0.0,0.0,0.0,0.0,0.0,0.0,0.0,0.0,0.0,0.0,0.0,0.0,0.0,0.0,0.0,0.0,-2.9443,-2.9293,-2.922,-2.9209,-2.9155,0.0,0.0,0.0,0.0,0.0,0.0,0.0,-2.7588,-2.7609,-2.7236,-2.9016,-3.0424,-3.1433,-3.1433,-3.0955,-3.0165,-3.098,-3.1036,-3.0497,0.0,0.0,0.0,0.0,0.0,0.0,0.0,0.0,0.0,0.0,0.0,0.0,0.0,0.0,0.0,0.0,0.0,0.0,0.0,0.0,0.0,0.0,0.0,0.0,0.0,0.0,0.0,0.0,0.0,0.0,0.0,0.0,0.0,0.0,0.0,0.0,0.0,0.0,0.0,0.0,0.0,-3.0017,-2.9408,0.0,0.0,0.0,0.0,0.0,0.0,0.0,0.0,0.0,0.0,0.0,0.0,0.0,-3.2585,-3.2699,-3.3452,-3.3834,-3.3834,-3.4541,-3.4885,-3.4893,-3.4999,-3.4988,-3.4909,-3.4967,0.0,-3.2788,-3.3551,0.0,0.0,0.0,0.0,0.0,0.0,0.0,0.0,0.0,0.0,0.0,0.0,0.0,0.0,0.0,0.0,0.0,0.0,0.0,0.0,0.0,-2.9573,-2.9704,-2.9605,-2.9868,-2.9866,-2.9416,-2.9189,0.0,0.0,0.0,0.0,-2.6276,-2.6056,-2.6573,-2.7854,-2.9592,-3.1175,-3.2511,-3.2488,-3.2343,-3.2161,-3.2614,-3.1985,-3.0623,-3.0673,0.0,0.0,0.0,0.0,0.0,0.0,0.0,0.0,0.0,0.0,0.0,0.0,0.0,0.0,0.0,0.0,0.0,0.0,0.0,0.0,0.0,0.0,0.0,0.0,0.0,0.0,0.0,0.0,0.0,0.0,0.0,0.0,0.0,0.0,0.0,0.0,0.0,0.0,0.0,-2.9909,-3.0135,-2.9437,-3.0089,-3.0288,0.0,0.0,0.0,0.0,0.0,0.0,0.0,0.0,0.0,-3.3257,-3.3299,-3.3544,-3.4039,-3.4454,-3.468,-3.468,-3.5021,-3.5209,-3.5209,-3.5209,-3.5215,-3.5254,-3.525,-3.4883,-3.43,-3.4185,-3.3641,-3.2917,0.0,0.0,0.0,0.0,-3.243,-3.2496,0.0,0.0,0.0,0.0,0.0,0.0,0.0,0.0,0.0,0.0,0.0,0.0,-2.9407,-2.9923,-3.023,-3.0106,-3.0458,-3.0359,-2.9642,-2.9418,0.0,0.0,0.0,-2.6717,-2.5662,-2.5441,-2.645,-2.8702,-3.0449,-3.1948,-3.3226,-3.3244,-3.3319,-3.3481,-3.3506,-3.2595,-3.1046,-3.1132,-3.1134,-3.1095,0.0,0.0,0.0,0.0,0.0,0.0,0.0,0.0,0.0,0.0,0.0,0.0,0.0,0.0,0.0,0.0,0.0,0.0,0.0,0.0,0.0,0.0,0.0,0.0,0.0,0.0,0.0,0.0,0.0,0.0,0.0,0.0,0.0,0.0,0.0,0.0,0.0,-3.0076,-3.0449,-2.9755,-3.0383,-3.0624,0.0,0.0,0.0,0.0,0.0,0.0,-3.2402,-3.2883,-3.3444,-3.4033,-3.4115,-3.4445,-3.5092,-3.5147,-3.5191,-3.52,-3.5196,-3.5193,-3.5209,-3.5209,-3.5223,-3.5278,-3.5242,-3.5266,-3.5304,-3.4666,-3.4042,-3.3519,-3.3596,-3.3609,-3.359,-3.3376,-3.3299,-3.3383,0.0,0.0,0.0,0.0,0.0,0.0,0.0,0.0,0.0,0.0,0.0,-3.0164,-3.0152,-3.0524,-3.0742,-3.0671,-3.0639,-3.023,-2.9369,-2.9319,-2.898,-2.8231,-2.8105,-2.7317,-2.5819,-2.6988,-2.8361,-2.9833,-3.1703,-3.2663,-3.2734,-3.299,-3.3211,-3.3393,-3.3337,-3.3023,-3.2509,-3.2631,-3.2285,-3.1615,-3.1042,0.0,0.0,0.0,0.0,0.0,0.0,0.0,0.0,0.0,0.0,0.0,0.0,0.0,0.0,0.0,0.0,0.0,0.0,0.0,0.0,0.0,0.0,0.0,0.0,0.0,0.0,0.0,0.0,0.0,0.0,0.0,0.0,0.0,0.0,0.0,0.0,0.0,0.0,-3.0524,-3.1108,0.0,0.0,0.0,0.0,-3.1498,-3.2423,-3.2969,-3.2969,-3.4064,-3.4707,-3.4752,-3.4945,-3.5054,-3.5092,-3.5092,-3.5138,-3.52,-3.52,-3.5206,-3.5209,-3.5209,-3.5209,-3.5218,-3.5269,-3.5269,-3.5218,-3.5219,-3.522,-3.5181,-3.5244,-3.5278,-3.5189,-3.443,-3.4141,-3.4141,0.0,0.0,0.0,0.0,0.0,0.0,0.0,0.0,-2.9365,-2.9304,-2.9741,-3.0014,-2.989,-3.082,-3.1398,-3.1293,-3.1602,-3.1471,-3.0643,-3.0176,-2.9558,-2.8691,-2.7756,-2.6904,-2.6132,-2.7991,-2.9185,-2.9709,-3.141,-3.2369,-3.2573,-3.2673,-3.2868,-3.3152,-3.315,-3.3127,-3.3063,-3.3241,-3.3004,-3.2462,-3.2288,-3.1499,0.0,0.0,0.0,0.0,0.0,0.0,0.0,0.0,0.0,0.0,0.0,0.0,0.0,0.0,0.0,0.0,0.0,0.0,0.0,0.0,0.0,0.0,0.0,0.0,0.0,0.0,0.0,0.0,0.0,0.0,0.0,0.0,0.0,0.0,0.0,0.0,0.0,-3.0587,-3.1579,0.0,-3.1641,-3.1771,-3.2029,-3.2342,-3.3198,-3.3734,-3.377,-3.4263,-3.4553,-3.4612,-3.4759,-3.4849,-3.4907,-3.4983,-3.5057,-3.5075,-3.512,-3.5164,-3.5206,-3.5206,-3.5212,-3.5269,-3.5234,-3.5253,-3.5269,-3.5234,-3.525,-3.5316,-3.5364,-3.5372,-3.5319,-3.5062,-3.4946,-3.4906,0.0,0.0,0.0,0.0,0.0,0.0,0.0,0.0,-2.9259,-2.9443,-2.9978,-3.0368,-3.0409,-3.1401,-3.202,-3.1911,-3.2224,-3.1982,-3.1042,-3.0478,-2.9722,-2.8652,-2.7566,-2.7212,-2.7641,-2.8868,-2.9713,-3.0141,-3.1338,-3.202,-3.2214,-3.2404,-3.2607,-3.2836,-3.2961,-3.3104,-3.3244,-3.3422,-3.3364,-3.3154,-3.3012,-3.2266,-3.1102,0.0,0.0,0.0,0.0,0.0,0.0,0.0,0.0,0.0,0.0,0.0,0.0,0.0,0.0,0.0,0.0,0.0,0.0,0.0,0.0,0.0,0.0,0.0,0.0,0.0,0.0,0.0,0.0,0.0,0.0,0.0,0.0,0.0,0.0,-3.1172,-3.1795,-3.1307,-3.2121,-3.2606,-3.2373,-3.2563,-3.2808,-3.311,-3.3677,-3.4023,-3.4099,-3.4221,-3.4328,-3.4404,-3.4528,-3.4623,-3.4666,-3.483,-3.4889,-3.4908,-3.5011,-3.5101,-3.52,-3.5183,-3.5206,-3.5269,-3.5201,-3.5209,-3.5269,-3.5218,-3.5226,-3.5277,-3.5339,-3.5335,-3.5312,-3.535,-3.533,-3.5308,0.0,0.0,0.0,0.0,0.0,0.0,0.0,-2.9332,-2.9374,-2.991,-3.058,-3.1199,-3.1703,-3.2273,-3.2573,-3.2489,-3.2336,-3.167,-3.0417,-3.0117,-2.9413,-2.8074,-2.7667,-2.835,-3.0267,-2.9674,-2.996,-3.119,-3.1595,-3.1709,-3.1617,-3.2214,-3.249,-3.2507,-3.2755,-3.2945,-3.3086,-3.3232,-3.3437,-3.3657,-3.3129,-3.2499,-3.1752,0.0,0.0,0.0,0.0,0.0,0.0,0.0,0.0,0.0,0.0,0.0,0.0,0.0,0.0,0.0,0.0,0.0,0.0,0.0,0.0,0.0,0.0,0.0,0.0,0.0,0.0,0.0,0.0,0.0,0.0,0.0,0.0,0.0,-3.158,-3.2226,-3.2704,-3.2704,-3.2722,-3.3009,-3.3784,-3.318,-3.3083,-3.3839,-3.388,-3.3907,-3.3968,-3.4097,-3.4198,-3.4259,-3.4409,-3.4479,-3.4479,-3.4677,-3.4764,-3.4778,-3.4974,-3.5142,-3.5268,-3.5186,-3.5174,-3.5239,-3.5141,-3.5149,-3.5201,-3.5201,-3.5209,-3.5209,-3.5269,-3.5304,-3.5293,-3.5293,-3.5308,-3.5308,0.0,0.0,0.0,0.0,0.0,0.0,0.0,-2.9246,-2.9095,-2.9186,-3.0244,-3.0982,-3.0951,-3.2034,-3.2658,-3.2457,-3.2371,-3.195,-3.1017,-3.0352,-2.9548,-2.8551,-2.8673,-2.9265,-3.0284,-3.0566,-3.0845,-3.119,-3.1308,-3.1445,-3.1598,-3.1765,-3.1948,-3.2144,-3.2196,-3.2437,-3.2736,-3.2832,-3.3101,-3.3491,-3.3528,-3.3141,-3.249,0.0,0.0,0.0,0.0,0.0,0.0,0.0,0.0,0.0,0.0,0.0,0.0,0.0,0.0,0.0,0.0,0.0,0.0,0.0,0.0,0.0,0.0,0.0,0.0,0.0,0.0,0.0,0.0,0.0,0.0,0.0,-3.1496,-3.1918,-3.1507,-3.2125,-3.2627,-3.2627,-3.3136,-3.3802,-3.4582,-3.4486,-3.4734,-3.5634,-3.5634,-3.5648,-3.5717,-3.5703,-3.5731,-3.5781,-3.5877,-3.5949,-3.5987,-3.6184,-3.6274,-3.6232,-3.6481,-3.6617,-3.6637,-3.6188,-3.5988,-3.5966,-3.542,-3.5189,-3.5198,-3.5193,-3.5209,-3.5209,-3.5269,-3.5269,-3.5226,-3.5273,-3.5266,-3.5223,0.0,0.0,0.0,0.0,0.0,0.0,0.0,-2.9267,-2.9143,-2.9302,-3.0303,-3.099,-3.1023,-3.2024,-3.2641,-3.2405,-3.2354,-3.188,-3.0858,-2.9919,-2.944,-2.9483,-2.9609,-2.9994,-3.0689,-3.1031,-3.119,-3.119,-3.119,-3.1288,-3.1445,-3.1504,-3.1673,-3.1841,-3.1931,-3.2109,-3.2369,-3.2554,-3.2832,-3.3132,-3.3488,-3.3263,-3.2716,-3.2791,-3.2311,-3.1651,-3.1597,-3.1597,-3.1512,-3.1033,0.0,0.0,0.0,0.0,0.0,0.0,0.0,0.0,0.0,0.0,0.0,0.0,0.0,0.0,0.0,0.0,0.0,0.0,0.0,0.0,0.0,0.0,0.0,0.0,-3.2405,-3.3074,-3.2748,-3.3195,-3.3565,-3.3565,-3.4325,-3.5037,-3.55,-3.5206,-3.5367,-3.6287,-3.5968,-3.5932,-3.6342,-3.5968,-3.5766,-3.5809,-3.5524,-3.5388,-3.5428,-3.5621,-3.5708,-3.5671,-3.5911,-3.6212,-3.6543,-3.5864,-3.5738,-3.6044,-3.5287,-3.4955,-3.4992,-3.4982,-3.5001,-3.5009,0.0,0.0,0.0,0.0,-3.5237,-3.5204,0.0,0.0,0.0,0.0,0.0,0.0,0.0,-2.9343,-2.9374,-2.9853,-3.0554,-3.1156,-3.1558,-3.2211,-3.2557,-3.2405,-3.2231,-3.1548,-3.0238,-2.919,-2.919,-3.0523,-3.0338,-3.0547,-3.1259,-3.1232,-3.119,-3.119,-3.119,-3.119,-3.1171,-3.1368,-3.1466,-3.1523,-3.1728,-3.1841,-3.1967,-3.2352,-3.2571,-3.2719,-3.3165,-3.3088,-3.2729,-3.2845,-3.2453,-3.1838,-3.1838,-3.1826,-3.1795,-3.1661,0.0,0.0,0.0,0.0,0.0,0.0,0.0,0.0,0.0,0.0,0.0,0.0,0.0,0.0,0.0,0.0,0.0,0.0,0.0,0.0,0.0,0.0,0.0,0.0,-3.344,-3.4445,-3.4546,-3.4876,-3.5045,-3.4891,-3.5699,-3.6274,-3.6256,-3.5577,-3.5522,-3.6472,-3.5756,-3.5665,-3.6523,-3.583,0.0,0.0,0.0,-3.4211,-3.4211,-3.4317,-3.4351,-3.4339,-3.456,-3.5107,-3.5909,-3.5027,-3.5113,-3.5866,-3.498,-3.4658,-3.4703,-3.4699,-3.4691,-3.4724,-3.5044,-3.5166,-3.5176,-3.5201,-3.5196,-3.5208,0.0,0.0,0.0,0.0,0.0,0.0,0.0,-2.9373,-2.9429,-2.9853,-3.0597,-3.1201,-3.1558,-3.2293,-3.2658,-3.2405,-3.1825,-3.1036,-3.0027,-2.9158,-2.924,-3.0468,-3.0408,-3.0636,-3.1213,-3.121,-3.119,-3.119,-3.119,-3.1151,-3.1035,-3.1075,-3.1075,-3.1035,-3.1117,-3.1332,-3.1617,-3.1839,-3.2197,-3.2574,-3.2868,-3.3163,-3.341,-3.3437,-3.3369,-3.3295,-3.3295,-3.3254,-3.3122,-3.2504,-3.2263,-3.2087,-3.143,-3.112,0.0,0.0,0.0,0.0,0.0,0.0,0.0,0.0,0.0,0.0,0.0,0.0,0.0,0.0,0.0,0.0,0.0,0.0,0.0,-3.2949,-3.39,-3.4641,-3.4868,-3.5693,-3.5885,-3.4869,-3.5523,-3.606,-3.6057,-3.5952,-3.6494,-3.7958,-3.7429,-3.7367,-3.8193,-3.8083,-3.7976,-3.7976,-3.7202,-3.6776,-3.6776,-3.6219,-3.5934,-3.5878,-3.6139,0.0,-3.7342,-3.606,-3.5911,-3.6616,-3.5254,-3.4687,-3.4689,-3.4701,-3.4703,-3.4714,-3.4955,-3.5001,-3.4982,-3.5132,-3.5196,-3.52,0.0,0.0,0.0,0.0,0.0,0.0,0.0,-2.9483,-2.9471,-2.9547,-3.0149,-3.0747,-3.1162,-3.1505,-3.1726,-3.184,-3.1121,-3.0581,-3.0467,-2.995,-3.0058,-3.1016,-3.0936,-3.0974,-3.1235,-3.123,-3.119,-3.119,-3.1131,-3.1072,-3.0995,-3.0895,-3.0855,-3.0892,-3.0952,-3.1055,-3.1271,-3.1578,-3.1893,-3.2232,-3.2606,-3.2977,-3.3313,-3.3448,-3.352,-3.3549,-3.3591,-3.3577,-3.3494,-3.3121,-3.298,-3.2865,-3.2395,-3.1996,-3.1533,0.0,0.0,0.0,0.0,0.0,0.0,0.0,0.0,0.0,0.0,0.0,0.0,0.0,0.0,-3.1749,-3.2091,0.0,-3.2788,-3.3227,-3.4257,-3.4981,-3.4906,-3.5971,-3.6541,-3.5973,-3.6661,-3.7197,-3.7213,-3.6863,-3.715,-3.8355,-3.7781,-3.7686,-3.851,-3.8193,-3.7989,-3.7989,-3.7279,-3.6688,-3.6248,-3.5872,-3.5689,-3.5661,-3.5385,-3.5882,-3.7003,-3.549,-3.5268,-3.5999,-3.4869,-3.4386,-3.4397,-3.4435,-3.4458,-3.448,-3.467,-3.4762,-3.4803,-3.4908,-3.4955,-3.4955,0.0,0.0,0.0,0.0,0.0,0.0,0.0,-2.973,-2.9558,-2.9431,-2.9844,-3.0301,-3.078,-3.0686,-3.0677,-3.088,-3.0365,-3.0233,-3.078,-3.0699,-3.0918,-3.1562,-3.1428,-3.1332,-3.1293,-3.1232,-3.121,-3.119,-3.1095,-3.1055,-3.1035,-3.0834,-3.0831,-3.0932,-3.0932,-3.0952,-3.1035,-3.1426,-3.1691,-3.193,-3.2318,-3.2638,-3.288,-3.3104,-3.3256,-3.3393,-3.3422,-3.3448,-3.3481,-3.3481,-3.3481,-3.3452,-3.3322,-3.2871,-3.2191,-3.1135,-3.0368,0.0,0.0,0.0,0.0,0.0,0.0,0.0,0.0,-3.1225,-3.1726,-3.1663,-3.2343,-3.309,-3.35,-3.3469,-3.3483,-3.3793,-3.476,-3.5407,-3.5123,-3.6087,-3.6883,-3.7084,-3.7805,-3.8196,-3.8051,-3.7517,-3.7494,-3.8312,-3.7637,-3.7544,-3.8362,-3.7844,-3.7543,-3.7574,-3.6868,-3.6193,-3.5523,-3.5363,-3.5183,-3.5032,-3.4398,-3.4784,-3.6038,-3.4581,-3.44,-3.5205,-3.445,-3.4124,-3.4124,-3.4173,-3.4197,-3.4221,-3.4374,-3.4509,-3.4601,-3.4674,-3.4701,-3.4697,0.0,0.0,0.0,0.0,0.0,0.0,0.0,0.0,-2.9804,-3.0124,-3.0247,-3.0424,-3.0844,-3.0729,-3.0294,-2.9512,-2.9779,-3.0039,-3.011,-3.0525,-3.1006,-3.1502,-3.1498,-3.1385,-3.121,-3.1254,-3.1254,-3.119,-3.1235,-3.1235,-3.1171,-3.1035,-3.0975,-3.0995,-3.0995,-3.0995,-3.1015,-3.1366,-3.1632,-3.1819,-3.2055,-3.2249,-3.2369,-3.2335,-3.2787,-3.3378,-3.3211,-3.3256,-3.3408,-3.3408,-3.3408,-3.3378,-3.318,-3.3142,-3.2829,-3.1073,-3.0481,-3.0015,-2.8197,-2.8402,-2.918,-2.9354,-2.9851,-3.0349,0.0,-3.1744,-3.2709,-3.2865,-3.3836,-3.4818,-3.5465,-3.5141,-3.4998,-3.5679,-3.5762,-3.5843,-3.6101,-3.6329,-3.6623,-3.7044,-3.7487,-3.7487,-3.677,-3.6964,-3.7433,-3.8251,-3.7624,-3.7544,-3.8362,-3.8307,-3.8368,-3.853,-3.7662,-3.7261,-3.7405,-3.6633,-3.5869,-3.5183,-3.5158,-3.52,-3.5298,-3.4402,-3.4491,-3.5319,-3.4519,-3.4185,-3.4185,-3.4197,-3.4197,-3.4209,-3.4221,-3.4245,-3.4286,-3.458,-3.4701,-3.4697,0.0,0.0,0.0,0.0,0.0,0.0,0.0,0.0,0.0,-3.0102,-3.0356,-3.0572,-3.0497,-3.0107,-2.9512,-2.8692,-2.9112,-2.9578,-2.9969,-3.0507,-3.1042,-3.1542,-3.1519,-3.1423,-3.1254,-3.1252,-3.123,-3.119,-3.1154,-3.1114,-3.1092,-3.0992,-3.0952,-3.0935,-3.0975,-3.0995,-3.1015,-3.1254,-3.1483,-3.1651,-3.1893,-3.2091,-3.2249,-3.2336,-3.269,-3.2947,-3.1782,-3.1809,0.0,-3.1915,-3.2059,-3.246,-3.2676,-3.2547,-3.2036,-3.0619,-2.9918,-2.9511,-2.9289,-2.9162,-2.9573,-3.1524,-3.1604,-3.1439,-3.2396,-3.3405,-3.414,-3.4156,-3.5244,-3.6151,-3.6038,-3.5801,-3.5553,-3.5322,-3.5506,-3.5625,-3.5501,-3.5814,-3.6135,-3.6447,-3.6739,-3.7007,-3.7131,-3.7325,-3.7641,-3.8103,-3.7914,-3.7927,-3.8254,-3.8322,-3.8403,-3.853,-3.8152,-3.7845,-3.7599,-3.722,-3.665,-3.5883,-3.5486,-3.5277,-3.5237,-3.4391,-3.4214,-3.4572,-3.424,-3.4086,-3.4086,-3.4086,-3.4086,-3.4086,-3.4086,-3.4111,-3.4173,-3.4344,-3.442,-3.4397,0.0,0.0,0.0,0.0,0.0,0.0,0.0,0.0,0.0,0.0,-3.0885,-3.091,-3.0261,-2.9562,-2.8891,-2.8272,-2.8723,-2.9303,-2.9967,-3.0506,-3.106,-3.1564,-3.154,-3.1464,-3.1351,-3.1308,-3.1269,-3.1269,-3.119,-3.1151,-3.1151,-3.1055,-3.1015,-3.1015,-3.1075,-3.1075,-3.1055,-3.1293,-3.1426,-3.1517,-3.1784,-3.2002,-3.2144,-3.237,-3.2465,-3.2323,-3.0995,-3.1018,-3.1576,-3.0779,-3.0871,-3.1377,-3.1728,-3.1547,-3.0991,-2.9915,-2.9298,-2.9173,-2.9969,-3.0229,-3.0884,-3.3542,-3.3268,-3.2745,-3.4296,-3.492,-3.5224,-3.5332,-3.6285,-3.6933,-3.6454,-3.622,-3.5857,-3.5194,-3.5394,-3.548,-3.5151,-3.5477,-3.5817,-3.5975,-3.6178,-3.6557,-3.7279,-3.7522,-3.7721,-3.7897,-3.8088,-3.8209,-3.8209,-3.8259,-3.8322,-3.8415,-3.8382,-3.8222,-3.7882,-3.7823,-3.7323,-3.6398,-3.5873,-3.5365,-3.4908,-3.4332,-3.4036,-3.3998,-3.4023,-3.4023,-3.3998,-3.3998,-3.3998,-3.3998,-3.3998,-3.4023,-3.4061,-3.4136,-3.4173,-3.4173,0.0,0.0,0.0,0.0,0.0,0.0,0.0,0.0,0.0,0.0,0.0,0.0,0.0,-2.9302,-2.8587,-2.8327,-2.8792,-2.9347,-2.9967,-3.0557,-3.1114,-3.1582,-3.1598,-3.1559,-3.1498,-3.1498,-3.1498,-3.1498,-3.1498,-3.1479,-3.1479,-3.1351,-3.1295,-3.1295,-3.1295,-3.1254,-3.121,-3.1483,-3.1559,-3.1517,-3.1784,-3.1894,-3.193,-3.2197,-3.1962,-3.1455,-3.1533,-3.1609,-3.1561,-3.0625,-3.033,-3.0318,-3.0201,-3.0201,-3.0023,-2.8871,-2.8852,-2.9264,-2.9625,-3.1498,-3.3618,-3.4712,-3.4579,-3.4614,-3.618,-3.593,-3.5609,-3.6378,-3.6786,-3.7009,-3.7069,-3.6489,-3.6023,-3.6058,-3.581,-3.56,-3.5588,-3.5583,-3.5711,-3.5975,-3.6019,-3.6191,-3.6664,-3.7206,-3.7578,-3.7703,-3.8003,-3.8209,-3.8209,-3.8209,-3.8289,-3.8494,-3.837,-3.8481,-3.884,-3.8597,-3.7763,-3.6398,-3.6381,-3.5554,-3.4048,-3.4155,-3.4124,-3.3998,-3.4074,-3.4061,-3.3998,-3.3998,-3.3998,-3.3998,-3.3998,-3.3959,-3.3921,-3.4049,-3.4099,-3.4099,0.0,0.0,0.0,0.0,0.0,0.0,0.0,0.0,0.0,0.0,0.0,0.0,0.0,0.0,0.0,0.0,-2.8465,-2.8723,-2.9364,-2.992,-3.0507,-3.1114,-3.1416,-3.1578,-3.1498,-3.1406,-3.1349,-3.1288,-3.1288,-3.131,-3.1368,-3.1271,-3.1271,-3.1295,-3.1235,-3.123,-3.123,-3.1635,-3.171,-3.1615,-3.2144,-3.2353,-3.2213,-3.1357,-3.0902,-3.0594,0.0,-2.9517,-2.9756,-2.8767,-2.8796,-2.9273,-2.9553,-2.9378,-2.9061,-2.899,-2.9076,-2.9745,-3.2211,-3.3508,-3.4584,-3.6291,-3.5897,-3.5332,-3.6272,-3.5775,-3.5296,-3.5879,-3.6006,-3.5926,-3.5648,-3.5442,-3.527,-3.5061,-3.535,-3.56,-3.56,-3.56,-3.5667,-3.5861,-3.5861,-3.5993,-3.6331,-3.6756,-3.7206,-3.7613,-3.7775,-3.7968,-3.8192,-3.8209,-3.8241,-3.837,-3.829,-3.8338,-3.8575,-3.8525,-3.7751,-3.6258,-3.5279,-3.4515,-3.3998,-3.4049,-3.4023,-3.3934,-3.3959,-3.3934,-3.3855,-3.3855,-3.3855,-3.3855,-3.3855,-3.3842,-3.3829,-3.3881,-3.3895,-3.3908,0.0,0.0,0.0,0.0,0.0,0.0,0.0,0.0,0.0,0.0,0.0,0.0,0.0,0.0,0.0,0.0,0.0,-2.8965,-2.9606,-2.9616,-2.9885,-3.0539,-3.0578,-3.0523,-3.0504,-3.0636,-3.0663,-3.0585,-3.1132,-3.1387,-3.137,-3.1349,-3.1368,-3.1411,-3.1406,-3.1423,-3.1443,-3.1858,-3.1912,-3.1714,-3.1772,-3.1887,-3.1892,-3.0556,-2.9994,0.0,-2.8773,-2.8444,-2.8401,-2.7729,-2.7971,-2.8621,-2.9197,-2.9437,-2.9472,-2.9245,-2.9888,-3.1225,-3.3627,-3.4662,-3.5421,-3.6807,-3.6306,-3.5634,-3.6268,-3.5697,-3.5251,-3.5832,-3.5643,-3.5287,-3.4939,-3.4734,-3.4586,-3.458,-3.4972,-3.534,-3.5566,-3.56,-3.5644,-3.5795,-3.5795,-3.5922,-3.6182,-3.6444,-3.6794,-3.728,-3.7559,-3.7792,-3.8003,-3.8123,-3.8242,-3.8307,-3.8224,-3.8256,-3.8399,-3.8141,-3.7235,-3.5756,-3.4552,-3.3972,-3.3998,-3.3998,-3.3959,-3.3895,-3.3895,-3.3855,-3.3807,-3.3807,-3.3793,-3.3766,-3.3793,-3.378,-3.3739,-3.3793,-3.378,-3.3753,0.0,0.0,0.0,0.0,0.0,0.0,0.0,0.0,0.0,0.0,0.0,0.0,0.0,0.0,0.0,0.0,0.0,0.0,-3.0543,-2.9692,-2.9412,-2.9946,-2.9204,-2.8757,-2.8689,-2.9259,-2.9505,-2.9386,-3.0851,-3.1501,-3.1365,-3.1406,-3.1445,-3.1445,-3.1573,-3.1627,-3.1647,-3.2004,-3.2004,-3.1705,-3.0714,-3.0654,-3.1034,-2.9802,-2.9212,-2.9048,-2.8977,-2.8352,-2.7535,-2.7546,-2.7898,-2.8442,-2.9162,-3.0284,-3.1036,-2.9713,-3.1249,-3.3486,-3.3891,-3.5036,-3.6139,-3.6333,-3.5902,-3.5578,-3.6246,-3.5769,-3.5399,-3.6205,-3.5693,-3.507,-3.4981,-3.4377,-3.4038,-3.4593,-3.472,-3.4931,-3.552,-3.56,-3.5661,-3.5773,-3.5795,-3.5922,-3.6182,-3.6187,-3.6339,-3.6736,-3.7319,-3.7667,-3.7703,-3.8003,-3.8207,-3.829,-3.8224,-3.8274,-3.8382,-3.7483,-3.6358,-3.5004,-3.426,-3.3921,-3.3985,-3.3985,-3.3959,-3.3895,-3.3895,-3.3855,-3.3807,-3.3807,-3.3766,-3.3712,-3.378,-3.3726,-3.3633,-3.3739,-3.3712,-3.3619,0.0,0.0,0.0,0.0,0.0,0.0,0.0,0.0,0.0,0.0,0.0,0.0,0.0,0.0,0.0,0.0,0.0,0.0,-3.0197,-3.0186,-3.0029,-2.9564,-2.9636,-2.9346,-2.8708,-2.8804,-2.8532,-2.7862,-2.8196,-2.8696,-2.9332,-2.9247,-2.923,-2.9281,-2.9281,-2.9264,-2.9298,-2.9674,-3.0104,-3.0498,-3.0629,-3.0654,-3.0439,-2.8998,-2.8365,-2.8198,-2.7501,-2.6976,-2.6797,-2.7888,-2.8972,-2.9945,-3.0587,-3.0985,-3.1382,-3.2073,-3.2814,-3.3685,-3.5032,-3.5741,-3.6118,-3.6228,-3.5824,-3.5558,-3.6122,-3.5503,-3.5027,-3.5792,-3.4772,-3.3872,-3.437,-3.3944,-3.3748,-3.443,-3.4969,-3.5386,-3.5583,-3.5549,-3.5588,-3.5773,-3.5795,-3.5922,-3.6182,-3.6101,-3.6148,-3.6426,-3.6796,-3.7225,-3.7685,-3.7774,-3.7933,-3.8225,-3.8209,-3.8225,-3.8257,-3.6939,-3.5826,-3.493,-3.4192,-3.3829,-3.3842,-3.3842,-3.3829,-3.3834,-3.3834,-3.382,-3.3807,-3.3807,-3.3793,-3.378,-3.3775,-3.3753,-3.3671,-3.3675,-3.3633,-3.3605,0.0,0.0,0.0,0.0,0.0,0.0,0.0,0.0,0.0,0.0,0.0,0.0,0.0,0.0,0.0,0.0,0.0,0.0,0.0,-3.0917,-3.0528,-3.0082,-2.9825,-2.9299,-2.8466,-2.8689,-2.8384,-2.7491,-2.8157,-2.8698,-2.9132,-2.9098,-2.9148,-2.9196,-2.9147,-2.918,-2.9244,-2.9538,-2.9849,0.0,0.0,-2.978,-2.9698,-2.8138,-2.7723,-2.7915,-2.7302,-2.7721,-2.871,-2.9724,-3.0903,-3.1931,-3.1844,-3.2479,-3.3249,-3.3355,-3.3863,-3.4578,-3.5506,-3.5815,-3.5876,-3.5898,-3.5634,-3.5326,-3.5244,-3.4803,-3.4435,-3.4514,-3.3561,-3.2967,-3.3773,-3.3423,-3.335,-3.4418,-3.4895,-3.5239,-3.5515,-3.552,-3.5537,-3.5656,-3.5678,-3.5768,-3.5993,-3.5949,-3.6014,-3.6233,-3.655,-3.6856,-3.7206,-3.7504,-3.7739,-3.788,-3.8037,-3.7813,-3.7191,-3.6363,-3.5414,-3.4371,-3.3982,-3.3807,-3.3807,-3.3807,-3.3807,-3.3807,-3.3807,-3.3807,-3.3807,-3.3807,-3.3793,-3.3766,-3.3793,-3.3766,-3.3684,-3.3615,-3.3605,-3.3591,0.0,0.0,0.0,0.0,0.0,0.0,0.0,0.0,0.0,0.0,0.0,0.0,0.0,0.0,0.0,0.0,0.0,0.0,0.0,0.0,0.0,-3.0943,-3.0016,-2.9116,-2.829,-2.872,-2.8529,-2.7607,-2.8883,-2.9472,-2.9416,-2.9529,-2.9609,-2.9656,-2.9671,-2.9735,-2.9862,-2.9988,-3.006,-2.9958,-2.8828,-2.8653,-2.8934,0.0,0.0,0.0,-2.7868,0.0,0.0,0.0,-3.309,-3.3991,-3.3222,-3.4278,-3.554,-3.4104,-3.4607,-3.5622,-3.5577,-3.56,-3.5577,-3.5475,-3.54,-3.509,-3.4201,-3.4006,-3.3822,-3.3073,-3.2495,-3.2395,-3.3347,-3.3008,-3.307,-3.4541,-3.4757,-3.4928,-3.5407,-3.5469,-3.5469,-3.5492,-3.5514,-3.5588,-3.5773,-3.5795,-3.5883,-3.6144,-3.6364,-3.6512,-3.6612,-3.7166,-3.7504,-3.7505,-3.7737,-3.7202,-3.5864,-3.5786,-3.5041,-3.3684,-3.3753,-3.3793,-3.3807,-3.3807,-3.3807,-3.3807,-3.3807,-3.3807,-3.3807,-3.3807,-3.3766,-3.3726,-3.378,-3.3766,-3.3698,-3.3633,-3.3605,-3.3591,0.0,0.0,0.0,0.0,0.0,0.0,0.0,0.0,0.0,0.0,-3.4737,-3.4727,0.0,0.0,0.0,0.0,0.0,0.0,0.0,0.0,0.0,0.0,-3.0817,-3.0176,-2.9194,-2.8575,-2.7903,-2.7112,-2.6681,-2.6782,-2.7402,-2.7426,-2.7412,-2.7374,-2.7426,-2.7467,-2.7494,-2.7678,-2.8138,-2.8735,-2.8715,-2.8603,-2.842,0.0,0.0,0.0,0.0,0.0,0.0,0.0,-3.4077,-3.5258,-3.5418,-3.5698,-3.5859,-3.5384,-3.5464,-3.5728,-3.5566,-3.5549,-3.5554,-3.5383,-3.54,-3.5199,-3.4224,-3.409,-3.3974,-3.3222,-3.2538,-3.2526,-3.3881,-3.3566,-3.3544,-3.497,-3.509,-3.5094,-3.5297,-3.5314,-3.5377,-3.5492,-3.5566,-3.5639,-3.5795,-3.5689,-3.5756,-3.6019,-3.5993,-3.6148,-3.6591,-3.6834,-3.7147,-3.7577,-3.7198,-3.6576,-3.567,-3.516,-3.4466,-3.3619,-3.3684,-3.3753,-3.3807,-3.3807,-3.3807,-3.3807,-3.3807,-3.3807,-3.3807,-3.3807,-3.3775,-3.3793,-3.3807,-3.3775,-3.3766,-3.3661,-3.3605,-3.3591,0.0,0.0,0.0,0.0,0.0,0.0,0.0,-3.4898,-3.4889,-3.4859,-3.479,-3.4758,-3.4747,-3.4655,0.0,0.0,0.0,0.0,0.0,0.0,0.0,0.0,0.0,0.0,-3.0823,-3.0399,-2.9719,-2.8816,0.0,-2.7806,-2.819,-2.7762,-2.7611,-2.7652,-2.7696,-2.7774,-2.7851,-2.799,-2.8257,-2.8619,-2.8755,-2.8644,0.0,0.0,0.0,0.0,0.0,0.0,0.0,0.0,-3.4094,-3.5337,-3.5599,-3.5826,-3.5885,-3.5314,-3.5401,-3.5667,-3.5571,-3.5594,-3.5577,-3.5481,-3.5475,-3.5166,-3.3962,-3.3381,-3.2794,-3.1769,-3.0988,-3.0805,-3.1921,-3.2141,-3.2508,-3.3578,-3.4001,-3.4343,-3.4729,-3.4779,-3.4953,-3.5441,-3.552,-3.5571,-3.5684,-3.5644,-3.5689,-3.5866,-3.5905,-3.6019,-3.628,-3.6655,-3.7091,-3.7577,-3.7056,-3.6417,-3.5704,-3.4987,-3.428,-3.3549,-3.3643,-3.3712,-3.3753,-3.3793,-3.3807,-3.3807,-3.3807,-3.3807,-3.3807,-3.3807,-3.3807,-3.3807,-3.3807,-3.3807,-3.3793,-3.3643,-3.3605,-3.3577,0.0,0.0,0.0,0.0,0.0,0.0,0.0,-3.4898,-3.4898,-3.4908,-3.483,-3.4768,-3.4737,-3.4645,-3.4612,0.0,0.0,0.0,0.0,0.0,0.0,0.0,0.0,0.0,0.0,0.0,0.0,-3.0908,-3.0112,0.0,0.0,0.0,0.0,0.0,-2.8557,-2.8582,-2.8731,-2.8827,-2.8863,0.0,0.0,-2.8779,0.0,0.0,0.0,0.0,0.0,0.0,0.0,0.0,-3.3821,-3.4694,-3.4843,-3.5238,-3.5539,-3.4891,-3.5072,-3.5464,-3.5571,-3.56,-3.56,-3.56,-3.5549,-3.5082,-3.3478,-3.2609,-3.1692,-3.0135,-2.9379,-2.9211,-2.9935,-3.0661,-3.1388,-3.211,-3.2816,-3.3553,-3.4191,-3.4292,-3.46,-3.5391,-3.5514,-3.5543,-3.56,-3.56,-3.5644,-3.5751,-3.5866,-3.5975,-3.6041,-3.6557,-3.7054,-3.743,-3.6934,-3.635,-3.5754,-3.4989,-3.422,-3.3509,-3.3633,-3.3684,-3.3698,-3.378,-3.3807,-3.3807,-3.3807,-3.3807,-3.3807,-3.3807,-3.3807,-3.3807,-3.3807,-3.3807,-3.3793,-3.3643,-3.3605,-3.3577,0.0,0.0,0.0,0.0,0.0,0.0,0.0,-3.4888,-3.4898,-3.4898,-3.48,-3.4737,-3.4778,-3.4676,-3.4623,0.0,0.0,0.0,0.0,0.0,0.0,0.0,0.0,0.0,0.0,0.0,0.0,-3.2233,-3.1242,0.0,0.0,0.0,0.0,0.0,0.0,-2.8607,-2.8797,-2.8998,0.0,0.0,0.0,0.0,0.0,0.0,0.0,0.0,0.0,-3.1609,-3.1801,0.0,-3.3635,-3.3306,-3.3505,-3.4063,-3.466,-3.469,-3.4844,-3.5057,-3.548,-3.56,-3.56,-3.56,-3.56,-3.5003,-3.274,-3.2262,-3.1644,-2.9385,-2.897,-2.9193,-2.9804,-3.0527,-3.1227,-3.1842,-3.2562,-3.3316,-3.4102,-3.4264,-3.46,-3.5391,-3.5549,-3.56,-3.56,-3.56,-3.56,-3.5622,-3.5734,-3.5927,-3.6182,-3.6571,-3.6876,-3.6958,-3.6629,-3.618,-3.5622,-3.494,-3.422,-3.3509,-3.3577,-3.3629,-3.3698,-3.378,-3.3807,-3.3807,-3.3807,-3.3807,-3.3807,-3.3807,-3.3807,-3.3807,-3.3807,-3.3807,-3.3793,-3.3643,-3.3605,-3.3577,0.0,0.0,0.0,0.0,0.0,0.0,-3.4908,-3.4889,-3.4908,-3.4908,-3.4849,-3.4838,-3.4858,-3.4747,-3.4655,0.0,0.0,0.0,0.0,0.0,0.0,0.0,0.0,0.0,0.0,0.0,-3.3209,-3.3005,-3.2201,0.0,0.0,0.0,0.0,0.0,0.0,-3.0225,-3.0387,-3.0625,0.0,0.0,0.0,0.0,0.0,0.0,0.0,0.0,0.0,0.0,-3.2521,-3.318,-3.3132,-3.2757,-3.2562,-3.2824,0.0,-3.3925,-3.4419,-3.4904,-3.5441,-3.56,-3.56,-3.56,-3.56,-3.5047,-3.2835,-3.1972,-3.1004,-2.8737,-2.7908,-2.7689,-2.7885,-2.8543,-2.9304,-3.0042,-3.0763,-3.1803,-3.3369,-3.3696,-3.4177,-3.5363,-3.5549,-3.5577,-3.5543,-3.5594,-3.5622,-3.5711,-3.5871,-3.5958,-3.5949,-3.6381,-3.6693,-3.6856,-3.6351,-3.6078,-3.609,-3.49,-3.422,-3.4051,-3.3713,-3.3577,-3.3629,-3.3712,-3.3766,-3.3807,-3.3807,-3.3807,-3.3807,-3.3807,-3.3807,-3.3807,-3.3807,-3.378,-3.3726,-3.3629,-3.3577,-3.352,0.0,0.0,0.0,0.0,0.0,-3.4868,-3.4898,-3.487,-3.486,-3.4879,-3.4878,-3.4858,-3.4906,-3.4788,-3.4697,-3.4634,0.0,0.0,0.0,0.0,0.0,0.0,0.0,0.0,0.0,0.0,-3.3868,-3.3647,-3.3104,-3.2702,0.0,0.0,-3.1324,-3.1292,0.0,0.0,0.0,0.0,0.0,0.0,0.0,0.0,0.0,0.0,0.0,0.0,0.0,0.0,0.0,0.0,0.0,0.0,0.0,0.0,0.0,0.0,-3.4034,-3.4593,-3.5374,-3.56,-3.56,-3.56,-3.5261,-3.4438,-3.2561,-3.13,-2.9974,-2.7961,-2.7097,-2.6691,-2.664,-2.7282,-2.806,-2.8874,-2.9768,-3.096,-3.2689,-3.317,-3.371,-3.4767,-3.5099,-3.5256,-3.5206,-3.5436,-3.5644,-3.5728,-3.5871,-3.5915,-3.5795,-3.6122,-3.6406,-3.6676,-3.6311,-3.6174,-3.631,-3.5308,-3.4637,-3.4317,-3.4006,-3.3771,-3.3605,-3.3671,-3.3739,-3.3807,-3.3807,-3.3807,-3.3807,-3.3807,-3.3807,-3.3807,-3.3807,-3.378,-3.3726,-3.3629,-3.3577,-3.3524,0.0,0.0,0.0,0.0,0.0,0.0,-3.4889,-3.48,-3.4749,-3.4889,-3.4771,-3.4758,-3.4887,-3.4848,-3.4768,-3.4697,0.0,0.0,0.0,0.0,0.0,0.0,0.0,0.0,0.0,0.0,-3.4197,-3.4197,-3.3998,-3.3876,-3.3863,-3.2857,-3.2486,-3.2648,0.0,0.0,0.0,0.0,0.0,0.0,0.0,0.0,0.0,0.0,0.0,0.0,0.0,0.0,0.0,0.0,0.0,0.0,0.0,0.0,0.0,0.0,-3.3704,-3.3983,-3.526,-3.56,-3.56,-3.56,-3.4484,-3.3034,-3.1546,-3.0076,-2.8587,-2.7029,-2.6725,-2.6691,-2.6691,-2.73,-2.806,-2.8874,-3.0114,-3.1288,-3.2188,-3.2812,-3.3258,-3.3402,-3.4066,-3.4506,-3.4506,-3.5182,-3.56,-3.56,-3.56,-3.5667,-3.5795,-3.5795,-3.598,-3.6374,-3.6516,-3.6429,-3.611,-3.6346,-3.568,-3.4105,-3.4506,-3.4302,-3.3605,-3.3671,-3.3739,-3.3807,-3.3807,-3.3807,-3.3807,-3.3807,-3.3807,-3.3807,-3.3807,-3.3807,-3.3793,-3.3643,-3.3605,-3.3577,0.0,0.0,0.0,0.0,0.0,0.0,0.0,-3.487,-3.485,-3.4879,-3.487,-3.485,-3.4898,-3.4849,-3.4788,-3.4768,0.0,0.0,0.0,0.0,0.0,0.0,0.0,0.0,0.0,0.0,-3.4161,-3.4061,-3.4086,-3.3985,-3.3766,-3.3532,-3.3381,-3.3314,-3.3185,-3.3178,0.0,0.0,0.0,0.0,0.0,0.0,-3.3802,0.0,0.0,0.0,0.0,0.0,0.0,0.0,0.0,0.0,0.0,0.0,0.0,-3.2915,-3.2732,-3.2444,-3.3267,-3.3083,-3.2656,-3.2594,-3.2239,-3.1512,-3.0042,-2.9348,-2.8534,-2.6892,-2.664,-2.6674,-2.6589,-2.6826,-2.7603,-2.9336,-2.9972,-3.0841,-3.253,-3.3026,-3.322,-3.3262,-3.3903,-3.4604,-3.5194,-3.5414,-3.5566,-3.56,-3.56,-3.5622,-3.5667,-3.5667,-3.5822,-3.6131,-3.6174,-3.6201,-3.6226,-3.5863,-3.553,-3.5188,-3.4853,-3.4518,-3.4144,-3.4175,-3.4044,-3.3807,-3.3807,-3.3807,-3.3807,-3.3807,-3.3807,-3.3807,-3.3807,-3.378,-3.3726,-3.3684,-3.3619,-3.352,0.0,0.0,0.0,0.0,0.0,0.0,0.0,-3.486,-3.484,-3.4879,-3.4889,-3.4908,-3.4908,-3.4859,-3.4838,-3.4798,0.0,0.0,0.0,0.0,0.0,0.0,0.0,0.0,-3.4233,-3.4209,-3.4161,-3.4074,-3.4161,-3.4099,-3.3881,-3.3972,-3.3947,-3.3829,-3.3959,-3.4011,0.0,0.0,0.0,0.0,0.0,0.0,-3.4257,0.0,0.0,0.0,0.0,0.0,0.0,0.0,0.0,0.0,0.0,0.0,0.0,0.0,-3.1899,-3.1445,0.0,-3.2372,-3.2131,-3.1743,-3.1232,-3.0588,-2.9636,-2.8756,-2.7823,-2.6756,-2.6589,-2.664,-2.6554,-2.6623,-2.7298,-2.9235,-2.995,-3.0714,-3.2068,-3.2718,-3.3129,-3.3232,-3.3684,-3.4385,-3.5498,-3.5571,-3.5549,-3.56,-3.56,-3.5622,-3.5667,-3.5622,-3.5734,-3.5997,-3.5997,-3.6105,-3.6301,-3.6021,-3.5802,-3.5663,-3.5377,-3.5013,-3.4621,-3.4481,-3.4283,-3.4049,-3.3826,-3.3753,0.0,-3.3753,-3.3726,-3.3726,-3.378,-3.368,-3.353,-3.3577,-3.3444,-3.3235,0.0,0.0,0.0,0.0,0.0,0.0,0.0,0.0,-3.4759,-3.4889,-3.4907,-3.4898,-3.4898,-3.4898,-3.4868,-3.4798,0.0,0.0,0.0,0.0,0.0,0.0,0.0,0.0,-3.4293,-3.4233,-3.4197,-3.4197,-3.4197,-3.4197,-3.4197,-3.4197,-3.4197,-3.4197,-3.4197,-3.4197,-3.4197,-3.4197,-3.4209,-3.4209,-3.4209,-3.4209,0.0,0.0,0.0,0.0,0.0,0.0,0.0,0.0,0.0,0.0,0.0,0.0,0.0,0.0,0.0,0.0,0.0,-3.2918,-3.3205,-3.2366,-3.114,-3.0085,-3.0042,0.0,0.0,-2.669,-2.6639,-2.6606,-2.6572,-2.6639,-2.7196,-2.8787,-3.0065,-3.0922,-3.1059,-3.2085,-3.2977,-3.3311,-3.3423,-3.4027,-3.5464,-3.56,-3.56,-3.56,-3.56,-3.5644,-3.5773,-3.5667,-3.5734,-3.5997,-3.5997,-3.6105,-3.628,-3.6591,-3.6367,-3.5647,-3.5956,-3.572,-3.496,-3.4587,-3.4418,-3.4364,-3.38,-3.3643,-3.3748,-3.3629,-3.3591,-3.3605,-3.3726,-3.3541,-3.322,-3.3331,-3.3147,-3.2779,0.0,0.0,0.0,0.0,0.0,0.0,0.0,0.0,0.0,0.0,-3.4898,-3.4898,-3.4898,-3.4849,-3.4788,0.0,0.0,0.0,0.0,0.0,0.0,0.0,0.0,0.0,-3.4293,-3.4233,-3.4197,-3.4197,-3.4197,-3.4197,-3.4197,-3.4197,-3.4197,-3.4197,-3.4197,-3.4197,-3.4197,-3.4197,-3.4233,-3.4269,-3.4221,-3.4233,0.0,0.0,0.0,0.0,-3.378,-3.3573,0.0,0.0,0.0,0.0,0.0,0.0,0.0,0.0,-3.1737,-3.1546,-3.1229,0.0,-3.0327,-2.9974,-2.9614,-2.934,0.0,0.0,0.0,0.0,0.0,0.0,0.0,-2.6956,-2.7901,-2.9305,-3.0721,-3.1667,-3.175,-3.2027,-3.2658,-3.3857,-3.4034,-3.4476,-3.5436,-3.5571,-3.56,-3.56,-3.56,-3.5622,-3.5644,-3.5622,-3.5734,-3.5997,-3.5997,-3.6019,-3.6084,-3.6152,-3.6147,-3.6056,-3.6122,-3.5655,-3.469,-3.4659,-3.4157,-3.3337,-3.331,-3.3309,-3.3353,-3.3419,-3.3452,-3.3452,-3.3495,-3.3371,-3.3205,-3.3238,-3.305,-3.2795,0.0,0.0,0.0,0.0,0.0,0.0,0.0,0.0,0.0,0.0,0.0,0.0,0.0,0.0,0.0,0.0,0.0,0.0,0.0,0.0,0.0,0.0,0.0,-3.4328,-3.4293,-3.4233,-3.4197,-3.4197,-3.4197,-3.4197,-3.4197,-3.4197,-3.4197,-3.4197,-3.4197,-3.4197,-3.4197,-3.4197,-3.4221,-3.4245,-3.4209,0.0,0.0,0.0,0.0,0.0,-3.3793,-3.3629,0.0,-3.2894,-3.2669,-3.2588,0.0,0.0,0.0,0.0,-3.1839,-3.1752,-3.1318,-3.0609,-2.985,-2.9279,-2.914,-2.9121,-2.9029,0.0,0.0,0.0,0.0,0.0,0.0,0.0,-2.7943,-2.9063,-3.0443,-3.1583,-3.2229,-3.2071,-3.2465,-3.3929,-3.4192,-3.4561,-3.5316,-3.5498,-3.5549,-3.5549,-3.5577,-3.5622,-3.5706,-3.5622,-3.5734,-3.5997,-3.5932,-3.5975,-3.6148,-3.6131,-3.617,-3.6251,-3.6251,-3.578,-3.4934,-3.4757,-3.42,-3.3317,-3.3136,-3.3114,-3.3205,-3.318,-3.318,-3.3226,-3.3241,-3.3117,-3.2928,-3.2957,-3.2814,-3.2605,0.0,0.0,0.0,0.0,0.0,0.0,0.0,0.0,0.0,0.0,0.0,0.0,0.0,0.0,0.0,0.0,0.0,0.0,0.0,0.0,0.0,0.0,-3.4427,-3.4351,-3.4293,-3.4233,-3.4197,-3.4197,-3.4197,-3.4197,-3.4197,-3.4197,-3.4197,-3.4197,-3.4197,-3.4197,-3.4197,-3.4197,-3.4197,-3.4197,-3.4197,0.0,0.0,0.0,0.0,0.0,0.0,0.0,0.0,-3.2941,-3.2734,-3.2636,-3.2232,0.0,0.0,0.0,0.0,0.0,-3.18,-3.1248,-3.0523,-2.9725,-2.9484,-2.9379,-2.9334,0.0,0.0,0.0,0.0,0.0,0.0,-2.7131,-2.7881,-2.886,-3.0149,-3.1494,-3.2851,-3.2503,-3.2618,-3.3966,-3.4257,-3.4576,-3.5218,-3.54,-3.5469,-3.5469,-3.5526,-3.5622,-3.5751,-3.5644,-3.5683,-3.5843,-3.5837,-3.5924,-3.6128,-3.6207,-3.6259,-3.628,-3.628,-3.5856,-3.5114,-3.4766,-3.4198,-3.3423,-3.3023,-3.293,-3.3083,-3.2914,-3.2882,-3.2961,-3.3024,-3.2866,-3.2589,-3.267,-3.2539,-3.2336,0.0,0.0,0.0,0.0,0.0,0.0,0.0,0.0,0.0,0.0,0.0,0.0,0.0,0.0,0.0,0.0,0.0,0.0,0.0,0.0,0.0,-3.4328,-3.4316,-3.4305,-3.4293,-3.4233,-3.4197,-3.4197,-3.4197,-3.4197,-3.4197,-3.4197,-3.4197,-3.4197,-3.4197,-3.4197,-3.4197,-3.4197,-3.4197,-3.4197,-3.4197,0.0,0.0,0.0,0.0,0.0,0.0,0.0,0.0,-3.3147,-3.2896,-3.2636,-3.2284,0.0,0.0,0.0,0.0,0.0,-3.1837,-3.1248,-3.0781,-3.1076,-3.0678,-3.0316,-3.0755,0.0,0.0,0.0,0.0,0.0,0.0,-2.7823,-2.8793,-3.0162,-3.1608,-3.3023,-3.4376,-3.3945,-3.3796,-3.4641,-3.4875,-3.5012,-3.5111,-3.5245,-3.5314,-3.5314,-3.5446,-3.5537,-3.5537,-3.5571,-3.5423,-3.5091,-3.5651,-3.5775,-3.537,-3.5822,-3.6105,-3.6208,-3.6208,-3.5549,-3.4271,-3.427,-3.3569,-3.2336,-3.244,-3.2524,-3.2607,-3.2639,-3.2655,-3.2654,-3.2787,-3.2724,-3.2523,-3.2589,-3.2421,-3.2126,0.0,0.0,0.0,0.0,0.0,0.0,0.0,0.0,0.0,0.0,0.0,0.0,0.0,0.0,0.0,0.0,0.0,0.0,0.0,0.0,-3.442,-3.4305,-3.4293,-3.4281,-3.4245,-3.4221,-3.4197,-3.4197,-3.4197,-3.4197,-3.4197,-3.4197,-3.4197,-3.4197,-3.4197,-3.4197,-3.4197,-3.4197,-3.4197,-3.4197,0.0,0.0,0.0,0.0,0.0,0.0,0.0,0.0,0.0,0.0,-3.2928,-3.2636,-3.2318,0.0,0.0,0.0,0.0,0.0,-3.1818,-3.1212,-3.0828,-3.1844,-3.1242,-3.0435,-3.0569,0.0,0.0,0.0,0.0,0.0,0.0,-2.8829,-3.0057,-3.1539,-3.2287,-3.3055,-3.4154,-3.4005,-3.4054,-3.48,-3.4947,-3.4994,-3.4994,-3.5111,-3.5198,-3.5198,-3.5377,-3.5492,-3.5492,-3.5616,-3.5433,-3.481,-3.5185,-3.5288,-3.505,-3.4814,-3.5232,-3.6255,-3.5859,-3.5166,-3.425,-3.3838,-3.3152,-3.2284,-3.2354,-3.244,-3.2507,-3.249,-3.2506,-3.2557,-3.2574,-3.2541,-3.2507,-3.249,-3.2336,-3.209,0.0,0.0,0.0,0.0,0.0,0.0,0.0,0.0,0.0,0.0,0.0,0.0,0.0,0.0,0.0,0.0,0.0,0.0,0.0,0.0,-3.4404,-3.4281,-3.4305,-3.4281,-3.4209,-3.4197,-3.4197,-3.4197,-3.4197,-3.4197,-3.4173,-3.4197,-3.4185,-3.4173,-3.4197,-3.4197,-3.4197,-3.4197,-3.4197,-3.4197,0.0,0.0,0.0,0.0,0.0,0.0,0.0,0.0,0.0,0.0,0.0,0.0,0.0,0.0,0.0,-3.1984,-3.1875,-3.1819,-3.18,-3.1314,-3.1102,-3.2305,-3.1598,0.0,0.0,0.0,0.0,0.0,0.0,0.0,-2.9034,-3.0042,-3.1318,-3.247,-3.2865,-3.3255,-3.3972,-3.4054,-3.427,-3.4833,-3.4899,-3.4899,-3.4899,-3.4994,-3.5041,-3.5041,-3.5268,-3.5423,-3.5423,-3.5611,-3.5321,-3.4427,-3.4695,-3.469,-3.4373,-3.3877,-3.4442,-3.5983,-3.5222,-3.4582,-3.4069,-3.3461,-3.2876,-3.2354,-3.2354,-3.2405,-3.2473,-3.2422,-3.2422,-3.2473,-3.244,-3.2439,-3.249,-3.2353,-3.2232,-3.2108,0.0,0.0,0.0,0.0,0.0,0.0,0.0,0.0,0.0,0.0,0.0,0.0,0.0,0.0,0.0,0.0,0.0,0.0,0.0,0.0,-3.4473,-3.4221,-3.4328,-3.4328,-3.4209,-3.4197,-3.4197,-3.4197,-3.4197,-3.4173,-3.4111,-3.4173,-3.4173,-3.4111,-3.4173,-3.4197,-3.4197,-3.4197,-3.4197,-3.4197,-3.4197,0.0,0.0,0.0,0.0,0.0,0.0,0.0,0.0,0.0,0.0,0.0,0.0,0.0,-3.2179,-3.2108,-3.1984,-3.1893,-3.1837,-3.1748,-3.1848,-3.2444,-3.1915,0.0,-3.2869,-3.3119,0.0,-3.2018,0.0,-2.9665,-3.0158,-3.1347,-3.2305,-3.2484,-3.3637,-3.4607,-3.4776,-3.4816,-3.4833,-3.4883,-3.4899,-3.4899,-3.4899,-3.4899,-3.4923,-3.4923,-3.5041,-3.5128,-3.5128,-3.5377,-3.4885,-3.3541,-3.4279,-3.4078,-3.2778,-3.3447,-3.4227,-3.5088,-3.4209,-3.3593,-3.3195,-3.3126,-3.2767,-3.2214,-3.2214,-3.2284,-3.2423,-3.2388,-3.2388,-3.2405,-3.2473,-3.2507,-3.2456,-3.2232,-3.2108,-3.2073,0.0,0.0,0.0,0.0,0.0,0.0,0.0,0.0,0.0,0.0,0.0,0.0,0.0,0.0,0.0,0.0,0.0,0.0,0.0,-3.445,-3.4386,-3.4209,-3.4293,-3.4293,-3.4209,-3.4197,-3.4197,-3.4197,-3.4161,-3.4086,-3.3972,-3.3959,-3.3895,-3.3807,-3.3947,-3.4011,-3.4011,-3.4011,-3.4011,-3.4011,-3.4011,-3.4011,0.0,0.0,0.0,0.0,0.0,0.0,0.0,0.0,-3.2771,-3.2507,-3.2473,-3.2336,-3.2197,-3.2161,-3.2037,-3.1894,-3.1875,-3.1765,-3.1945,-3.3006,-3.2988,0.0,0.0,-3.3241,-3.3088,-3.2644,-3.1993,-3.1522,-3.161,-3.1608,-3.1945,-3.3021,-3.3961,-3.4643,-3.4875,-3.4899,-3.4899,-3.4899,-3.4899,-3.4899,-3.4899,-3.4899,-3.4899,-3.4899,-3.5088,-3.5198,-3.5088,-3.5389,-3.5076,-3.4004,-3.3994,-3.3747,-3.3226,-3.2562,-3.2713,-3.3625,-3.3311,-3.3137,-3.3091,-3.257,-3.2298,-3.2197,-3.2197,-3.2232,-3.2267,-3.2267,-3.2267,-3.2336,-3.2844,-3.3353,-3.372,-3.35,-3.3131,-3.2751,0.0,0.0,0.0,0.0,0.0,0.0,0.0,0.0,0.0,0.0,0.0,0.0,0.0,0.0,0.0,0.0,0.0,0.0,-3.5106,-3.4911,-3.475,-3.4618,-3.4418,-3.4269,-3.4197,-3.4197,-3.4197,-3.4197,-3.4086,-3.3947,-3.378,-3.3753,-3.3671,-3.3577,-3.3739,-3.382,-3.382,-3.382,-3.382,-3.3847,-3.3847,-3.3842,0.0,0.0,0.0,0.0,0.0,0.0,0.0,0.0,-3.2771,-3.2523,-3.2524,-3.2405,-3.2249,-3.2179,-3.2073,-3.1948,-3.1893,-3.1765,-3.1943,-3.3074,0.0,0.0,-3.3475,-3.3627,-3.3729,-3.3499,-3.3135,-3.2679,-3.2053,-3.1824,-3.2124,-3.3346,-3.407,-3.4594,-3.4875,-3.4899,-3.4899,-3.4899,-3.4899,-3.4899,-3.4899,-3.4899,-3.4899,-3.4899,-3.5065,-3.5152,-3.5088,-3.5321,-3.4981,-3.394,-3.3609,-3.3224,-3.2774,-3.1741,-3.1567,-3.2327,-3.2327,-3.2481,-3.2691,-3.2136,-3.1966,-3.2161,-3.2161,-3.2179,-3.2197,-3.2179,-3.2301,-3.2598,-3.3399,-3.4029,-3.4446,-3.4256,-3.3771,-3.3167,0.0,0.0,0.0,0.0,0.0,0.0,0.0,0.0,0.0,0.0,0.0,0.0,0.0,0.0,0.0,0.0,0.0,0.0,-3.6789,-3.6124,-3.5664,-3.551,-3.4741,-3.4288,-3.4197,-3.4197,-3.4197,-3.4197,-3.3998,-3.3766,-3.3509,-3.3563,-3.3563,-3.3509,-3.3577,-3.3605,-3.3605,-3.3605,-3.3647,-3.3698,-3.3698,-3.3739,-3.3775,0.0,0.0,0.0,0.0,0.0,0.0,0.0,-3.2706,-3.2589,-3.2523,-3.2456,-3.2354,-3.2161,-3.209,-3.2055,-3.1873,-3.18,-3.1934,-3.2479,0.0,0.0,-3.394,-3.4588,-3.5018,-3.4739,-3.3883,-3.2738,-3.1202,-3.2109,-3.3161,-3.3368,-3.4022,-3.4594,-3.4875,-3.4899,-3.4899,-3.4899,-3.4899,-3.4899,-3.4899,-3.4899,-3.4899,-3.4899,-3.4899,-3.4947,-3.5105,-3.5105,-3.4485,-3.3143,-3.3115,-3.2437,-3.1029,-3.1012,-3.1098,-3.1295,-3.1295,-3.1506,-3.1894,-3.1838,-3.191,-3.2108,-3.209,-3.2126,-3.2214,-3.2143,-3.2561,-3.3291,-3.4107,-3.4401,-3.4401,-3.4272,-3.3805,-3.3183,0.0,0.0,0.0,0.0,0.0,0.0,0.0,0.0,0.0,0.0,0.0,0.0,0.0,0.0,0.0,0.0,0.0,0.0,-3.6725,-3.6515,-3.6384,-3.6346,-3.5578,-3.5132,-3.512,-3.4513,-3.4136,-3.3985,-3.3739,-3.3502,-3.3298,-3.3268,-3.3178,-3.3104,-3.343,-3.3488,-3.3324,-3.3516,-3.3619,-3.3633,-3.3633,-3.3726,-3.3855,0.0,0.0,0.0,0.0,0.0,0.0,0.0,0.0,0.0,-3.2573,-3.2102,-3.1668,-3.2144,-3.1812,-3.1394,-3.1933,-3.231,-3.2747,-3.3429,0.0,0.0,0.0,-3.4938,0.0,-3.4497,-3.3387,-3.2501,-3.2457,-3.2384,-3.2529,-3.3168,-3.3949,-3.4546,-3.4715,-3.4851,-3.4804,-3.4521,-3.4472,-3.4399,-3.4226,-3.4374,-3.4399,-3.4226,-3.4546,-3.4691,-3.4546,-3.4804,-3.4771,-3.4363,-3.3545,-3.2837,-3.2343,-3.1452,-3.1075,-3.1232,-3.1232,-3.1368,-3.1632,-3.1653,-3.1746,-3.1893,-3.193,-3.2296,-3.287,-3.3371,-3.3973,-3.4641,-3.4909,-3.5382,-3.5864,-3.5728,-3.4918,-3.3888,0.0,0.0,0.0,0.0,0.0,0.0,0.0,0.0,0.0,0.0,0.0,0.0,0.0,0.0,0.0,0.0,0.0,0.0,0.0,-3.7336,-3.7169,-3.7169,-3.642,-3.5813,-3.5472,-3.4871,-3.4286,-3.3739,-3.3619,-3.3415,-3.3205,-3.3086,-3.2979,-3.2916,-3.3193,-3.3238,-3.3083,-3.3253,-3.3327,-3.336,-3.336,-3.3459,-3.3583,0.0,0.0,0.0,0.0,0.0,0.0,0.0,0.0,0.0,-3.2622,-3.2188,-3.1754,-3.1845,-3.1865,-3.1864,-3.2038,-3.2708,-3.3453,-3.3862,-3.4301,-3.4655,-3.4788,-3.4739,-3.457,-3.4275,-3.3559,-3.3016,-3.3223,-3.2933,-3.2796,-3.3133,-3.3709,-3.4151,-3.4275,-3.4374,-3.4325,-3.4101,-3.405,-3.4025,-3.3899,-3.405,-3.4075,-3.3899,-3.4201,-3.4325,-3.4151,-3.4472,-3.4583,-3.4398,-3.3783,-3.3161,-3.2555,-3.2081,-3.1601,-3.1131,-3.1702,-3.1958,-3.1886,-3.1619,-3.1732,-3.2209,-3.2635,-3.2898,-3.3102,-3.4196,-3.4866,-3.5235,-3.5552,-3.6008,-3.6423,-3.6322,-3.5396,-3.4179,0.0,0.0,0.0,0.0,0.0,0.0,0.0,0.0,0.0,0.0,0.0,0.0,0.0,0.0,0.0,0.0,0.0,0.0,0.0,0.0,-3.8005,-3.8005,-3.7225,-3.64,-3.5538,-3.5301,-3.4692,-3.3629,-3.3599,-3.343,-3.3175,-3.2977,-3.29,-3.29,-3.2916,-3.2916,-3.29,-3.2916,-3.2963,-3.3011,-3.3011,-3.3073,-3.3132,-3.3088,0.0,0.0,0.0,0.0,0.0,0.0,0.0,0.0,-3.2479,-3.238,-3.2209,-3.1285,-3.2004,-3.2924,-3.2138,-3.3031,-3.418,-3.4063,-3.432,-3.4505,-3.4178,-3.4201,-3.4226,-3.405,-3.405,-3.3949,-3.3513,-3.3581,-3.3565,-3.3245,-3.3366,-3.3555,-3.3668,-3.3694,-3.3668,-3.3642,-3.3642,-3.3668,-3.3771,-3.3822,-3.3822,-3.3797,-3.3848,-3.3873,-3.3873,-3.4126,-3.4064,-3.3672,-3.3868,-3.3401,-3.2152,-3.2797,-3.2492,-3.1231,-3.258,-3.2992,-3.2576,-3.1842,-3.2027,-3.2977,-3.3893,-3.3827,-3.3214,-3.4763,-3.5348,-3.537,-3.6042,-3.6301,-3.6301,-3.6301,-3.5414,-3.4179,0.0,0.0,0.0,0.0,0.0,0.0,0.0,0.0,0.0,0.0,0.0,0.0,0.0,0.0,0.0,0.0,0.0,0.0,0.0,0.0,-3.8841,-3.8841,-3.8061,-3.7222,-3.6345,-3.6136,-3.5588,-3.4687,-3.3749,-3.3193,-3.2961,-3.2916,-3.2868,-3.2838,-3.3039,-3.3024,-3.2838,-3.3055,-3.3144,-3.3162,-3.3162,-3.3298,-3.3488,-3.3477,-3.3342,0.0,0.0,0.0,0.0,0.0,0.0,0.0,-3.1221,-3.116,-3.138,-3.0562,-3.1271,-3.2316,-3.2178,-3.3507,0.0,-3.5002,-3.5177,-3.5148,-3.4301,-3.4126,-3.4025,-3.3581,-3.3658,-3.3642,-3.3182,-3.3251,-3.3319,-3.3076,-3.3303,-3.3503,-3.3555,-3.3617,-3.3565,-3.3208,-3.3156,-3.3076,-3.2904,-3.3198,-3.3319,-3.3123,-3.3503,-3.3694,-3.3607,-3.3848,-3.3986,-3.3998,-3.39,-3.3663,-3.3257,-3.3255,-3.3097,-3.2799,-3.3187,-3.3363,-3.3373,-3.323,-3.3408,-3.3867,-3.453,-3.4774,-3.4766,-3.5701,-3.608,-3.6077,-3.6232,-3.6301,-3.6301,-3.6301,-3.5373,-3.4116,0.0,0.0,0.0,0.0,0.0,0.0,0.0,0.0,0.0,0.0,0.0,0.0,0.0,0.0,0.0,0.0,0.0,0.0,0.0,0.0,-3.9101,-3.9101,-3.867,-3.7975,-3.7007,-3.6885,-3.6307,-3.5251,-3.4586,-3.3836,-3.3039,-3.2916,-3.2838,-3.2823,-3.2948,-3.2932,-3.2805,-3.2977,-3.307,-3.307,-3.307,-3.3147,-3.3268,-3.3268,-3.3178,-3.307,-3.307,0.0,0.0,0.0,0.0,0.0,0.0,0.0,-3.0651,-2.9834,-3.05,-3.1603,-3.2004,-3.3351,0.0,-3.5317,0.0,-3.531,-3.4159,-3.3949,-3.3771,-3.2931,-3.316,-3.3356,-3.2807,-3.2861,-3.2861,-3.2578,-3.266,-3.2769,-3.2769,-3.2904,-3.2888,-3.2645,-3.2656,-3.2672,-3.2621,-3.2908,-3.3016,-3.2773,-3.316,-3.3319,-3.3065,-3.3461,-3.3771,-3.3899,-3.3999,-3.3831,-3.3399,-3.3657,-3.3516,-3.3011,-3.3762,-3.4297,-3.4644,-3.4396,-3.4141,-3.3988,-3.5084,-3.5442,-3.5249,-3.599,-3.6301,-3.6301,-3.6301,-3.6301,-3.6266,-3.5904,-3.5059,-3.4044,0.0,0.0,0.0,0.0,0.0,0.0,0.0,0.0,0.0,0.0,0.0,0.0,0.0,0.0,0.0,0.0,0.0,0.0,0.0,0.0,0.0,-3.9073,-3.9007,-3.853,-3.7609,-3.7534,-3.6919,-3.5707,-3.562,-3.481,-3.333,-3.3064,-3.2899,-3.2773,-3.2789,-3.2789,-3.2773,-3.2852,-3.29,-3.29,-3.29,-3.29,-3.29,-3.29,-3.29,-3.29,-3.29,-3.29,-3.2864,-3.2579,0.0,0.0,0.0,0.0,-3.011,-2.912,-2.9831,-3.1115,-3.1811,-3.3209,-3.4665,-3.5406,-3.56,-3.5264,-3.4009,-3.3797,-3.3523,-3.2413,-3.2715,-3.2985,-3.2413,-3.2345,-3.2314,-3.1994,-3.1905,-3.1916,-3.2038,-3.215,-3.2219,-3.2247,-3.2342,-3.2425,-3.2551,-3.2746,-3.2773,-3.2621,-3.2881,-3.2935,-3.2676,-3.3134,-3.345,-3.3555,-3.3975,-3.3908,-3.3283,-3.3966,-3.3883,-3.3036,-3.4256,-3.5142,-3.5667,-3.5171,-3.4648,-3.4165,-3.5553,-3.5847,-3.5418,-3.6042,-3.6301,-3.6301,-3.6301,-3.6301,-3.6215,-3.5473,-3.4731,-3.3992,0.0,0.0,0.0,0.0,0.0,0.0,0.0,0.0,0.0,0.0,0.0,0.0,0.0,0.0,0.0,0.0,0.0,0.0,0.0,0.0,0.0,-3.9007,-3.8892,-3.8673,-3.8361,-3.8072,-3.7477,-3.655,-3.6361,-3.5435,-3.38,-3.3718,-3.3295,-3.2639,-3.2756,-3.274,-3.2639,-3.2818,-3.29,-3.29,-3.29,-3.29,-3.29,-3.29,-3.29,-3.29,-3.29,-3.29,-3.2686,-3.1296,-3.1207,0.0,0.0,0.0,-3.0082,-2.8514,-2.9523,-3.1287,-3.1846,0.0,-3.5937,0.0,-3.56,-3.5287,-3.4134,-3.3797,-3.3408,-3.2262,-3.237,-3.2535,-3.1968,-3.1689,-3.1612,-3.1807,-3.1539,-3.1506,-3.2086,-3.2191,-3.2247,-3.237,-3.2398,-3.2425,-3.2425,-3.2551,-3.2621,-3.2594,-3.28,-3.2897,-3.287,-3.2924,-3.2978,-3.3005,-3.3503,-3.3723,-3.3627,-3.4202,-3.4399,-3.4267,-3.4511,-3.4826,-3.5182,-3.5163,-3.5341,-3.5707,-3.5933,-3.6032,-3.6071,-3.6224,-3.6301,-3.6301,-3.6301,-3.6301,-3.6215,-3.5473,-3.4731,-3.3992,0.0,0.0,0.0,0.0,0.0,0.0,0.0,0.0,0.0,0.0,0.0,0.0,0.0,0.0,0.0,0.0,0.0,0.0,0.0,0.0,0.0,-3.8993,-3.8803,-3.8588,-3.8385,-3.8105,-3.7701,-3.7202,-3.7005,-3.6114,-3.4619,-3.4412,-3.3671,-3.2557,-3.264,-3.2673,-3.2605,-3.2802,-3.29,-3.29,-3.29,-3.29,-3.29,-3.29,-3.29,-3.29,-3.29,-3.29,-3.2721,-3.1564,-3.1118,-3.0764,-2.929,0.0,0.0,0.0,-2.8579,-2.9639,-3.1446,-3.3719,-3.5599,0.0,-3.5644,-3.531,-3.4159,-3.3764,-3.3335,-3.2219,-3.215,-3.2191,-3.194,-3.1754,-3.1675,-3.1866,-3.1598,-3.1479,-3.1766,-3.1896,-3.1996,-3.2066,-3.2206,-3.2302,-3.2302,-3.2468,-3.2578,-3.2496,-3.2746,-3.2843,-3.2746,-3.2843,-3.2897,-3.2897,-3.3123,-3.3282,-3.3346,-3.3607,-3.3873,-3.4176,-3.4358,-3.4578,-3.4875,-3.4906,-3.5264,-3.5905,-3.5905,-3.6014,-3.6187,-3.6229,-3.6276,-3.6301,-3.6301,-3.6195,-3.5891,-3.4946,-3.4252,-3.361,0.0,0.0,0.0,0.0,0.0,0.0,0.0,0.0,0.0,0.0,0.0,0.0,0.0,0.0,0.0,0.0,0.0,0.0,0.0,0.0,0.0,-3.8983,-3.868,-3.843,-3.8256,-3.7968,-3.7721,-3.754,-3.741,-3.6556,-3.5083,-3.4853,-3.3934,-3.2473,-3.254,-3.2573,-3.2589,-3.2787,-3.2868,-3.2868,-3.29,-3.29,-3.29,-3.29,-3.29,-3.29,-3.29,-3.29,-3.2757,-3.174,-3.1011,-3.0336,-2.939,-2.8649,0.0,0.0,0.0,-2.8714,-3.0768,0.0,-3.4257,-3.4585,-3.4859,-3.4756,-3.3632,-3.3517,-3.3371,-3.2274,-3.201,-3.1996,-3.1996,-3.1639,-3.1449,-3.1838,-3.1426,-3.1194,-3.1523,-3.1698,-3.1813,-3.1841,-3.2066,-3.2191,-3.2191,-3.2413,-3.2496,-3.237,-3.2621,-3.2676,-3.2511,-3.2691,-3.2773,-3.2773,-3.2816,-3.2854,-3.2962,-3.3043,-3.3309,-3.3694,-3.3924,-3.4201,-3.4497,-3.4521,-3.489,-3.5526,-3.5661,-3.58,-3.6014,-3.6101,-3.6208,-3.6259,-3.6152,-3.6002,-3.564,-3.4326,-3.3683,-3.3322,0.0,0.0,0.0,0.0,0.0,0.0,0.0,0.0,0.0,0.0,0.0,0.0,-3.9011,-3.9059,-3.9101,-3.9101,0.0,0.0,0.0,0.0,0.0,-3.891,-3.853,0.0,-3.8101,-3.7792,-3.754,-3.7411,-3.7411,-3.6502,-3.4817,-3.4799,-3.3935,-3.2423,-3.2473,-3.2524,-3.2524,-3.2724,-3.2823,-3.2805,-3.2868,-3.29,-3.29,-3.29,-3.29,-3.29,-3.29,-3.29,-3.2668,-3.11,-3.0529,-3.0229,-2.8731,-2.8231,-2.8168,0.0,0.0,0.0,0.0,-3.0819,0.0,-3.1606,-3.2537,-3.3235,-3.2145,-3.2925,-3.3549,-3.2441,-3.2094,-3.1996,-3.1996,-3.0964,-3.0416,-3.1359,-3.0603,-3.0325,-3.1618,-3.1799,-3.1841,-3.1968,-3.2122,-3.2191,-3.2191,-3.2315,-3.2342,-3.2219,-3.2342,-3.237,-3.2219,-3.2342,-3.2425,-3.2425,-3.2551,-3.2621,-3.2621,-3.2935,-3.3096,-3.3123,-3.3266,-3.3555,-3.3949,-3.4075,-3.4349,-3.4787,-3.5218,-3.5424,-3.547,-3.5866,-3.6101,-3.6182,-3.5778,-3.5694,-3.5574,-3.3746,-3.3254,-3.3281,0.0,0.0,0.0,0.0,0.0,0.0,0.0,0.0,0.0,0.0,0.0,0.0,0.0,-3.9021,-3.9045,-3.9101,-3.9045,0.0,0.0,0.0,0.0,-3.8851,-3.8621,-3.8382,-3.8101,-3.7898,-3.7667,-3.7411,-3.7354,-3.6748,-3.5631,-3.5501,-3.4637,-3.3213,-3.277,-3.2556,-3.2573,-3.2771,-3.2852,-3.287,-3.2884,-3.29,-3.2953,-3.3372,-3.3535,-3.3606,-3.4035,-3.391,-3.3375,-3.2273,-3.1627,-3.0993,-2.9458,-2.8962,-2.8841,-2.8184,-2.8569,-2.9265,0.0,0.0,0.0,-3.1361,-3.1754,-3.2042,-3.1958,-3.2248,-3.2508,-3.2377,-3.2219,-3.2066,-3.1883,-3.1016,-3.0616,-3.1548,-3.0889,-3.0563,-3.1477,-3.1597,-3.1626,-3.1668,-3.1826,-3.194,-3.194,-3.2066,-3.2107,-3.2066,-3.2206,-3.2247,-3.2191,-3.2315,-3.2398,-3.2398,-3.2453,-3.2523,-3.2594,-3.273,-3.2881,-3.3096,-3.3058,-3.3256,-3.3658,-3.3771,-3.3975,-3.4226,-3.4626,-3.4977,-3.5228,-3.535,-3.5487,-3.5538,-3.5402,-3.5241,-3.4985,-3.4035,-3.3362,-3.2745,0.0,0.0,0.0,0.0,0.0,0.0,0.0,0.0,0.0,0.0,0.0,0.0,0.0,0.0,-3.8993,-3.9045,-3.9021,-3.8993,-3.8993,-3.8921,-3.8818,-3.8698,-3.8478,-3.8269,-3.8035,-3.7611,-3.7399,-3.7411,-3.7069,-3.6604,-3.6054,-3.5868,-3.5163,-3.4023,-3.3546,-3.3051,-3.2573,-3.2721,-3.2836,-3.2868,-3.2884,-3.29,-3.2953,-3.339,-3.3696,-3.3947,-3.4393,-3.4286,-3.3787,-3.2971,-3.2254,-3.1474,-3.019,-2.9747,-2.9614,-2.8965,-2.8823,0.0,-2.9321,0.0,0.0,-2.9824,-3.0168,-3.0603,-3.1231,-3.1505,-3.1861,-3.2534,-3.2425,-3.215,-3.1968,-3.1212,-3.0784,-3.1277,-3.0726,-3.0417,-3.1062,-3.1152,-3.1241,-3.1481,-3.167,-3.1799,-3.1799,-3.1912,-3.1968,-3.1955,-3.2066,-3.215,-3.215,-3.2274,-3.2342,-3.2398,-3.2398,-3.2425,-3.2523,-3.2578,-3.2757,-3.3032,-3.2978,-3.3123,-3.345,-3.3581,-3.371,-3.3848,-3.4151,-3.4521,-3.4899,-3.4994,-3.5071,-3.5148,-3.5031,-3.4842,-3.4633,-3.4001,-3.3377,-3.2724,0.0,0.0,0.0,0.0,0.0,0.0,0.0,0.0,0.0,-3.8707,0.0,0.0,0.0,0.0,0.0,-3.8979,-3.8979,-3.8979,-3.8979,-3.874,-3.8554,-3.8476,0.0,0.0,0.0,-3.6952,-3.6756,-3.7411,-3.6536,-3.609,-3.6032,-3.5902,-3.5443,-3.4741,-3.4815,-3.3988,-3.2525,-3.2608,-3.2707,-3.2823,-3.2868,-3.2918,-3.292,-3.2938,-3.3354,-3.393,-3.3983,-3.3947,-3.3805,-3.306,-3.2343,-3.1617,-3.0814,-3.0484,-3.0373,-3.0282,-2.9657,0.0,0.0,0.0,0.0,-2.6825,-2.7684,-2.8901,-2.9842,-3.0716,-3.1683,-3.2902,-3.2621,-3.2203,-3.2191,-3.1463,-3.0774,-3.0535,-3.0011,-2.9804,-3.0417,-3.0507,-3.0761,-3.1421,-3.167,-3.1799,-3.1799,-3.1912,-3.194,-3.1784,-3.1912,-3.1996,-3.1996,-3.2107,-3.2274,-3.2398,-3.2398,-3.2398,-3.2398,-3.2523,-3.2676,-3.2897,-3.3032,-3.315,-3.3309,-3.345,-3.3581,-3.3694,-3.3848,-3.4126,-3.4497,-3.478,-3.4947,-3.5018,-3.4643,-3.457,-3.456,-3.3502,-3.3282,-3.3303,0.0,0.0,0.0,0.0,0.0,0.0,0.0,0.0,-3.8485,0.0,0.0,0.0,-3.8588,-3.8572,-3.8559,-3.8556,-3.8512,-3.8499,-3.8499,-3.8435,-3.8336,-3.8218,-3.8206,-3.8054,-3.7757,-3.7577,-3.7435,-3.7334,-3.7084,-3.6904,-3.6791,-3.6712,-3.625,-3.5513,-3.5514,-3.4726,-3.3371,-3.344,-3.3205,-3.2807,-3.2821,-3.311,-3.3612,-3.4144,-3.4464,-3.4748,-3.5769,-3.5489,-3.4677,-3.4977,-3.4287,-3.3072,-3.178,-3.093,0.0,-2.9627,-2.9218,0.0,-2.8104,0.0,0.0,0.0,0.0,0.0,-2.8685,-2.9325,-3.0054,-3.1457,-3.1944,-3.2146,-3.2182,-3.1982,-3.1597,-3.0988,-3.0162,-2.9804,-3.0417,-3.0507,-3.0761,-3.1421,-3.167,-3.1727,-3.1597,-3.1855,-3.1883,-3.1597,-3.1855,-3.1968,-3.187,-3.2066,-3.2274,-3.2398,-3.2398,-3.2398,-3.2398,-3.2425,-3.2523,-3.2676,-3.287,-3.3032,-3.315,-3.3398,-3.3529,-3.3581,-3.3797,-3.3949,-3.4075,-3.425,-3.4349,-3.4374,-3.425,-3.4226,-3.4234,-3.394,-3.3575,-3.3144,0.0,0.0,0.0,0.0,0.0,0.0,0.0,-3.8564,-3.8501,0.0,0.0,0.0,-3.8332,-3.8352,-3.8352,-3.8352,-3.8322,-3.8307,-3.8307,-3.8172,-3.8035,-3.7931,-3.7898,-3.7775,-3.754,-3.7291,-3.7201,-3.7297,-3.694,-3.6883,-3.7108,-3.7029,-3.6742,-3.6285,0.0,0.0,-3.4147,-3.3812,-3.3332,-3.2807,-3.274,-3.3168,-3.3897,-3.4287,-3.4818,-3.5471,-3.6295,-3.6049,-3.5418,-3.5875,-3.5066,-3.3697,-3.2565,-3.162,-3.0899,-3.0637,-3.0079,0.0,0.0,0.0,0.0,-2.7203,0.0,0.0,-2.8369,-2.9082,-2.9892,-3.1465,-3.1748,-3.1882,-3.2431,-3.1897,-3.1292,-3.1104,-3.0594,-3.031,-3.0672,-3.0476,-3.0539,-3.1216,-3.1334,-3.1291,-3.1177,-3.1632,-3.1841,-3.1641,-3.1855,-3.1996,-3.1968,-3.2178,-3.2315,-3.2398,-3.2398,-3.2398,-3.2398,-3.2398,-3.2453,-3.2594,-3.28,-3.2978,-3.3112,-3.3335,-3.345,-3.3503,-3.372,-3.3838,-3.3822,-3.3949,-3.405,-3.4101,-3.3975,-3.4,-3.4101,-3.405,-3.3792,-3.3469,0.0,0.0,0.0,0.0,0.0,0.0,0.0,-3.858,-3.8499,0.0,-3.8334,-3.8269,-3.8103,-3.8154,-3.8206,-3.8206,-3.8206,-3.8206,-3.8206,-3.7932,-3.7739,-3.7667,-3.7429,-3.7297,-3.7278,-3.6588,-3.6588,-3.7278,-3.6494,-3.6474,-3.7108,-3.7029,-3.7007,-3.6972,0.0,0.0,-3.4728,-3.3881,-3.3265,-3.2899,-3.2764,-3.3278,-3.4109,-3.4075,-3.4853,-3.5996,-3.6085,-3.6067,-3.5996,-3.5996,-3.5119,-3.3893,-3.3226,-3.2474,-3.1925,-3.2354,-3.1508,0.0,0.0,0.0,0.0,-2.7433,-2.7012,0.0,-2.8538,-2.9365,-3.0279,-3.1808,-3.1526,-3.1322,-3.2369,-3.1202,-3.0262,-3.0807,-3.0884,-3.0882,-3.098,-3.0418,-3.0251,-3.0919,-3.0782,-3.0639,-3.0611,-3.124,-3.166,-3.1707,-3.1881,-3.2038,-3.2191,-3.2287,-3.237,-3.2398,-3.2398,-3.2398,-3.2398,-3.2398,-3.2453,-3.2578,-3.2773,-3.2951,-3.3085,-3.3229,-3.3346,-3.3477,-3.3633,-3.3684,-3.3684,-3.3797,-3.3924,-3.4025,-3.3797,-3.3873,-3.4075,-3.3949,-3.4,-3.4003,0.0,0.0,0.0,0.0,0.0,0.0,0.0,0.0,-3.7721,-3.7879,-3.7862,-3.7862,-3.7933,-3.7828,-3.7739,-3.7739,-3.7739,-3.7739,-3.7739,-3.7667,-3.7595,-3.7449,-3.7411,-3.7299,-3.7147,-3.708,-3.7099,-3.7147,-3.6967,-3.6967,-3.7108,-3.7029,-3.7007,-3.6972,0.0,0.0,-3.4672,-3.3845,-3.3512,-3.3529,-3.3511,-3.427,-3.5447,-3.5539,-3.5751,-3.6067,-3.6607,-3.645,-3.5996,-3.5996,-3.5418,-3.4588,-3.3911,-3.3229,-3.2547,-3.1893,-3.1508,-3.1089,-3.0246,-2.9869,-2.9612,-2.9358,-2.8558,0.0,-2.8407,-2.837,-2.841,-2.9025,-2.9412,-2.9708,-2.9832,-2.9525,-2.9184,-2.9033,-2.9502,-3.0156,-3.0897,-3.0418,-3.0251,-3.0919,-3.059,-3.0255,-3.0137,-3.0445,-3.0804,-3.1134,-3.1596,-3.194,-3.2191,-3.2122,-3.2163,-3.2398,-3.2398,-3.2398,-3.2398,-3.2398,-3.2425,-3.2425,-3.2578,-3.2746,-3.2951,-3.3085,-3.3203,-3.3361,-3.3477,-3.3555,-3.3555,-3.3581,-3.3658,-3.3771,-3.3848,-3.3899,-3.3949,-3.4025,-3.4075,-3.4084,0.0,0.0,0.0,0.0,0.0,0.0,0.0,0.0,-3.7703,-3.7703,-3.7613,-3.7577,-3.7631,-3.7631,-3.7595,-3.7595,-3.7595,-3.7595,-3.7595,-3.7521,-3.7428,-3.7354,-3.726,-3.7164,-3.7048,-3.7124,-3.7124,-3.7048,-3.7048,-3.7048,-3.7048,-3.7009,-3.7007,-3.6954,0.0,0.0,-3.4636,-3.3459,-3.3213,-3.36,-3.36,-3.4515,-3.5886,-3.5886,-3.6151,-3.6538,-3.6886,-3.6781,-3.645,-3.612,-3.5752,-3.5278,-3.4215,-3.3394,-3.2699,-3.2278,-3.1841,-3.1372,-3.0804,-3.0567,-3.0396,-2.9962,-2.9397,0.0,0.0,-2.8836,-2.9105,-2.8814,-2.8837,-2.9048,-2.9556,-2.8768,-2.821,-2.867,-2.9309,-2.9887,-3.0242,-2.9939,-2.9933,-3.0605,-3.0402,-3.0162,-3.0099,-3.0536,-3.0761,-3.0723,-3.1253,-3.1674,-3.1796,-3.2063,-3.2274,-3.2398,-3.2398,-3.2398,-3.2398,-3.2398,-3.2398,-3.2398,-3.2551,-3.2718,-3.2881,-3.2656,-3.283,-3.3277,-3.3085,-3.3159,-3.3398,-3.3477,-3.3322,-3.3064,-3.3115,-3.3517,-3.3951,-3.3596,-3.3718,-3.4101,0.0,0.0,0.0,0.0,0.0,0.0,0.0,0.0,-3.7757,-3.754,-3.7411,-3.7408,-3.7586,-3.7698,-3.7753,-3.7753,-3.7753,-3.77,-3.7576,-3.741,-3.7316,-3.7297,-3.7143,-3.7046,-3.7007,-3.7007,-3.7007,-3.7007,-3.7009,-3.7009,-3.7007,-3.6869,-3.6886,-3.6937,0.0,0.0,0.0,-3.3142,-3.2915,-3.3493,-3.3598,-3.4495,-3.5766,-3.5795,-3.6197,-3.6796,-3.6937,-3.6902,-3.6691,-3.6171,-3.5891,-3.5575,-3.4446,-3.3575,-3.2935,-3.2971,-3.2372,-3.1671,-3.1473,-3.139,-3.1182,-3.0485,-3.0173,-2.9826,0.0,0.0,0.0,-2.899,-2.8483,-2.8467,-2.9353,-2.809,-2.7227,-2.8199,-2.8816,-2.9155,-2.9097,-2.8958,-2.9206,-3.0094,-3.0001,-2.9904,-3.0042,-3.0654,-3.0803,-3.0248,-3.0801,-3.1171,-3.1197,-3.1693,-3.2047,-3.2198,-3.2198,-3.2259,-3.2398,-3.2398,-3.2398,-3.2398,-3.2523,-3.2676,-3.2881,-3.2368,-3.2557,-3.3261,-3.2812,-3.2891,-3.3309,-3.3424,-3.3143,-3.2628,-3.2485,-3.2935,-3.3598,-3.3047,-3.3306,-3.3922,-3.7879,-3.7721,0.0,0.0,0.0,0.0,0.0,0.0,-3.7186,-3.7166,-3.7129,-3.7448,-3.8268,-3.8341,-3.8306,-3.8306,-3.8306,-3.8061,-3.7465,-3.7411,-3.7354,-3.7297,-3.7278,-3.7182,-3.6989,-3.7007,-3.7007,-3.7007,-3.705,-3.7068,-3.6989,-3.6399,-3.6434,-3.6902,-3.4636,-3.3967,-3.447,-3.352,-3.3225,-3.3456,-3.3992,-3.4469,-3.4917,-3.5565,-3.5845,-3.602,-3.6744,-3.6531,-3.5934,-3.5995,-3.5539,-3.4923,-3.4818,-3.4322,-3.3735,-3.3634,-3.3068,-3.2449,-3.2299,-3.2265,-3.223,-3.2143,-3.1514,-3.0712,-2.9843,0.0,-2.8467,-2.7514,0.0,-2.7131,-2.7026,0.0,0.0,-2.61,-2.6322,-2.6714,-2.7217,-2.713,-2.7635,-2.9304,-2.8972,-2.8849,-2.9448,-3.0084,-3.0233,-2.9556,-3.0032,-3.0389,-3.0509,-3.0451,-3.0784,-3.1474,-3.1516,-3.1782,-3.2382,-3.2398,-3.2398,-3.2398,-3.2425,-3.2578,-3.2897,-3.2652,-3.2815,-3.3309,-3.3124,-3.3124,-3.3309,-3.3335,-3.3403,-3.3492,-3.2828,-3.2367,-3.2152,-3.2822,-3.3129,-3.3291,-3.7412,-3.743,0.0,0.0,0.0,0.0,0.0,0.0,-3.7048,-3.7048,-3.7069,-3.7251,-3.7643,-3.8106,-3.839,-3.839,-3.8835,-3.8978,-3.8681,-3.8238,-3.7952,-3.7872,-3.7431,-3.7126,-3.6989,-3.7007,-3.7007,-3.7007,-3.7029,-3.7029,-3.6989,-3.6712,-3.673,-3.6919,-3.4948,-3.4451,-3.5002,-3.3651,-3.3334,-3.3784,-3.4021,-3.4198,-3.4401,-3.5416,-3.6092,-3.6531,-3.6884,-3.6478,-3.5881,-3.6413,-3.6044,-3.5412,-3.5505,-3.5048,-3.4393,-3.3951,-3.3243,-3.2589,-3.2523,-3.2456,-3.2406,-3.2406,-3.2108,-3.1636,-3.0747,-2.9911,-2.9046,-2.8105,0.0,0.0,0.0,0.0,0.0,0.0,-2.6435,-2.6756,-2.6824,-2.7014,-2.7482,-2.8318,-2.8084,-2.799,-2.8268,-2.9221,-2.955,-2.8947,-2.9787,-3.0334,-3.0402,-3.0334,-3.0457,-3.0812,-3.1197,-3.1547,-3.184,-3.2198,-3.2398,-3.2398,-3.248,-3.2578,-3.273,-3.2391,-3.2582,-3.3145,-3.2804,-3.2929,-3.3398,-3.3319,-3.3248,-3.3107,-3.2318,-3.224,-3.2555,-3.2474,-3.2724,-3.3194,-3.705,0.0,0.0,0.0,0.0,0.0,0.0,-3.7189,-3.7077,-3.7288,-3.7171,-3.7158,-3.7351,-3.8131,-3.8627,-3.8607,-3.9353,-3.9744,-3.9532,-3.9005,-3.8578,-3.8305,-3.7743,-3.7298,-3.7007,-3.7007,-3.7007,-3.7007,-3.6816,-3.671,-3.6654,0.0,0.0,0.0,-3.463,-3.4238,-3.4805,-3.3504,-3.3233,-3.3709,-3.3894,-3.412,-3.4421,-3.5314,-3.6186,-3.6928,-3.6948,-3.6459,-3.588,-3.6517,-3.6304,-3.5811,-3.596,-3.5629,-3.5101,-3.4571,-3.3845,-3.3192,-3.3175,-3.2949,-3.2704,-3.2704,-3.2546,-3.2178,-3.1287,-3.0641,-2.9909,-2.8788,-2.8131,0.0,0.0,0.0,-2.6741,-2.6521,0.0,-2.6895,-2.6618,-2.688,-2.7201,-2.7491,-2.7564,-2.7473,-2.7302,-2.8245,-2.8768,-2.8517,-2.9329,-3.0002,-3.0371,-3.0402,-3.0402,-3.0402,-3.1043,-3.1409,-3.1409,-3.2044,-3.2398,-3.2398,-3.2496,-3.2551,-3.2605,-3.2266,-3.2488,-3.3065,-3.2436,-3.2645,-3.3408,-3.314,-3.3,-3.2896,-3.1966,-3.2072,-3.266,-3.1956,-3.2174,-3.2886,-3.6989,-3.7007,0.0,0.0,0.0,0.0,-3.8128,-3.7541,-3.7271,-3.797,-3.7464,-3.7288,-3.7988,-3.8796,-3.9228,-3.9087,-3.9929,-4.0133,-3.9357,-3.9412,-3.9121,-3.8322,-3.8269,-3.788,-3.7025,-3.7007,-3.7007,-3.7007,-3.6346,-3.5957,0.0,0.0,0.0,0.0,-3.3019,-3.265,-3.3273,-3.3016,-3.2921,-3.2988,-3.3645,-3.4404,-3.5166,-3.5267,-3.5908,-3.6722,-3.6788,-3.6381,-3.5811,-3.5976,-3.594,-3.5811,-3.596,-3.5979,-3.5944,-3.5778,-3.5271,-3.471,-3.4637,-3.4056,-3.3459,-3.3459,-3.2932,-3.2178,-3.1287,-3.1078,-3.0607,-2.9009,-2.8662,-2.8387,-2.753,-2.7215,-2.7054,-2.6991,-2.6657,0.0,0.0,-2.615,-2.6322,-2.7026,-2.7453,-2.7446,-2.6785,-2.7232,-2.7829,-2.8439,-2.8491,-2.9042,-3.0325,-3.0402,-3.0402,-3.0402,-3.1043,-3.1409,-3.1409,-3.2044,-3.2398,-3.2398,-3.2398,-3.2453,-3.2594,-3.2465,-3.2645,-3.3065,-3.2185,-3.2369,-3.3245,-3.2608,-3.278,-3.3354,-3.2084,-3.1694,-3.1774,-3.1165,-3.139,-3.2118,0.0,0.0,0.0,0.0,-3.7108,-3.7177,-3.74,-3.7587,-3.7637,-3.7391,-3.7148,-3.7095,-3.7338,-3.8532,-3.9284,-3.9242,-4.0459,-4.1113,-4.0849,-4.0379,-3.9937,-3.9645,-3.9115,-3.8447,-3.7673,-3.7656,-3.7434,-3.7007,-3.6763,-3.664,0.0,0.0,0.0,0.0,-3.3629,-3.3164,-3.3608,-3.2818,-3.2872,-3.3525,-3.3881,-3.4242,-3.4588,-3.5057,-3.5728,-3.6464,-3.6664,-3.624,-3.5706,-3.6426,-3.6269,-3.5917,-3.6482,-3.6364,-3.5996,-3.5941,-3.5396,-3.4799,-3.4763,-3.4163,-3.3512,-3.3494,-3.295,-3.2318,-3.2038,-3.1564,-3.1128,-3.0993,-2.9822,-2.8811,-2.8796,-2.8,-2.7293,-2.7086,-2.694,-2.6842,0.0,-2.6435,-2.6138,-2.5981,-2.5846,-2.5681,-2.5462,-2.6364,-2.706,-2.7293,-2.7636,-2.8367,-2.9664,-2.9335,-2.9479,-3.0371,-3.1043,-3.1409,-3.1409,-3.2044,-3.2398,-3.2398,-3.2496,-3.2523,-3.2453,-3.2648,-3.2535,-3.2217,-3.2019,-3.198,-3.206,-3.2222,-3.2546,-3.2876,-3.1843,-3.159,-3.1742,-3.1117,-3.1311,-3.2007,-3.7812,0.0,-3.7727,-3.7488,-3.7701,-3.7875,-3.7833,-3.8175,-3.8298,-3.7865,-3.7734,-3.7694,-3.7734,-3.8849,-3.9577,-3.9516,-4.0714,-4.1448,-4.1403,-4.0998,-4.0591,-4.0241,-3.9774,-3.9045,-3.8014,-3.7717,-3.7236,-3.6566,-3.6022,-3.5759,0.0,0.0,0.0,0.0,-3.322,-3.2803,-3.294,-3.2167,-3.2496,-3.3555,-3.411,-3.4268,-3.427,-3.4919,-3.5335,-3.5626,-3.6291,-3.6132,-3.5772,-3.6614,-3.6536,-3.6204,-3.6792,-3.6695,-3.6364,-3.6364,-3.5994,-3.5572,-3.5572,-3.4953,-3.4318,-3.4319,-3.3739,-3.3142,-3.3142,-3.2722,-3.2371,-3.2456,-3.0957,-2.9628,-2.9539,-2.8411,-2.7434,-2.7215,-2.7168,-2.7136,0.0,-2.6624,-2.619,-2.5793,-2.5301,-2.4942,-2.4882,-2.5576,-2.6205,-2.666,-2.6969,-2.769,-2.8981,-2.9104,-2.9387,-3.0017,-3.1151,-3.1655,-3.1409,-3.2044,-3.2398,-3.2398,-3.2496,-3.248,-3.2425,-3.2621,-3.2384,-3.1779,-3.1581,-3.1442,-3.1346,-3.1444,-3.1924,-3.249,-3.1699,-3.1661,-3.1887,-3.0831,-3.1008,-3.1863,-3.9284,-3.9319,-3.9129,-3.8357,-3.8863,-3.9389,-3.9354,-3.9269,-3.9227,-3.9333,-3.9072,-3.8951,-3.908,-3.9687,-4.0046,-3.9915,-4.0706,-4.118,-4.1117,-4.1284,-4.1021,-4.0195,-4.0271,-3.9599,-3.8063,-3.733,-3.6569,-3.5792,-3.4353,-3.3634,0.0,0.0,0.0,0.0,-3.1837,-3.1615,-3.1257,-3.1058,-3.1716,-3.3011,-3.4117,-3.4392,-3.4158,-3.4778,-3.4658,-3.4287,-3.5681,-3.6067,-3.5972,-3.6502,-3.6664,-3.6705,-3.6908,-3.6987,-3.6987,-3.6987,-3.6989,-3.7007,-3.7007,-3.6408,-3.5792,-3.5792,-3.5157,-3.4504,-3.4504,-3.4444,-3.4192,-3.3462,-3.2091,-3.0748,-2.9867,-2.8495,-2.7467,-2.7313,-2.7299,-2.725,-2.7119,-2.6708,-2.6418,-2.6418,-2.5772,-2.524,-2.5045,-2.4902,-2.531,-2.6511,-2.6479,-2.6971,-2.8227,-2.952,-2.9956,-2.9489,-3.1305,-3.204,-3.147,-3.2074,-3.2398,-3.2398,-3.2398,-3.2398,-3.2398,-3.2398,-3.2191,-3.1763,-3.0949,-3.0791,-3.1063,-3.0319,-3.0872,-3.2117,-3.1584,-3.1736,-3.2078,-3.0403,-3.0516,-3.1605,-3.9284,-3.9779,-4.0133,-3.9923,-4.0498,-4.0788,-4.0123,-4.0482,-4.0595,-3.997,-3.9295,-3.8908,-3.8951,-3.9643,-4.0085,-4.0046,-4.0751,-4.1186,-4.118,-4.1192,-4.1076,-4.0863,-4.0782,-4.0071,-3.8634,-3.8925,-3.8007,-3.5731,-3.5869,-3.5418,-3.4372,0.0,0.0,0.0,0.0,-3.1428,-3.1038,-3.0658,-3.0981,-3.1797,-3.2485,-3.2747,-3.2804,-3.3604,-3.3539,-3.329,-3.5334,-3.5888,-3.5761,-3.6237,-3.6482,-3.6564,-3.6606,-3.6728,-3.6849,-3.6849,-3.6928,-3.7007,-3.7007,-3.6408,-3.5792,-3.5792,-3.5157,-3.4504,-3.4504,-3.4444,-3.4471,-3.4705,-3.2751,-3.1063,-3.1199,-2.9191,-2.7467,-2.7313,-2.7299,-2.725,-2.7119,-2.6908,-2.6708,-2.6572,-2.5994,-2.553,-2.532,-2.522,-2.5163,-2.5144,-2.5098,-2.5635,-2.6849,-2.7296,-2.8314,-3.0079,-3.0721,-3.1411,-3.2136,-3.2305,-3.2398,-3.2398,-3.2398,-3.2398,-3.2398,-3.2398,-3.2125,-3.1606,-3.0913,-3.0425,-3.0156,-3.0057,-3.0232,-3.0602,-3.0973,-3.0878,-3.0572,-3.0863,-3.0792,-3.0719,-4.0323,-4.0674,-4.0972,-4.0972,-4.156,-4.1738,-4.0919,-4.1443,-4.173,-4.1169,-4.0654,-4.0353,-4.033,-4.0412,-4.0458,-4.0458,-4.0886,-4.1175,-4.1175,-4.1152,-4.1123,-4.1093,-4.1023,-4.0297,-3.8824,-3.8876,-3.7856,-3.5692,-3.5428,-3.4907,-3.4106,0.0,0.0,0.0,0.0,-3.1137,-3.079,-3.0735,-3.0899,-3.1195,-3.2004,-3.2449,0.0,-3.3404,-3.3534,-3.3534,-3.4912,-3.5333,-3.5287,-3.5827,-3.6127,-3.6314,-3.6444,-3.6585,-3.6687,-3.6771,-3.6851,-3.6928,-3.697,-3.6673,-3.6301,-3.6243,-3.585,-3.5457,-3.5381,-3.53,-3.5322,-3.5679,-3.396,-3.2487,-3.2752,-3.0941,-2.9173,-2.8385,-2.7989,-2.7645,-2.7235,-2.738,-2.7333,-2.6826,-2.6719,-2.6392,-2.5675,-2.5336,-2.5005,-2.463,-2.4666,-2.4947,-2.5543,-2.6708,-2.8053,-2.9524,-3.0737,-3.1709,-3.2382,-3.2398,-3.2398,-3.2398,-3.2398,-3.2398,-3.2398,-3.2342,-3.2016,-3.1477,-3.1065,-3.0613,-3.0245,-3.0245,-3.0329,-3.0506,-3.1121,-3.1035,-3.0647,-3.1316,-3.0959,-3.0266,-4.1604,-4.1604,-4.1604,-4.1604,-4.2076,-4.2288,-4.1747,-4.2253,-4.2695,-4.2652,-4.2458,-4.2282,-4.2147,-4.1447,-4.0927,-4.0817,-4.0935,-4.1023,-4.1047,-4.1105,-4.1088,-4.1047,-4.0896,-4.0147,-3.8713,-3.7983,-3.6897,-3.5418,-3.418,-3.3414,0.0,0.0,0.0,0.0,0.0,-3.0736,-3.0471,-3.1041,-3.113,-3.0988,-3.2127,-3.2771,-3.3145,-3.365,-3.4,-3.4226,-3.4497,-3.4618,-3.4763,-3.5327,-3.5667,-3.5932,-3.6212,-3.636,-3.6444,-3.6609,-3.669,-3.6768,-3.6928,-3.6948,-3.6911,-3.6811,-3.6745,-3.6643,-3.6523,-3.6402,-3.6301,-3.6301,-3.5172,-3.4174,-3.4113,-3.2891,-3.1424,-3.0024,-2.9092,-2.8351,-2.7816,-2.7941,-2.7894,-2.7349,-2.7538,0.0,-2.628,-2.5509,-2.4997,-2.479,-2.4867,-2.4941,-2.4922,-2.7109,-2.8494,-2.8724,-3.0973,-3.224,-3.2398,-3.2398,-3.2398,-3.2398,-3.237,-3.237,-3.237,-3.2247,-3.1913,-3.1486,-3.127,-3.1048,-3.0855,-3.0608,-3.0705,-3.098,-3.1446,-3.1471,-3.1301,-3.1632,-3.1025,-3.0141,-4.1604,-4.1604,-4.1604,-4.1604,-4.1705,-4.2071,-4.2997,-4.3197,-4.3429,-4.3904,-4.3429,-4.2691,-4.1797,-4.1559,-4.1134,-4.0297,-4.0461,-4.0655,-4.0745,-4.068,-4.068,-4.0769,-3.9856,-3.8938,-3.7997,-3.7885,-3.6542,-3.3891,-3.4267,-3.3519,0.0,0.0,0.0,0.0,0.0,-3.0384,-3.006,-3.0798,-3.0972,-3.0833,-3.198,-3.2488,-3.2618,-3.331,-3.3607,-3.3684,-3.3949,-3.425,-3.457,-3.4906,-3.5135,-3.5274,-3.5321,-3.5622,-3.5937,-3.5958,-3.6174,-3.6444,-3.6684,-3.6684,-3.6626,-3.6751,-3.6667,-3.6523,-3.6502,-3.6402,-3.6301,-3.6301,-3.5172,-3.4174,-3.4113,-3.2854,-3.1732,-3.1438,-3.0213,-2.9489,-3.0024,-2.8306,-2.7437,-2.8681,-2.7642,-2.7049,-2.7584,-2.6382,-2.5599,-2.568,-2.5686,-2.6088,-2.7007,-2.7549,-2.8519,-3.0012,-3.0608,-3.138,-3.2382,-3.2398,-3.2398,-3.2398,-3.2302,-3.2247,-3.2247,-3.2094,-3.1977,-3.1868,-3.1293,-3.1082,-3.1075,-3.0444,-3.0319,-3.0516,-3.0624,-3.0618,-3.0658,-3.1235,-3.0984,-3.0464,-4.1604,-4.1604,-4.1604,-4.1604,-4.1826,-4.2358,-4.3349,-4.37,-4.4111,-4.4768,-4.4148,-4.3383,-4.28,-4.1912,-4.1206,-4.0722,-4.0509,-4.0412,-4.0502,-4.0436,-4.0412,-4.0502,-3.9898,-3.9005,-3.7831,-3.7814,-3.6615,-3.4117,-3.41,-3.3335,-3.191,-3.1382,-3.0978,-3.0692,0.0,-3.056,-3.0959,-3.1345,-3.1788,-3.2303,-3.2774,-3.2968,-3.3048,-3.3773,-3.4096,-3.4249,-3.4796,-3.4933,-3.4855,-3.4726,-3.4828,-3.4994,-3.5065,-3.5327,-3.5627,-3.5761,-3.6002,-3.6276,-3.6461,-3.6444,-3.6423,-3.6464,-3.6444,-3.6381,-3.6356,-3.6318,-3.6301,-3.6301,-3.5752,-3.5272,-3.5252,-3.4318,-3.33,-3.2507,-3.111,-2.9954,-2.9506,-2.8237,-2.7606,-2.8229,-2.7817,-2.7411,-2.7234,-2.6542,-2.6154,-2.6308,-2.602,-2.6363,-2.7488,-2.8264,-2.9248,-3.0485,-3.118,-3.1817,-3.2382,-3.2398,-3.2398,-3.2398,-3.2259,-3.2191,-3.2176,-3.1716,-3.148,-3.1435,-3.0848,-3.0651,-3.0733,-3.0099,-3.0022,-3.0308,-3.0371,-3.0345,-3.0385,-3.1124,-3.0982,-3.0505,-4.1988,-4.1988,-4.1988,-4.1988,-4.2335,-4.2873,-4.3597,-4.4015,-4.4492,-4.5214,-4.4671,-4.3998,-4.3452,-4.217,-4.1201,-4.0845,-4.04,-4.0188,-4.0213,-4.0205,-4.0205,-4.0213,-3.9885,-3.9118,-3.7915,-3.7578,-3.6555,-3.4742,-3.3791,-3.2963,-3.2212,-3.1271,-3.0879,-3.0927,-3.0669,-3.1186,-3.2297,-3.2257,-3.2803,-3.3658,-3.3503,-3.353,-3.372,-3.4345,-3.4755,-3.5054,-3.5744,-3.5733,-3.5315,-3.4977,-3.4808,-3.4756,-3.4851,-3.5048,-3.5264,-3.5538,-3.58,-3.6036,-3.6195,-3.6216,-3.6191,-3.6187,-3.6212,-3.6216,-3.6165,-3.6191,-3.6237,-3.6259,-3.628,-3.6301,-3.6301,-3.5776,-3.4981,-3.3795,-3.2273,-3.0859,-2.976,-2.883,-2.8223,-2.8133,-2.8232,-2.7885,-2.6804,-2.6639,-2.6675,-2.6745,-2.6459,-2.6848,-2.81,-2.9388,-3.0349,-3.0954,-3.1898,-3.2398,-3.2398,-3.2398,-3.2398,-3.2342,-3.2219,-3.215,-3.2107,-3.1407,-3.1097,-3.1066,-3.0657,-3.0472,-3.0416,-2.976,-2.9679,-3.0016,-3.0247,-3.0282,-3.0306,-3.1278,-3.1247,-3.0837,-4.3321,-4.3321,-4.3321,-4.3321,-4.3367,-4.3631,-4.4306,-4.4182,-4.4266,-4.493,-4.4964,-4.4184,-4.227,-4.1919,-4.1207,-3.9621,-3.9649,-3.9807,-3.9926,-3.9807,-3.9807,-3.9926,-3.8946,-3.8323,-3.8164,-3.6862,-3.575,-3.4878,-3.3466,-3.231,-3.1402,-3.0619,-3.0783,-3.1707,-3.1746,-3.2418,-3.3534,-3.3476,-3.3463,-3.3503,-3.3372,-3.3683,-3.4236,-3.444,-3.4934,-3.5561,-3.5899,-3.5991,-3.5954,-3.6082,-3.5253,-3.4176,-3.4201,-3.4374,-3.4643,-3.4906,-3.5158,-3.5498,-3.591,-3.5932,-3.5905,-3.6122,-3.6122,-3.6019,-3.6019,-3.6019,-3.6062,-3.6187,-3.6255,-3.6301,-3.6301,-3.6079,-3.5925,-3.5895,-3.4253,-3.3199,-3.3829,-3.1141,-2.9365,-3.0042,-2.9101,-2.8116,-2.7389,-2.7142,-2.6998,-2.6895,-2.7501,-2.859,-3.0216,-3.1125,-3.1772,-3.221,-3.2321,-3.2398,-3.2398,-3.2398,-3.2342,-3.2219,-3.2066,-3.194,-3.1841,-3.1566,-3.1435,-3.1435,-3.1404,-3.1114,-3.0591,-2.9496,-2.9139,-2.9373,-2.9985,-3.0215,-3.0368,-3.1801,-3.2192,-3.1986,-4.3482,-4.3482,-4.3482,-4.3482,-4.3617,-4.3761,-4.4035,-4.4031,-4.4035,-4.4157,-4.4236,-4.3972,-4.313,-4.2496,-4.1702,-4.0647,-4.0275,-3.9967,-3.9571,-3.9484,-3.9468,-3.9537,-3.9096,-3.8642,-3.8202,-3.7632,-3.6738,-3.5562,-3.4001,-3.2842,-3.206,-3.0789,-3.0782,-3.1877,-3.2642,-3.3662,-3.4797,-3.4324,-3.4335,-3.4639,-3.4584,-3.4446,-3.441,-3.5403,-3.5951,-3.6282,-3.6926,-3.6926,-3.6667,-3.6738,-3.5867,-3.4748,-3.4748,-3.4658,-3.4521,-3.4618,-3.497,-3.5337,-3.5526,-3.5639,-3.5706,-3.58,-3.5861,-3.5822,-3.5583,-3.5761,-3.5954,-3.5756,-3.5915,-3.6127,-3.6127,-3.5849,-3.5497,-3.5123,-3.3772,-3.2729,-3.2608,-3.0859,-2.9696,-2.9897,-2.9341,-2.865,-2.7884,-2.7749,-2.7655,-2.7523,-2.7017,-2.7359,-2.8786,-2.9152,-2.9959,-3.1283,-3.133,-3.1662,-3.2382,-3.2398,-3.2342,-3.2191,-3.2066,-3.1927,-3.1784,-3.139,-3.1024,-3.0697,-3.0211,-2.9932,-2.9731,-2.888,-2.8534,-2.8715,-2.9853,-2.9985,-2.9657,-3.1225,-3.1455,-3.0918,-4.4054,-4.3962,-4.3844,-4.3844,-4.3861,-4.3871,-4.3871,-4.3866,-4.3798,-4.3532,-4.3535,-4.3482,-4.328,-4.2686,-4.1939,-4.1036,-4.0563,-3.9996,-3.9251,-3.9202,-3.9245,-3.9299,-3.9245,-3.9013,-3.8526,-3.8259,-3.7647,-3.6655,-3.4853,-3.367,-3.3067,-3.1593,-3.1526,-3.269,-3.3764,-3.4999,-3.6158,-3.5169,-3.5031,-3.5447,-3.5185,-3.4873,-3.4774,-3.6045,-3.6689,-3.6943,-3.7597,-3.7614,-3.7267,-3.7323,-3.6458,-3.5356,-3.5198,-3.4734,-3.4275,-3.4349,-3.4667,-3.5018,-3.5088,-3.5321,-3.5526,-3.5526,-3.5532,-3.5509,-3.5241,-3.5402,-3.5583,-3.5424,-3.5521,-3.5677,-3.5783,-3.5447,-3.4964,-3.4476,-3.3561,-3.2728,-3.22,-3.131,-3.0548,-3.0172,-2.9972,-2.946,-2.8444,-2.8327,-2.8203,-2.7924,-2.6838,-2.681,-2.8249,-2.8677,-2.9517,-3.0866,-3.1047,-3.155,-3.2382,-3.2398,-3.2342,-3.2191,-3.2066,-3.1927,-3.1769,-3.1187,-3.063,-3.0105,-2.9346,-2.9083,-2.9159,-2.8486,-2.821,-2.8397,-2.9838,-2.9858,-2.9261,-3.081,-3.0887,-3.0123,-4.538,-4.5008,-4.4674,-4.4674,-4.4311,-4.4013,-4.4013,-4.3768,-4.3549,-4.3336,-4.3082,-4.2668,-4.2084,-4.2183,-4.1667,-4.0062,-4.0043,-3.9786,-3.9045,-3.8996,-3.9094,-3.9299,-3.9121,-3.9077,-3.9282,-3.8428,-3.8064,-3.8179,-3.5959,-3.4691,-3.4251,-3.3101,-3.3256,-3.4509,-3.5252,-3.6365,-3.756,-3.6049,-3.5463,-3.551,-3.4643,-3.4731,-3.5458,-3.6124,-3.6848,-3.7494,-3.7642,-3.77,-3.7714,-3.786,-3.6945,-3.5705,-3.5176,-3.44,-3.3745,-3.4025,-3.4201,-3.4374,-3.4659,-3.4994,-3.5291,-3.5291,-3.5198,-3.5105,-3.5088,-3.4899,-3.4859,-3.531,-3.5108,-3.4951,-3.5316,-3.4913,-3.4529,-3.4601,-3.4202,-3.3917,-3.4068,-3.3189,-3.226,-3.1476,-3.1265,-3.0565,-2.9053,-2.8905,-2.8607,-2.7955,-2.7391,-2.7866,-2.9684,-3.1015,-3.1711,-3.1584,-3.211,-3.2382,-3.2398,-3.2398,-3.2342,-3.2191,-3.2066,-3.1927,-3.1769,-3.1033,-3.0452,-2.9963,-2.9295,-2.9083,-2.9159,-2.8486,-2.8275,-2.8535,-2.9879,-2.9894,-2.9373,-3.0863,-3.0887,-3.0123,-4.4917,-4.4541,-4.4231,-4.4231,-4.3839,-4.3515,-4.3515,-4.3171,-4.2898,-4.282,-4.2759,-4.2599,-4.2434,-4.2572,-4.2168,-4.077,-4.0697,-4.0172,-3.8942,-3.886,-3.8887,-3.8958,-3.8887,-3.8887,-3.8958,-3.8782,-3.8694,-3.8747,-3.657,-3.457,-3.274,-3.3247,-3.3906,-3.4664,-3.5693,-3.6711,-3.7621,-3.6064,-3.5407,-3.5447,-3.5154,-3.5189,-3.5521,-3.669,-3.7291,-3.751,-3.7539,-3.7612,-3.77,-3.7759,-3.6819,-3.5637,-3.5468,-3.4601,-3.372,-3.3797,-3.4,-3.4176,-3.4275,-3.4521,-3.4739,-3.4739,-3.4715,-3.4618,-3.4349,-3.4226,-3.4259,-3.4699,-3.4675,-3.4626,-3.4747,-3.4423,-3.4101,-3.4134,-3.3771,-3.3503,-3.3555,-3.3208,-3.2708,-3.2089,-3.1852,-3.1363,-3.0434,-3.0315,-3.0212,-2.9895,-2.9383,-2.8746,-2.7992,-2.8701,-2.9489,-3.0285,-3.0856,-3.1581,-3.2382,-3.2398,-3.2302,-3.2066,-3.1665,-3.1396,-3.1243,-3.0534,-3.0394,-3.0615,-2.9492,-2.9083,-2.9159,-2.8486,-2.8235,-2.8351,-2.9331,-2.9445,-2.92,-3.0293,-3.0503,-3.0123,-4.4468,-4.4042,-4.3722,-4.3722,-4.3353,-4.305,-4.305,-4.2805,-4.2602,-4.2602,-4.2602,-4.2602,-4.2602,-4.25,-4.199,-4.0906,-4.0622,-3.9997,-3.8804,-3.8683,-3.8667,-3.8722,-3.8683,-3.8667,-3.8706,-3.8805,-3.8849,-3.886,-3.68,-3.472,-3.2651,-3.3601,-3.4383,-3.4981,-3.5704,-3.665,-3.7589,-3.5779,-3.5197,-3.5463,-3.5422,-3.5394,-3.5537,-3.6972,-3.751,-3.751,-3.751,-3.7569,-3.7612,-3.7612,-3.6867,-3.5867,-3.5598,-3.4779,-3.3873,-3.367,-3.3771,-3.3949,-3.3949,-3.4151,-3.4349,-3.4349,-3.4325,-3.4176,-3.3822,-3.3694,-3.3797,-3.425,-3.4201,-3.4101,-3.425,-3.3949,-3.3668,-3.3668,-3.345,-3.3282,-3.3229,-3.315,-3.2966,-3.263,-3.2369,-3.2092,-3.1753,-3.142,-3.1187,-3.1109,-3.0613,-2.9758,-2.8543,-2.8803,-2.9443,-3.0369,-3.098,-3.1605,-3.2315,-3.2315,-3.2219,-3.1996,-3.1627,-3.1128,-3.0615,-3.0367,-3.019,-2.9972,-2.9352,-2.8982,-2.8807,-2.8443,-2.8235,-2.8302,-2.9362,-2.9363,-2.89,-3.0012,-3.0027,-2.9495,-4.403,-4.3575,-4.3246,-4.3246,-4.2881,-4.2602,-4.2602,-4.2602,-4.2602,-4.2602,-4.2602,-4.2586,-4.2538,-4.1921,-4.1239,-4.048,-3.9962,-3.9365,-3.8637,-3.8464,-3.8448,-3.8583,-3.8476,-3.8432,-3.8583,-3.8572,-3.8556,-3.8502,-3.6722,-3.5113,-3.379,-3.4101,-3.4648,-3.5343,-3.5315,-3.6144,-3.7414,-3.5241,-3.4766,-3.5494,-3.5371,-3.5315,-3.5458,-3.6846,-3.7399,-3.7431,-3.7431,-3.7462,-3.751,-3.751,-3.7006,-3.6282,-3.5663,-3.492,-3.4216,-3.3641,-3.3581,-3.3684,-3.3684,-3.3873,-3.405,-3.405,-3.3949,-3.3797,-3.3555,-3.3372,-3.345,-3.3949,-3.3658,-3.3398,-3.3771,-3.3555,-3.3309,-3.3282,-3.3282,-3.3229,-3.3123,-3.3069,-3.3069,-3.3096,-3.2784,-3.2676,-3.287,-3.2171,-3.1661,-3.1677,-3.1161,-3.0881,-3.0902,-3.0881,-3.1094,-3.1584,-3.2125,-3.2342,-3.2191,-3.2191,-3.212,-3.1921,-3.1794,-3.1129,-3.0023,-3.0407,-2.9815,-2.8532,-2.8964,-2.8807,-2.8272,-2.8363,-2.8323,-2.8357,-2.9746,-2.9494,-2.855,-2.9787,-2.9464,-2.8411,-4.3486,-4.308,-4.2774,-4.2774,-4.268,-4.2602,-4.2602,-4.2602,-4.2602,-4.2602,-4.2602,-4.2392,-4.1873,-4.1177,-4.0464,-3.9813,-3.9632,-3.921,-3.8513,-3.842,-3.842,-3.8448,-3.8307,-3.825,-3.8307,-3.8246,-3.8016,-3.7621,-3.6589,-3.554,-3.4441,-3.4032,-3.4176,-3.4779,-3.4612,-3.513,-3.6031,-3.4813,-3.4426,-3.4596,-3.4569,-3.4557,-3.4652,-3.5552,-3.6216,-3.6645,-3.6645,-3.7022,-3.751,-3.751,-3.7006,-3.6361,-3.6203,-3.5387,-3.4329,-3.3551,-3.345,-3.3555,-3.3555,-3.3607,-3.3658,-3.3658,-3.3555,-3.3424,-3.3346,-3.3335,-3.3335,-3.345,-3.3372,-3.3335,-3.3424,-3.3346,-3.3282,-3.315,-3.315,-3.3139,-3.3096,-3.2866,-3.2812,-3.3069,-3.2784,-3.2621,-3.2676,-3.2633,-3.247,-3.2222,-3.1818,-3.17,-3.2014,-3.163,-3.1471,-3.1599,-3.2125,-3.2342,-3.2191,-3.2191,-3.1891,-3.1238,-3.1056,-3.0618,-2.9993,-2.9692,-2.9581,-2.9581,-2.8888,-2.8728,-2.893,-2.8563,-2.8372,-2.8378,-2.8725,-2.8688,-2.8442,-2.8765,-2.8673,-2.8411,-4.3019,-4.2758,-4.2602,-4.2602,-4.2602,-4.2602,-4.2602,-4.2602,-4.2489,-4.2197,-4.2392,-4.2229,-4.1223,-4.0723,-4.0221,-3.957,-3.9197,-3.8812,-3.8424,-3.8351,-3.8323,-3.8323,-3.8135,-3.8049,-3.8049,-3.8119,-3.7794,-3.7129,-3.6545,-3.5687,-3.4504,-3.4123,-3.4144,-3.444,-3.4042,-3.4469,-3.5427,-3.43,-3.402,-3.4288,-3.4288,-3.4288,-3.4367,-3.511,-3.5821,-3.6393,-3.6393,-3.688,-3.751,-3.751,-3.7227,-3.6848,-3.6503,-3.5928,-3.5162,-3.4078,-3.3652,-3.3503,-3.3503,-3.345,-3.3398,-3.3398,-3.3346,-3.3309,-3.3309,-3.3309,-3.3309,-3.3309,-3.3309,-3.3309,-3.3309,-3.3309,-3.3282,-3.3203,-3.3123,-3.3085,-3.3032,-3.2854,-3.2773,-3.2854,-3.2703,-3.2648,-3.2746,-3.2703,-3.2621,-3.2496,-3.2222,-3.2176,-3.2394,-3.2125,-3.1967,-3.1967,-3.2268,-3.233,-3.2122,-3.1953,-3.1658,-3.1227,-3.1127,-3.0809,-3.0325,-3.0027,-2.9765,-2.9522,-2.9266,-2.8956,-2.8661,-2.8725,-2.86,-2.8354,-2.871,-2.8673,-2.8442,-2.8725,-2.8673,-2.8411,-4.2356,-4.2279,-4.2279,-4.2279,-4.2279,-4.2279,-4.2279,-4.2279,-4.2099,-4.1515,-4.1938,-4.1808,-4.048,-4.0335,-4.0075,-3.9379,-3.8748,-3.8391,-3.8391,-3.8278,-3.8237,-3.8209,-3.8049,-3.7934,-3.7876,-3.802,-3.7732,-3.6981,-3.6584,-3.5805,-3.4604,-3.4399,-3.4352,-3.4431,-3.3656,-3.402,-3.5142,-3.3846,-3.3688,-3.4273,-3.4178,-3.4209,-3.4352,-3.4873,-3.5568,-3.6235,-3.6235,-3.6785,-3.751,-3.751,-3.751,-3.7399,-3.6769,-3.6487,-3.6156,-3.4968,-3.4211,-3.3747,-3.3566,-3.3424,-3.3335,-3.3309,-3.3309,-3.3309,-3.3309,-3.3309,-3.3309,-3.3309,-3.3309,-3.3309,-3.3282,-3.3282,-3.3256,-3.3187,-3.295,-3.2781,-3.2839,-3.2698,-3.2567,-3.259,-3.2594,-3.2676,-3.2843,-3.2648,-3.2523,-3.2594,-3.2523,-3.2453,-3.2398,-3.2398,-3.2398,-3.2398,-3.237,-3.2247,-3.1968,-3.1655,-3.1511,-3.1511,-3.1511,-3.1209,-3.0689,-3.0599,-3.0033,-2.9122,-2.9538,-2.9173,-2.8313,-2.8864,-2.8792,-2.8409,-2.9024,-2.8904,-2.8473,-2.9058,-2.8904,-2.8411,-4.085,-4.082,-4.082,-4.082,-4.082,-4.082,-4.082,-4.082,-4.0788,-4.0675,-4.0756,-4.0529,-3.9748,-3.9667,-3.9347,-3.8634,-3.8472,-3.8391,-3.8391,-3.8363,-3.8323,-3.8193,-3.818,-3.802,-3.773,-3.7658,-3.7535,-3.7411,-3.6722,-3.6282,-3.6045,-3.4857,-3.462,-3.5157,-3.3878,-3.3735,-3.4415,-3.3625,-3.3688,-3.4241,-3.3672,-3.3783,-3.4241,-3.3799,-3.4431,-3.5552,-3.5552,-3.6374,-3.751,-3.751,-3.751,-3.7494,-3.7383,-3.6911,-3.6361,-3.6124,-3.56,-3.4865,-3.3794,-3.3477,-3.345,-3.3335,-3.3309,-3.3309,-3.3309,-3.3309,-3.3309,-3.3309,-3.3309,-3.3282,-3.315,-3.3123,-3.3043,-3.2757,-3.182,-3.1503,-3.252,-3.1683,-3.1362,-3.2482,-3.2594,-3.2621,-3.2648,-3.2854,-3.2866,-3.2621,-3.2746,-3.2703,-3.2425,-3.2398,-3.2398,-3.2398,-3.2287,-3.2094,-3.1841,-3.1597,-3.1511,-3.1511,-3.1511,-3.1209,-3.0674,-3.0175,-2.9855,-2.9626,-2.884,-2.8865,-2.9471,-2.8797,-2.8728,-2.9006,-2.8686,-2.8488,-2.8411,-2.8519,-2.8488,-2.8411,-4.0496,-4.0496,-4.0496,-4.0496,-4.0496,-4.0496,-4.0496,-4.0496,-4.0367,-3.9994,-4.027,-4.0092,-3.9007,-3.9279,-3.9185,-3.8456,-3.8391,-3.8391,-3.8391,-3.8335,-3.825,-3.8209,-3.802,-3.7847,-3.77,-3.7642,-3.7628,-3.7628,-3.7266,-3.6859,-3.6377,-3.5379,-3.5063,-3.5347,-3.4304,-3.4225,-3.4841,-3.413,-3.4241,-3.4794,-3.3735,-3.3704,-3.4225,-3.3561,-3.4162,-3.5394,-3.5394,-3.6295,-3.751,-3.751,-3.751,-3.751,-3.751,-3.699,-3.6393,-3.6393,-3.5932,-3.528,-3.4671,-3.4524,-3.4512,-3.4458,-3.4431,-3.4431,-3.4431,-3.4115,-3.383,-3.383,-3.3492,-3.3176,-3.3096,-3.3032,-3.2951,-3.2773,-3.2202,-3.1962,-3.2528,-3.2079,-3.1909,-3.2544,-3.2703,-3.2746,-3.2746,-3.28,-3.2827,-3.2773,-3.2676,-3.2578,-3.2523,-3.2425,-3.2398,-3.2398,-3.2191,-3.1996,-3.1799,-3.1597,-3.1511,-3.1511,-3.1511,-3.1375,-3.1102,-3.0526,-3.0072,-2.9657,-2.9329,-2.8996,-2.8736,-2.8733,-2.8706,-2.8639,-2.8382,-2.8348,-2.8411,-2.8411,-2.8411,-2.8411,-3.9994,-3.9994,-3.9994,-3.9994,-3.9994,-3.9994,-3.9994,-3.9994,-3.9816,-3.9327,-3.9687,-3.959,-3.8521,-3.8893,-3.9007,-3.844,-3.8391,-3.8391,-3.8391,-3.8221,-3.8135,-3.8135,-3.7817,-3.7671,-3.77,-3.7671,-3.7642,-3.7642,-3.7642,-3.7234,-3.6393,-3.571,-3.5473,-3.5584,-3.4683,-3.4699,-3.5331,-3.4604,-3.4715,-3.5284,-3.4036,-3.4036,-3.4715,-3.4036,-3.4557,-3.5631,-3.5631,-3.6421,-3.751,-3.751,-3.751,-3.7478,-3.7291,-3.6864,-3.6361,-3.6203,-3.5805,-3.5347,-3.5189,-3.5268,-3.5315,-3.4984,-3.5157,-3.5347,-3.5173,-3.4699,-3.4288,-3.4261,-3.3633,-3.3085,-3.2989,-3.2897,-3.2862,-3.299,-3.2645,-3.2454,-3.2752,-3.2547,-3.2435,-3.2563,-3.2746,-3.2843,-3.2897,-3.2746,-3.2718,-3.2816,-3.2578,-3.248,-3.2551,-3.2453,-3.237,-3.233,-3.2122,-3.1912,-3.1727,-3.1568,-3.1511,-3.1511,-3.1511,-3.1421,-3.1241,-3.0831,-3.0261,-2.9592,-2.9682,-2.9135,-2.8262,-2.8778,-2.8819,-2.857,-2.8476,-2.8504,-2.8563,-2.8336,-2.825,-2.825,-3.8553,-3.8553,-3.8553,-3.8553,-3.8553,-3.8553,-3.8553,-3.8553,-3.8537,-3.8489,-3.8521,-3.8521,-3.8408,-3.844,-3.8456,-3.8391,-3.8391,-3.8391,-3.8391,-3.8107,-3.7934,-3.7934,-3.7642,-3.7553,-3.77,-3.7599,-3.751,-3.751,-3.751,-3.7117,-3.6393,-3.571,-3.5742,-3.6266,-3.4905,-3.4699,-3.5331,-3.4604,-3.4715,-3.5315,-3.4525,-3.5047,-3.6156,-3.5505,-3.5695,-3.6329,-3.6329,-3.6832,-3.751,-3.751,-3.751,-3.7399,-3.6706,-3.644,-3.6266,-3.5663,-3.5426,-3.5236,-3.4557,-3.4873,-3.5078,-3.3783,-3.4431,-3.5205,-3.4525,-3.4336,-3.4261,-3.414,-3.3567,-3.3016,-3.2703,-3.2621,-3.2779,-3.3285,-3.24,-3.2056,-3.318,-3.2369,-3.1909,-3.2544,-3.2621,-3.2703,-3.287,-3.2897,-3.2816,-3.2648,-3.2594,-3.2551,-3.2425,-3.2425,-3.2302,-3.2038,-3.2025,-3.1855,-3.1539,-3.1511,-3.1511,-3.1511,-3.1511,-3.1167,-3.0567,-3.0522,-3.0163,-2.9577,-2.9106,-2.9109,-2.9439,-2.9146,-2.9277,-2.9652,-2.9261,-2.9144,-2.9042,-2.8167,-2.784,-2.779,-3.8391,-3.8391,-3.8391,-3.8391,-3.8391,-3.8391,-3.8391,-3.8391,-3.8391,-3.8391,-3.8391,-3.8391,-3.8391,-3.8391,-3.8391,-3.8391,-3.8391,-3.8391,-3.8391,-3.8078,-3.7817,-3.7642,-3.7569,-3.7569,-3.77,-3.7642,-3.7612,-3.7612,-3.7612,-3.7205,-3.6393,-3.571,-3.5758,-3.6329,-3.4936,-3.4936,-3.5947,-3.4794,-3.4715,-3.5331,-3.4589,-3.4889,-3.5758,-3.5489,-3.5821,-3.6393,-3.6393,-3.688,-3.751,-3.751,-3.7196,-3.6785,-3.6487,-3.5821,-3.5047,-3.4778,-3.5331,-3.5774,-3.4604,-3.4826,-3.5363,-3.5268,-3.5315,-3.5426,-3.5584,-3.5284,-3.5094,-3.5436,-3.4911,-3.4328,-3.4073,-3.4045,-3.4038,-3.4087,-3.3787,-3.3645,-3.4027,-3.3686,-3.3357,-3.3299,-3.3284,-3.3141,-3.2749,-3.2718,-3.2676,-3.2621,-3.2523,-3.2496,-3.2523,-3.2385,-3.2135,-3.1898,-3.187,-3.1741,-3.1511,-3.1511,-3.1511,-3.1511,-3.1511,-3.1376,-3.1107,-3.0702,-3.0372,-3.0103,-2.9185,-2.9109,-2.9562,-2.9071,-2.8988,-2.9218,-2.9463,-2.9009,-2.8218,-2.8231,-2.7867,-2.7342,-3.8391,-3.8391,-3.8391,-3.8391,-3.8391,-3.8391,-3.8391,-3.8391,-3.8391,-3.8391,-3.8391,-3.8391,-3.8391,-3.8391,-3.8391,-3.8391,-3.8391,-3.8391,-3.8391,-3.8078,-3.7788,-3.751,-3.751,-3.7569,-3.77,-3.7642,-3.7642,-3.77,-3.7642,-3.7078,-3.609,-3.5616,-3.5521,-3.5682,-3.4731,-3.4841,-3.5695,-3.4699,-3.4573,-3.4999,-3.4494,-3.4857,-3.571,-3.571,-3.6153,-3.6753,-3.6753,-3.7069,-3.7478,-3.7227,-3.6832,-3.6314,-3.5872,-3.4936,-3.402,-3.4225,-3.4841,-3.5303,-3.4794,-3.4683,-3.4857,-3.5303,-3.541,-3.5521,-3.5995,-3.5726,-3.5584,-3.6222,-3.5726,-3.514,-3.4938,-3.4893,-3.4885,-3.4885,-3.4945,-3.499,-3.4842,-3.4842,-3.4654,-3.4074,-3.3867,-3.3541,-3.3005,-3.2745,-3.2578,-3.2551,-3.2453,-3.2425,-3.2468,-3.2234,-3.1996,-3.1828,-3.1727,-3.1641,-3.1511,-3.1351,-3.1351,-3.1511,-3.1205,-3.1012,-3.0883,-3.0458,-3.0144,-2.9864,-2.9229,-2.9172,-2.9495,-2.9295,-2.9205,-2.9247,-2.9544,-2.9077,-2.8263,-2.8032,-2.76,-2.7088,-3.8391,-3.8391,-3.8391,-3.8391,-3.8391,-3.8391,-3.8391,-3.8391,-3.8391,-3.8391,-3.8391,-3.8391,-3.8391,-3.8391,-3.8391,-3.8391,-3.8391,-3.8391,-3.8408,-3.8078,-3.7788,-3.751,-3.751,-3.7569,-3.77,-3.7569,-3.7569,-3.77,-3.7569,-3.6798,-3.5394,-3.5394,-3.4999,-3.4304,-3.4288,-3.4288,-3.4304,-3.4288,-3.4273,-3.4273,-3.4288,-3.5142,-3.6377,-3.6393,-3.6864,-3.7494,-3.7494,-3.7494,-3.7399,-3.6658,-3.6393,-3.6124,-3.4731,-3.383,-3.3435,-3.4099,-3.3814,-3.3609,-3.4999,-3.4367,-3.3309,-3.3309,-3.4352,-3.5379,-3.5394,-3.5394,-3.5556,-3.609,-3.5668,-3.5156,-3.4953,-3.4925,-3.5085,-3.5622,-3.5716,-3.5656,-3.5521,-3.5626,-3.5453,-3.4771,-3.4231,-3.3867,-3.3699,-3.3051,-3.2551,-3.2425,-3.2398,-3.2342,-3.2219,-3.194,-3.1799,-3.1799,-3.1597,-3.1511,-3.1511,-3.1029,-3.1029,-3.1467,-3.0553,-2.9929,-2.9624,-2.9747,-2.9363,-2.8626,-2.9092,-2.9292,-2.9351,-2.9878,-3.0086,-3.0041,-2.9516,-2.9496,-2.9549,-2.7474,-2.6915,-2.7058,-3.856,-3.8532,-3.8504,-3.8436,-3.8391,-3.8391,-3.8391,-3.8391,-3.8391,-3.8391,-3.8391,-3.8391,-3.8391,-3.8391,-3.8391,-3.8391,-3.8391,-3.8307,-3.8078,-3.7963,-3.7788,-3.751,-3.751,-3.7628,-3.7847,-3.7612,-3.7612,-3.7847,-3.7612,-3.6798,-3.5394,-3.5394,-3.5268,-3.5015,-3.4036,-3.4146,-3.4999,-3.402,-3.3593,-3.364,-3.4099,-3.4541,-3.5031,-3.6014,-3.6535,-3.6738,-3.6738,-3.6738,-3.6627,-3.5932,-3.5347,-3.4762,-3.3878,-3.3467,-3.334,-3.3546,-3.3783,-3.3988,-3.3941,-3.3957,-3.3988,-3.3988,-3.432,-3.4747,-3.5268,-3.5758,-3.6282,-3.6977,-3.6932,-3.676,-3.6552,-3.6627,-3.6646,-3.6443,-3.652,-3.6506,-3.6245,-3.6245,-3.6029,-3.535,-3.5118,-3.4637,-3.3591,-3.3285,-3.2934,-3.2428,-3.2315,-3.2191,-3.2066,-3.1898,-3.1727,-3.1597,-3.1219,-3.0999,-3.0999,-3.119,-3.119,-3.0999,-3.0718,-3.038,-2.9958,-2.952,-2.942,-2.9609,-2.8814,-2.8987,-2.9854,-2.9784,-2.9755,-2.9755,-2.9836,-2.9124,-2.8065,-2.8088,-2.7404,-2.6464,-3.8532,-3.8504,-3.8492,-3.8391,-3.8391,-3.8391,-3.8391,-3.8391,-3.8391,-3.8391,-3.8391,-3.8391,-3.8391,-3.8391,-3.8391,-3.8391,-3.8391,-3.825,-3.7934,-3.7905,-3.7788,-3.751,-3.7569,-3.7642,-3.7817,-3.7612,-3.7628,-3.7817,-3.7628,-3.6798,-3.5394,-3.5394,-3.5094,-3.4525,-3.3672,-3.3767,-3.451,-3.3656,-3.3309,-3.334,-3.3735,-3.4051,-3.4383,-3.5252,-3.5758,-3.6011,-3.6011,-3.6011,-3.5916,-3.5189,-3.4478,-3.383,-3.3435,-3.3309,-3.3309,-3.3309,-3.3593,-3.3814,-3.3419,-3.3593,-3.3972,-3.4225,-3.4288,-3.4478,-3.5121,-3.583,-3.6432,-3.6886,-3.6981,-3.6965,-3.689,-3.6995,-3.7001,-3.6846,-3.6908,-3.6877,-3.6554,-3.6554,-3.64,-3.5968,-3.5766,-3.5286,-3.4335,-3.3794,-3.3193,-3.2376,-3.215,-3.2025,-3.1927,-3.1784,-3.1539,-3.1219,-3.097,-3.0718,-3.0539,-3.0792,-3.0792,-3.0509,-3.0115,-2.9834,-2.9683,-2.9057,-2.8988,-2.9267,-2.8636,-2.8849,-2.9592,-2.9598,-2.9615,-2.9587,-2.9521,-2.8756,-2.7653,-2.7812,-2.7258,-2.6455,-3.8448,-3.8436,-3.8391,-3.8391,-3.8391,-3.8391,-3.8391,-3.8391,-3.8391,-3.8391,-3.8391,-3.8391,-3.8391,-3.8391,-3.8391,-3.8391,-3.8391,-3.825,-3.7934,-3.7905,-3.7788,-3.751,-3.7612,-3.7671,-3.77,-3.7599,-3.7599,-3.77,-3.7569,-3.683,-3.5489,-3.5426,-3.4715,-3.3482,-3.3435,-3.3403,-3.3388,-3.3414,-3.3356,-3.3309,-3.3293,-3.3683,-3.4236,-3.43,-3.4742,-3.5328,-3.5328,-3.53,-3.5189,-3.4446,-3.3799,-3.3309,-3.3309,-3.3309,-3.3309,-3.3309,-3.3309,-3.3309,-3.3309,-3.334,-3.353,-3.4146,-3.4383,-3.4597,-3.5103,-3.5734,-3.6205,-3.6205,-3.6205,-3.6263,-3.6364,-3.6393,-3.6542,-3.692,-3.6952,-3.6815,-3.6554,-3.66,-3.6631,-3.6523,-3.6181,-3.5823,-3.5521,-3.439,-3.3236,-3.2265,-3.1912,-3.1727,-3.1727,-3.1511,-3.119,-3.0748,-3.0688,-3.0448,-3.0038,-2.9976,-2.9976,-3.0038,-2.9117,-2.8795,-2.9032,-2.8549,-2.8272,-2.8165,-2.8612,-2.8792,-2.8834,-2.9333,-2.954,-2.9484,-2.887,-2.8449,-2.8094,-2.7079,-2.6794,-2.6866,-3.8722,-3.8628,-3.8504,-3.842,-3.8391,-3.8391,-3.8391,-3.8391,-3.8391,-3.8391,-3.8391,-3.8391,-3.8391,-3.8391,-3.8391,-3.8391,-3.8391,-3.825,-3.7934,-3.7905,-3.7788,-3.751,-3.7539,-3.7583,-3.77,-3.7671,-3.7671,-3.77,-3.7569,-3.7038,-3.6156,-3.5647,-3.5236,-3.492,-3.4503,-3.4233,-3.4083,-3.4233,-3.3932,-3.3309,-3.3398,-3.3546,-3.372,-3.4249,-3.4566,-3.4693,-3.4569,-3.4525,-3.4431,-3.3751,-3.3419,-3.3309,-3.3309,-3.3309,-3.3309,-3.3309,-3.3309,-3.3309,-3.3309,-3.3672,-3.4087,-3.4125,-3.4961,-3.581,-3.5938,-3.6166,-3.6321,-3.6234,-3.6277,-3.6379,-3.6393,-3.6393,-3.6542,-3.692,-3.6531,-3.6224,-3.6477,-3.6523,-3.6523,-3.6492,-3.6415,-3.6153,-3.5568,-3.4171,-3.301,-3.228,-3.1552,-3.1161,-3.1161,-3.0673,-3.0372,-3.0237,-2.9825,-2.9577,-2.9467,-2.9103,-2.9103,-2.9467,-2.9247,-2.9002,-2.8702,-2.8575,-2.8507,-2.8492,-2.8584,-2.8639,-2.8684,-2.9044,-2.9194,-2.917,-2.8778,-2.8449,-2.8135,-2.7642,-2.7139,-2.6676,-3.8628,-3.856,-3.8476,-3.8391,-3.8391,-3.8391,-3.8391,-3.8391,-3.8391,-3.8391,-3.8391,-3.8391,-3.8391,-3.8391,-3.8391,-3.8391,-3.825,-3.8078,-3.7905,-3.7847,-3.77,-3.751,-3.7569,-3.7599,-3.7583,-3.7671,-3.773,-3.7788,-3.7642,-3.7218,-3.6476,-3.5739,-3.5205,-3.4869,-3.4254,-3.391,-3.3814,-3.3953,-3.372,-3.3293,-3.345,-3.3503,-3.355,-3.3874,-3.4017,-3.4017,-3.3884,-3.3814,-3.3767,-3.3419,-3.3309,-3.3309,-3.3309,-3.3309,-3.3309,-3.3309,-3.3309,-3.3372,-3.3688,-3.402,-3.4435,-3.4977,-3.5448,-3.5776,-3.5616,-3.588,-3.5985,-3.5313,-3.5244,-3.5313,-3.5382,-3.541,-3.5628,-3.6358,-3.6143,-3.5944,-3.6014,-3.6292,-3.6245,-3.5599,-3.5845,-3.5707,-3.4955,-3.4161,-3.334,-3.2482,-3.2003,-3.1486,-3.0911,-3.0598,-3.0206,-2.9716,-2.9467,-2.9184,-2.8976,-2.8716,-2.8716,-2.8976,-2.8976,-2.883,-2.8587,-2.8587,-2.8587,-2.8587,-2.8587,-2.8587,-2.8619,-2.878,-2.8844,-2.8849,-2.8677,-2.8343,-2.7944,-2.7768,-2.7304,-2.682,-3.842,-3.8436,-3.8391,-3.8391,-3.8391,-3.8391,-3.8391,-3.8391,-3.8391,-3.8391,-3.8391,-3.8391,-3.8391,-3.8391,-3.8391,-3.8379,-3.8107,-3.7934,-3.7876,-3.7759,-3.7642,-3.751,-3.7628,-3.7612,-3.7539,-3.7642,-3.773,-3.7847,-3.773,-3.7353,-3.675,-3.5941,-3.5173,-3.4446,-3.392,-3.3556,-3.3309,-3.3462,-3.3446,-3.3293,-3.345,-3.3503,-3.3503,-3.3503,-3.3503,-3.3477,-3.3361,-3.3309,-3.3309,-3.3309,-3.3309,-3.3309,-3.3309,-3.3309,-3.3309,-3.3309,-3.3309,-3.3451,-3.4115,-3.4383,-3.4735,-3.5747,-3.5757,-3.5392,-3.487,-3.5216,-3.5339,-3.4312,-3.4132,-3.4172,-3.4261,-3.4288,-3.4636,-3.5734,-3.5784,-3.565,-3.5491,-3.5968,-3.5861,-3.4614,-3.4938,-3.494,-3.4131,-3.4073,-3.3695,-3.2628,-3.2437,-3.1886,-3.0747,-3.0584,-3.0131,-2.9216,-2.9184,-2.8976,-2.8587,-2.8587,-2.8587,-2.8587,-2.8587,-2.8587,-2.8587,-2.8587,-2.8587,-2.8587,-2.8587,-2.8587,-2.8587,-2.8587,-2.8587,-2.8587,-2.8587,-2.8288,-2.7841,-2.7746,-2.7441,-2.7151,-3.856,-3.8476,-3.8391,-3.8391,-3.8391,-3.8391,-3.8391,-3.8391,-3.8391,-3.8391,-3.8391,-3.8391,-3.8391,-3.8391,-3.8335,-3.8237,-3.818,-3.8036,-3.7759,-3.77,-3.7642,-3.751,-3.751,-3.7553,-3.7671,-3.77,-3.7642,-3.7569,-3.7539,-3.7492,-3.7365,-3.6611,-3.5916,-3.5264,-3.528,-3.4539,-3.334,-3.4101,-3.3995,-3.3293,-3.345,-3.3503,-3.3503,-3.3503,-3.3503,-3.3477,-3.3361,-3.3309,-3.3309,-3.3309,-3.3309,-3.3309,-3.3309,-3.3309,-3.3309,-3.3309,-3.3309,-3.3451,-3.4115,-3.4762,-3.5256,-3.5244,-3.5655,-3.575,-3.4485,-3.436,-3.4459,-3.4164,-3.4183,-3.4261,-3.4288,-3.4288,-3.4636,-3.5734,-3.5424,-3.5062,-3.5217,-3.5462,-3.5292,-3.436,-3.4315,-3.41,-3.3398,-3.3651,-3.3306,-3.201,-3.1886,-3.1403,-3.0249,-2.9732,-2.9247,-2.8716,-2.8683,-2.8651,-2.8587,-2.8587,-2.8587,-2.8587,-2.8587,-2.8587,-2.8587,-2.8587,-2.8587,-2.8587,-2.8587,-2.8587,-2.8587,-2.8587,-2.8587,-2.8587,-2.8587,-2.8546,-2.841,-2.7895,-2.7651,-2.7596,-3.8492,-3.842,-3.8391,-3.8391,-3.8391,-3.8391,-3.8391,-3.8391,-3.8391,-3.8391,-3.8391,-3.8391,-3.8391,-3.8335,-3.825,-3.8209,-3.802,-3.7876,-3.7817,-3.773,-3.7671,-3.7612,-3.7612,-3.7583,-3.7599,-3.7599,-3.7569,-3.751,-3.7569,-3.7612,-3.7596,-3.6782,-3.6058,-3.5363,-3.5035,-3.4279,-3.3324,-3.372,-3.363,-3.3293,-3.345,-3.3503,-3.355,-3.3906,-3.4064,-3.4086,-3.4374,-3.4209,-3.3925,-3.4336,-3.4462,-3.4462,-3.4462,-3.4462,-3.4383,-3.3891,-3.4092,-3.4514,-3.4743,-3.5102,-3.5445,-3.5653,-3.5414,-3.4967,-3.4274,-3.3927,-3.3709,-3.366,-3.3698,-3.3735,-3.3735,-3.3735,-3.4085,-3.5156,-3.5096,-3.4887,-3.483,-3.5215,-3.5046,-3.3794,-3.3393,-3.3121,-3.2953,-3.3197,-3.3019,-3.2255,-3.2199,-3.157,-3.0158,-2.987,-2.9387,-2.8619,-2.8587,-2.8587,-2.8587,-2.8587,-2.8587,-2.8587,-2.8587,-2.8587,-2.8587,-2.8587,-2.8554,-2.8444,-2.8554,-2.8554,-2.8444,-2.8554,-2.8587,-2.8587,-2.8587,-2.8522,-2.8403,-2.8147,-2.8002,-2.7887]},{"header":{"parameterUnit":"m.s-1","parameterCategory":1,"la1":30.6,"la2":28.766,"lo1":-90.7593,"lo2":-88.6598,"dy":0.0162,"dx":0.0183,"nx":116,"ny":114,"refTime":"2023-05-03T18:00:00:Z","depth":0,"parameterNumber":3,"parameterNumberName":"V-component_of_WINDS"},"data":[0.0,0.0,0.0,0.0,0.0,0.0,0.0,0.0,0.0,0.0,0.0,0.0,0.0,0.0,0.0,0.0,0.0,0.0,0.0,0.0,0.0,0.0,0.0,0.0,0.0,0.0,0.0,0.0,0.0,0.0,0.0,0.0,0.0,0.0,0.0,0.0,0.0,0.0,0.0,0.0,0.0,0.0,0.0,0.0,0.0,0.0,0.0,0.0,0.0,0.0,0.0,0.0,0.0,0.0,0.0,0.0,0.0,0.0,0.0,0.0,0.0,0.0,0.0,0.0,0.0,0.0,0.0,0.0,0.0,0.0,0.0,0.0,0.0,0.0,0.0,0.0,0.0,0.0,0.0,0.0,0.0,0.0,0.0,0.0,0.0,0.0,0.0,0.0,0.0,0.0,0.0,0.0,0.0,0.0,0.0,0.0,0.0,0.0,0.0,0.0,0.0,0.0,0.0,0.0,0.0,0.0,0.0,0.0,0.0,0.0,0.0,0.0,0.0,0.0,0.0,0.0,0.0,0.0,0.0,0.0,0.0,0.0,0.0,0.0,0.0,0.0,0.0,0.0,0.0,0.0,0.0,0.0,0.0,0.0,0.0,0.0,0.0,0.0,0.0,0.0,0.0,0.0,0.0,0.0,0.0,0.0,0.0,0.0,0.0,0.0,0.0,0.0,0.0,0.0,0.0,0.0,0.0,0.0,0.0,0.0,0.0,0.0,0.0,0.0,0.0,0.0,0.0,0.0,0.0,0.0,0.0,0.0,0.0,0.0,0.0,0.0,0.0,0.0,0.0,0.0,0.0,0.0,0.0,0.0,0.0,0.0,0.0,0.0,0.0,0.0,0.0,0.0,0.0,0.0,0.0,0.0,0.0,0.0,0.0,0.0,0.0,0.0,0.0,0.0,0.0,0.0,0.0,0.0,0.0,0.0,0.0,0.0,0.0,0.0,0.0,0.0,0.0,0.0,0.0,0.0,0.0,0.0,0.0,0.0,0.0,0.0,0.0,0.0,0.0,0.0,0.0,0.0,0.0,0.0,0.0,0.0,0.0,0.0,0.0,0.0,0.0,0.0,0.0,0.0,0.0,0.0,0.0,0.0,0.0,0.0,0.0,0.0,0.0,0.0,0.0,0.0,0.0,0.0,0.0,0.0,0.0,0.0,0.0,0.0,0.0,0.0,0.0,0.0,0.0,0.0,0.0,0.0,0.0,0.0,0.0,0.0,0.0,0.0,0.0,0.0,0.0,0.0,0.0,0.0,0.0,0.0,0.0,0.0,0.0,0.0,0.0,0.0,0.0,0.0,0.0,0.0,0.0,0.0,0.0,0.0,0.0,0.0,0.0,0.0,0.0,0.0,0.0,0.0,0.0,0.0,0.0,0.0,0.0,0.0,0.0,0.0,0.0,0.0,0.0,0.0,0.0,0.0,0.0,0.0,0.0,0.0,0.0,0.0,0.0,0.0,0.0,0.0,0.0,0.0,0.0,0.0,0.0,0.0,0.0,0.0,0.0,0.0,0.0,0.0,0.0,0.0,0.0,0.0,0.0,0.0,0.0,0.0,0.0,0.0,0.0,0.0,0.0,0.0,0.0,0.0,0.0,0.0,0.0,0.0,0.0,0.0,0.0,0.0,0.0,0.0,0.0,0.0,0.0,0.0,0.0,0.0,0.0,0.0,0.0,0.0,0.0,0.0,0.0,0.0,0.0,0.0,0.0,0.0,0.0,0.0,0.0,0.0,0.0,0.0,0.0,0.0,0.0,0.0,0.0,0.0,0.0,0.0,0.0,0.0,0.0,0.0,0.0,0.0,0.0,0.0,0.0,0.0,0.0,0.0,0.0,0.0,0.0,0.0,0.0,0.0,0.0,0.0,0.0,0.0,0.0,0.0,0.0,0.0,0.0,0.0,0.0,0.0,0.0,0.0,0.0,0.0,0.0,0.0,0.0,0.0,0.0,0.0,0.0,0.0,0.0,0.0,0.0,0.0,0.0,0.0,0.0,0.0,0.0,0.0,0.0,0.0,0.0,0.0,0.0,0.0,0.0,0.0,0.0,0.0,0.0,0.0,0.0,0.0,0.0,0.0,0.0,0.0,0.0,0.0,0.0,0.0,0.0,0.0,0.0,0.0,0.0,0.0,0.0,0.0,0.0,0.0,0.0,0.0,0.0,0.0,0.0,0.0,0.0,0.0,0.0,0.0,0.0,0.0,0.0,0.0,0.0,0.0,0.0,0.0,0.0,0.0,0.0,0.0,0.0,0.0,0.0,0.0,0.0,0.0,0.0,0.0,0.0,0.0,0.0,0.0,0.0,0.0,0.0,0.0,0.0,0.0,0.0,0.0,0.0,0.0,0.0,0.0,0.0,0.0,0.0,0.0,0.0,0.0,0.0,0.0,0.0,0.0,0.0,0.0,0.0,0.0,0.0,0.0,0.0,0.0,0.0,0.0,0.0,0.0,0.0,0.0,0.0,0.0,0.0,0.0,0.0,0.0,0.0,0.0,0.0,0.0,0.0,0.0,0.0,0.0,0.0,0.0,0.0,0.0,0.0,0.0,0.0,0.0,0.0,0.0,0.0,0.0,0.0,0.0,0.0,0.0,0.0,0.0,0.0,0.0,0.0,0.0,0.0,0.0,0.0,0.0,0.0,0.0,0.0,0.0,0.0,0.0,0.0,0.0,0.0,0.0,0.0,0.0,0.0,0.0,0.0,0.0,0.0,0.0,0.0,0.0,0.0,0.0,0.0,0.0,0.0,0.0,0.0,0.0,0.0,0.0,0.0,0.0,0.0,0.0,0.0,0.0,0.0,0.0,0.0,0.0,0.0,0.0,0.0,0.0,0.0,0.0,0.0,0.0,0.0,0.0,0.0,0.0,0.0,0.0,0.0,0.0,0.0,0.0,0.0,0.0,0.0,0.0,0.0,0.0,0.0,0.0,0.0,0.0,0.0,0.0,0.0,0.0,0.0,0.0,0.0,0.0,0.0,0.0,0.0,0.0,0.0,0.0,0.0,0.0,0.0,0.0,0.0,0.0,0.0,0.0,0.0,0.0,0.0,0.0,0.0,0.0,0.0,0.0,0.0,0.0,0.0,0.0,0.0,0.0,0.0,0.0,0.0,0.0,0.0,0.0,0.0,0.0,0.0,0.0,0.0,0.0,0.0,0.0,0.0,0.0,0.0,0.0,0.0,0.0,0.0,0.0,0.0,0.0,0.0,0.0,0.0,0.0,0.0,0.0,0.0,0.0,0.0,0.0,0.0,0.0,0.0,0.0,0.0,0.0,0.0,0.0,0.0,0.0,0.0,0.0,0.0,0.0,0.0,0.0,0.0,0.0,0.0,0.0,0.0,0.0,0.0,0.0,0.0,0.0,0.0,0.0,0.0,0.0,0.0,0.0,0.0,0.0,0.0,0.0,0.0,0.0,0.0,0.0,0.0,0.0,0.0,0.0,0.0,0.0,0.0,0.0,0.0,0.0,0.0,0.0,0.0,0.0,0.0,0.0,0.0,0.0,0.0,0.0,0.0,0.0,0.0,0.0,0.0,0.0,0.0,0.0,0.0,0.0,0.0,0.0,0.0,0.0,0.0,0.0,0.0,0.0,0.0,0.0,0.0,0.0,0.0,0.0,0.0,0.0,0.0,0.0,0.0,0.0,0.0,0.0,0.0,0.0,0.0,0.0,0.0,0.0,0.0,0.0,0.0,0.0,0.0,0.0,0.0,0.0,0.0,0.0,0.0,0.0,0.0,0.0,0.0,0.0,0.0,0.0,0.0,0.0,0.0,0.0,0.0,0.0,0.0,0.0,0.0,0.0,0.0,0.0,0.0,0.0,0.0,0.0,0.0,0.0,0.0,0.0,0.0,0.0,0.0,0.0,0.0,0.0,0.0,0.0,0.0,0.0,0.0,0.0,0.0,0.0,0.0,0.0,0.0,0.0,0.0,0.0,0.0,0.0,0.0,0.0,0.0,0.0,0.0,0.0,0.0,0.0,0.0,0.0,0.0,0.0,0.0,0.0,0.0,0.0,0.0,0.0,0.0,0.0,0.0,0.0,0.0,0.0,0.0,0.0,0.0,0.0,0.0,0.0,0.0,0.0,0.0,0.0,0.0,0.0,0.0,0.0,0.0,0.0,0.0,0.0,0.0,0.0,0.0,0.0,0.0,0.0,0.0,0.0,0.0,0.0,0.0,0.0,0.0,0.0,0.0,0.0,0.0,0.0,0.0,0.0,0.0,0.0,0.0,0.0,0.0,0.0,0.0,0.0,0.0,0.0,0.0,0.0,0.0,0.0,0.0,0.0,0.0,0.0,0.0,0.0,0.0,0.0,0.0,0.0,0.0,0.0,0.0,0.0,0.0,0.0,0.0,0.0,0.0,0.0,0.0,0.0,0.0,0.0,0.0,0.0,0.0,0.0,0.0,0.0,0.0,0.0,0.0,0.0,0.0,0.0,0.0,0.0,0.0,0.0,0.0,0.0,0.0,0.0,0.0,0.0,0.0,0.0,0.0,0.0,0.0,0.0,0.0,0.0,0.0,0.0,0.0,0.0,0.0,0.0,0.0,0.0,0.0,0.0,0.0,0.0,0.0,0.0,0.0,0.0,0.0,0.0,0.0,0.0,0.0,0.0,0.0,0.0,0.0,0.0,0.0,0.0,0.0,0.0,0.0,0.0,0.0,0.0,0.0,0.0,0.0,0.0,0.0,0.0,0.0,0.0,0.0,0.0,0.0,0.0,0.0,0.0,0.0,0.0,0.0,0.0,0.0,0.0,0.0,0.0,0.0,0.0,0.0,0.0,0.0,0.0,0.0,0.0,0.0,0.0,0.0,0.0,0.0,0.0,0.0,0.0,0.0,0.0,0.0,0.0,0.0,0.0,0.0,0.0,0.0,0.0,0.0,0.0,0.0,0.0,0.0,0.0,0.0,0.0,0.0,0.0,0.0,0.0,0.0,0.0,0.0,0.0,0.0,0.0,0.0,0.0,0.0,0.0,0.0,0.0,0.0,0.0,0.0,0.0,0.0,0.0,0.0,0.0,0.0,0.0,0.0,0.0,0.0,0.0,0.0,0.0,0.0,0.0,0.0,0.0,0.0,0.0,0.0,0.0,0.0,0.0,0.0,0.0,0.0,0.0,0.0,0.0,0.0,0.0,0.0,0.0,0.0,0.0,0.0,0.0,0.0,0.0,0.0,0.0,0.0,0.0,0.0,0.0,0.0,0.0,0.0,0.0,0.0,0.0,0.0,0.0,0.0,0.0,0.0,0.0,0.0,0.0,0.0,0.0,0.0,0.0,0.0,0.0,0.0,0.0,0.0,0.0,0.0,0.0,0.0,0.0,0.0,0.0,0.0,0.0,0.0,0.0,0.0,0.0,0.0,0.0,0.0,0.0,0.0,0.0,0.0,0.0,0.0,0.0,0.0,0.0,0.0,0.0,0.0,0.0,0.0,0.0,0.0,0.0,0.0,0.0,0.0,0.0,0.0,0.0,0.0,0.0,0.0,0.0,0.0,0.0,0.0,0.0,0.0,0.0,0.0,0.0,0.0,0.0,0.0,0.0,0.0,0.0,0.0,0.0,0.0,0.0,0.0,0.0,0.0,0.0,0.0,0.0,0.0,0.0,0.0,0.0,0.0,0.0,0.0,0.0,0.0,0.0,0.0,0.0,0.0,0.0,0.0,0.0,0.0,0.0,0.0,0.0,0.0,0.0,0.0,0.0,0.0,0.0,0.0,0.0,0.0,0.0,0.0,0.0,0.0,0.0,0.0,0.0,0.0,0.0,0.0,0.0,0.0,0.0,0.0,0.0,0.0,0.0,0.0,0.0,0.0,0.0,0.0,0.0,0.0,0.0,0.0,0.0,0.0,0.0,0.0,0.0,0.0,0.0,0.0,0.0,0.0,0.0,0.0,0.0,0.0,0.0,0.0,0.0,0.0,0.0,0.0,0.0,0.0,0.0,0.0,0.0,0.0,0.0,0.0,0.0,0.0,0.0,0.0,0.0,0.0,0.0,0.0,0.0,0.0,0.0,0.0,0.0,0.0,0.0,0.0,0.0,0.0,0.0,0.0,0.0,0.0,0.0,0.0,0.0,0.0,0.0,0.0,0.0,0.0,0.0,0.5641,0.5168,0.0,0.0,0.0,0.0,0.0,0.0,0.0,0.0,0.0,0.0,0.0,0.0,0.0,0.0,0.0,0.0,0.0,0.0,0.0,0.0,0.0,0.0,0.0,0.0,0.0,0.0,0.0,0.0,0.0,0.0,0.0,0.0,0.0,0.0,0.0,0.0,0.0,0.0,0.9368,0.9494,0.9619,0.9657,0.9292,0.8529,0.0,0.0,0.0,0.0,0.0,0.0,0.0,0.0,0.0,0.0,0.0,0.0,0.0,0.0,0.0,0.0,0.0,0.0,0.0,0.0,0.0,0.0,0.0,0.0,0.0,0.0,0.0,0.0,0.0,0.0,0.0,0.0,0.0,0.0,0.0,0.0,0.0,0.0,0.0,0.0,0.0,0.0,0.0,0.0,0.0,0.0,0.0,0.0,0.0,0.0,0.0,0.0,0.0,0.0,0.0,0.0,0.0,0.0,0.0,0.0,0.0,0.0,0.0,0.0,0.0,0.0,0.0,0.0,0.0,0.0,0.5953,0.5646,0.0,0.0,0.0,0.0,0.0,0.0,0.0,0.0,0.0,0.0,0.0,0.0,0.0,0.0,0.0,0.0,0.0,0.0,0.0,0.0,0.0,0.0,0.0,0.0,0.9204,0.9518,0.9709,0.9837,0.0,0.0,0.0,0.0,0.0,0.0,0.0,0.0,0.0,0.9489,0.993,1.0377,1.0823,1.0996,1.0326,0.8908,0.8697,0.0,0.0,0.0,0.0,0.0,0.0,0.0,0.0,0.0,0.0,0.0,0.0,0.0,0.0,0.0,0.0,0.0,0.0,0.0,0.0,0.0,0.0,0.0,0.0,0.0,0.0,0.0,0.0,0.0,0.0,0.0,0.0,0.0,0.0,0.0,0.0,0.0,0.0,0.0,0.0,0.0,0.0,0.0,0.0,0.0,0.0,0.0,0.0,0.0,0.0,0.0,0.0,0.0,0.0,0.0,0.0,0.0,0.0,0.0,0.0,0.0,0.0,0.0,0.7065,0.7009,0.684,0.713,0.6929,0.6361,0.6324,0.6144,0.5867,0.5724,0.0,0.0,0.0,0.0,0.0,0.0,0.0,0.0,0.0,0.0,0.0,0.0,0.0,0.0,0.0,0.0,0.0,0.0,0.0,0.0,0.0,0.9177,0.9518,0.9741,0.9773,0.9932,0.0,0.0,0.0,0.0,0.0,0.0,0.0,1.059,1.0426,1.1108,1.1175,1.1262,1.1402,1.1402,1.1,1.024,1.0141,0.9711,0.8998,0.0,0.0,0.0,0.0,0.0,0.0,0.0,0.0,0.0,0.0,0.0,0.0,0.0,0.0,0.0,0.0,0.0,0.0,0.0,0.0,0.0,0.0,0.0,0.0,0.0,0.0,0.0,0.0,0.0,0.0,0.0,0.0,0.0,0.0,0.0,0.0,0.0,0.0,0.0,0.0,0.0,1.0189,0.9733,0.0,0.0,0.0,0.0,0.0,0.0,0.0,0.0,0.0,0.0,0.0,0.0,0.0,0.6963,0.6988,0.711,0.7192,0.7192,0.7342,0.7415,0.7377,0.7439,0.7397,0.7301,0.7114,0.0,0.5818,0.5991,0.0,0.0,0.0,0.0,0.0,0.0,0.0,0.0,0.0,0.0,0.0,0.0,0.0,0.0,0.0,0.0,0.0,0.0,0.0,0.0,0.0,1.0039,1.0555,1.0885,1.1353,1.1577,1.1439,1.1904,0.0,0.0,0.0,0.0,1.1906,1.1195,1.1177,1.1859,1.2106,1.2359,1.2643,1.2756,1.2537,1.2025,1.187,1.1013,0.9655,0.9561,0.0,0.0,0.0,0.0,0.0,0.0,0.0,0.0,0.0,0.0,0.0,0.0,0.0,0.0,0.0,0.0,0.0,0.0,0.0,0.0,0.0,0.0,0.0,0.0,0.0,0.0,0.0,0.0,0.0,0.0,0.0,0.0,0.0,0.0,0.0,0.0,0.0,0.0,0.0,1.0262,1.0266,0.9707,0.9849,0.9805,0.0,0.0,0.0,0.0,0.0,0.0,0.0,0.0,0.0,0.7716,0.7535,0.7513,0.7624,0.7559,0.753,0.753,0.7524,0.7484,0.7484,0.7484,0.7365,0.7173,0.7292,0.6939,0.6241,0.622,0.6045,0.5767,0.0,0.0,0.0,0.0,0.5245,0.5329,0.0,0.0,0.0,0.0,0.0,0.0,0.0,0.0,0.0,0.0,0.0,0.0,1.0162,1.1039,1.1718,1.2087,1.2772,1.3004,1.2544,1.2868,0.0,0.0,0.0,1.2211,1.1932,1.1897,1.2229,1.2892,1.324,1.3561,1.3848,1.3855,1.3674,1.3273,1.3156,1.2146,1.0501,1.0304,0.9854,0.9248,0.0,0.0,0.0,0.0,0.0,0.0,0.0,0.0,0.0,0.0,0.0,0.0,0.0,0.0,0.0,0.0,0.0,0.0,0.0,0.0,0.0,0.0,0.0,0.0,0.0,0.0,0.0,0.0,0.0,0.0,0.0,0.0,0.0,0.0,0.0,0.0,0.0,1.0319,1.0373,0.974,1.0019,1.0098,0.0,0.0,0.0,0.0,0.0,0.0,0.9444,0.8504,0.8029,0.8171,0.7994,0.7952,0.8102,0.7953,0.7842,0.7804,0.7642,0.7561,0.7484,0.7484,0.7326,0.7057,0.733,0.7215,0.6822,0.6621,0.6348,0.6061,0.5848,0.5775,0.5772,0.551,0.5498,0.5586,0.0,0.0,0.0,0.0,0.0,0.0,0.0,0.0,0.0,0.0,0.0,1.0719,1.0752,1.1985,1.2852,1.3019,1.3243,1.3302,1.3076,1.3092,1.2941,1.2606,1.2697,1.2449,1.1732,1.2693,1.3718,1.4752,1.4783,1.4799,1.4832,1.4302,1.3884,1.3492,1.3681,1.305,1.1873,1.1475,1.092,1.0272,0.9491,0.0,0.0,0.0,0.0,0.0,0.0,0.0,0.0,0.0,0.0,0.0,0.0,0.0,0.0,0.0,0.0,0.0,0.0,0.0,0.0,0.0,0.0,0.0,0.0,0.0,0.0,0.0,0.0,0.0,0.0,0.0,0.0,0.0,0.0,0.0,0.0,0.0,0.0,1.0213,1.056,0.0,0.0,0.0,0.0,1.0807,1.0692,1.0593,1.0593,0.9527,0.9016,0.9231,0.847,0.8093,0.8102,0.8102,0.7991,0.7804,0.7804,0.7684,0.7484,0.7484,0.7484,0.7446,0.7296,0.7296,0.7446,0.7246,0.7046,0.6839,0.6612,0.6538,0.6482,0.5955,0.579,0.579,0.0,0.0,0.0,0.0,0.0,0.0,0.0,0.0,0.9294,0.9486,1.0568,1.1409,1.1623,1.2766,1.3652,1.3892,1.4443,1.4633,1.433,1.3991,1.3744,1.357,1.2943,1.2689,1.2851,1.407,1.4911,1.5301,1.5617,1.5613,1.5275,1.5106,1.4677,1.4072,1.4029,1.3679,1.3107,1.2594,1.1768,1.0822,1.0413,0.9668,0.0,0.0,0.0,0.0,0.0,0.0,0.0,0.0,0.0,0.0,0.0,0.0,0.0,0.0,0.0,0.0,0.0,0.0,0.0,0.0,0.0,0.0,0.0,0.0,0.0,0.0,0.0,0.0,0.0,0.0,0.0,0.0,0.0,0.0,0.0,0.0,0.0,1.0271,1.0873,0.0,1.0933,1.1095,1.1185,1.1176,1.1148,1.1083,1.0972,1.0312,0.9949,0.9884,0.9354,0.9013,0.8865,0.8479,0.8255,0.8178,0.8068,0.7876,0.7684,0.7684,0.7565,0.7296,0.7369,0.7373,0.7296,0.7369,0.7292,0.7065,0.6714,0.6676,0.6745,0.6419,0.6398,0.6509,0.0,0.0,0.0,0.0,0.0,0.0,0.0,0.0,0.9932,1.0354,1.1283,1.2115,1.2635,1.3695,1.4466,1.4753,1.5327,1.5426,1.4765,1.4496,1.4177,1.3743,1.3296,1.3531,1.462,1.5309,1.5882,1.6323,1.6444,1.6359,1.6061,1.5674,1.5248,1.4748,1.4418,1.4137,1.3855,1.3419,1.2599,1.1578,1.1086,1.029,0.9361,0.0,0.0,0.0,0.0,0.0,0.0,0.0,0.0,0.0,0.0,0.0,0.0,0.0,0.0,0.0,0.0,0.0,0.0,0.0,0.0,0.0,0.0,0.0,0.0,0.0,0.0,0.0,0.0,0.0,0.0,0.0,0.0,0.0,0.0,1.0734,1.1025,1.0703,1.1217,1.1546,1.1384,1.1491,1.1618,1.1644,1.1678,1.1632,1.1409,1.1037,1.07,1.0519,1.0105,0.9846,0.9695,0.9089,0.878,0.8703,0.8365,0.8063,0.7804,0.788,0.7684,0.7296,0.7522,0.7484,0.7296,0.7446,0.7407,0.7257,0.6949,0.6868,0.6984,0.6791,0.6788,0.6903,0.0,0.0,0.0,0.0,0.0,0.0,0.0,0.946,1.0258,1.1407,1.2162,1.2923,1.3785,1.4665,1.5275,1.5497,1.5859,1.5575,1.4305,1.4527,1.4187,1.3091,1.3757,1.5034,1.6864,1.6364,1.6693,1.8008,1.7289,1.7038,1.7166,1.6061,1.5541,1.5505,1.4927,1.4453,1.4129,1.3935,1.3382,1.2542,1.1529,1.0835,1.0355,0.0,0.0,0.0,0.0,0.0,0.0,0.0,0.0,0.0,0.0,0.0,0.0,0.0,0.0,0.0,0.0,0.0,0.0,0.0,0.0,0.0,0.0,0.0,0.0,0.0,0.0,0.0,0.0,0.0,0.0,0.0,0.0,0.0,1.099,1.1333,1.1621,1.1621,1.1628,1.1811,1.2254,1.1913,1.1837,1.2274,1.2331,1.2257,1.2029,1.1658,1.136,1.1173,1.0767,1.0541,1.0541,0.9943,0.9559,0.9359,0.8761,0.8234,0.7859,0.8043,0.7919,0.7531,0.771,0.7672,0.7522,0.7522,0.7484,0.7484,0.7296,0.7223,0.718,0.698,0.6903,0.6903,0.0,0.0,0.0,0.0,0.0,0.0,0.0,0.9786,1.0518,1.0948,1.1951,1.2833,1.3458,1.4388,1.5185,1.5655,1.5832,1.5626,1.5044,1.4804,1.4491,1.4041,1.4966,1.5931,1.6873,1.725,1.7629,1.8008,1.7803,1.752,1.7201,1.689,1.6499,1.607,1.5921,1.5471,1.4875,1.4661,1.4093,1.3193,1.2328,1.1614,1.1108,0.0,0.0,0.0,0.0,0.0,0.0,0.0,0.0,0.0,0.0,0.0,0.0,0.0,0.0,0.0,0.0,0.0,0.0,0.0,0.0,0.0,0.0,0.0,0.0,0.0,0.0,0.0,0.0,0.0,0.0,0.0,1.2288,1.2172,1.1429,1.1613,1.1835,1.1835,1.1979,1.2261,1.263,1.2552,1.2556,1.2706,1.2882,1.2843,1.2648,1.2687,1.2609,1.2408,1.2004,1.1724,1.1606,1.0976,1.0745,1.0818,0.9946,0.9512,0.9432,0.8813,0.8391,0.8138,0.7893,0.7761,0.7723,0.7561,0.7484,0.7484,0.7296,0.7296,0.7407,0.7176,0.7215,0.7326,0.0,0.0,0.0,0.0,0.0,0.0,0.0,0.9722,1.0499,1.1138,1.2013,1.2916,1.3731,1.4552,1.5221,1.5761,1.5867,1.5635,1.4967,1.4754,1.4839,1.5185,1.5993,1.6712,1.7231,1.7736,1.8008,1.8008,1.8008,1.7837,1.752,1.7373,1.7063,1.6664,1.649,1.614,1.5613,1.5223,1.4661,1.4021,1.3149,1.2313,1.1585,1.1371,1.1086,1.0783,1.088,1.088,1.0889,1.0837,0.0,0.0,0.0,0.0,0.0,0.0,0.0,0.0,0.0,0.0,0.0,0.0,0.0,0.0,0.0,0.0,0.0,0.0,0.0,0.0,0.0,0.0,0.0,0.0,1.3175,1.3237,1.2735,1.2494,1.2341,1.2341,1.2536,1.2752,1.2965,1.2857,1.2872,1.3028,1.3047,1.3034,1.3048,1.3047,1.2974,1.2857,1.2492,1.2228,1.2112,1.1531,1.1259,1.1376,1.0595,1.0256,1.0306,0.961,0.9243,0.907,0.8798,0.8594,0.8441,0.8399,0.8322,0.8203,0.0,0.0,0.0,0.0,0.745,0.7603,0.0,0.0,0.0,0.0,0.0,0.0,0.0,0.9428,1.0258,1.1609,1.2228,1.3025,1.4257,1.4849,1.5355,1.5761,1.5895,1.5558,1.4545,1.4554,1.5115,1.6272,1.6817,1.7283,1.7731,1.7896,1.8008,1.8008,1.8008,1.8008,1.8042,1.7657,1.7442,1.7339,1.6959,1.6664,1.6376,1.5692,1.5232,1.4911,1.3992,1.2992,1.1953,1.1631,1.1333,1.1079,1.1079,1.1114,1.1142,1.1289,0.0,0.0,0.0,0.0,0.0,0.0,0.0,0.0,0.0,0.0,0.0,0.0,0.0,0.0,0.0,0.0,0.0,0.0,0.0,0.0,0.0,0.0,0.0,0.0,1.4194,1.4577,1.4487,1.3782,1.3234,1.3089,1.3214,1.3292,1.3286,1.3037,1.3017,1.332,1.3058,1.3025,1.3293,1.3085,0.0,0.0,0.0,1.2452,1.2452,1.1858,1.1577,1.1615,1.0938,1.0691,1.0807,1.0417,1.0193,1.0115,0.9948,0.9652,0.9339,0.9501,0.9458,0.9183,0.805,0.7595,0.7638,0.7522,0.7642,0.7765,0.0,0.0,0.0,0.0,0.0,0.0,0.0,0.9332,1.0097,1.1609,1.2014,1.2765,1.4257,1.4717,1.5185,1.5761,1.5436,1.5137,1.4889,1.4617,1.506,1.65,1.6812,1.7245,1.793,1.7974,1.8008,1.8008,1.8008,1.8076,1.8236,1.8168,1.8168,1.8236,1.8056,1.7681,1.7166,1.6751,1.6096,1.5319,1.4677,1.3694,1.27,1.2627,1.2476,1.2283,1.2283,1.2392,1.2466,1.2112,1.2143,1.2277,1.2026,1.1907,0.0,0.0,0.0,0.0,0.0,0.0,0.0,0.0,0.0,0.0,0.0,0.0,0.0,0.0,0.0,0.0,0.0,0.0,0.0,1.5893,1.626,1.6292,1.5753,1.5335,1.4727,1.3691,1.3681,1.3752,1.3706,1.3487,1.3599,1.4145,1.3716,1.3601,1.3901,1.3861,1.3869,1.3869,1.354,1.334,1.334,1.287,1.2681,1.2837,1.196,0.0,1.2178,1.0982,1.0595,1.0759,0.9984,0.962,0.9539,0.942,0.9339,0.9221,0.8513,0.8322,0.8399,0.7748,0.7642,0.7804,0.0,0.0,0.0,0.0,0.0,0.0,0.0,0.8979,0.954,1.0645,1.1272,1.2112,1.3509,1.3945,1.45,1.5315,1.5053,1.4957,1.5232,1.5302,1.5814,1.684,1.7148,1.748,1.7852,1.794,1.8008,1.8008,1.811,1.8212,1.8303,1.8472,1.8539,1.8516,1.8414,1.8202,1.7828,1.7279,1.6647,1.5982,1.5204,1.4382,1.3586,1.3302,1.3119,1.3046,1.2936,1.2973,1.3025,1.2797,1.2784,1.2863,1.2883,1.2725,1.2461,0.0,0.0,0.0,0.0,0.0,0.0,0.0,0.0,0.0,0.0,0.0,0.0,0.0,0.0,1.4637,1.5826,0.0,1.6616,1.6657,1.7173,1.7251,1.6416,1.6583,1.6126,1.4352,1.4257,1.4279,1.4238,1.4058,1.4075,1.4531,1.4173,1.409,1.4398,1.4185,1.4062,1.4062,1.3615,1.3353,1.3193,1.2968,1.2902,1.2979,1.2357,1.2355,1.2877,1.1746,1.1417,1.1697,1.0869,1.0513,1.0475,1.0282,1.0207,1.0132,0.9533,0.9193,0.896,0.8542,0.8513,0.8675,0.0,0.0,0.0,0.0,0.0,0.0,0.0,0.863,0.9002,0.9848,1.0568,1.148,1.271,1.3184,1.3739,1.4605,1.4687,1.4868,1.5304,1.5938,1.6569,1.7226,1.751,1.7681,1.775,1.7896,1.7974,1.8008,1.8134,1.8202,1.8236,1.8573,1.8617,1.8448,1.8448,1.8414,1.8236,1.7554,1.7028,1.6577,1.5762,1.5089,1.4553,1.4137,1.3775,1.3492,1.3419,1.3302,1.3273,1.3273,1.3273,1.3346,1.3717,1.3531,1.3129,1.2976,1.2734,0.0,0.0,0.0,0.0,0.0,0.0,0.0,0.0,1.3902,1.45,1.4639,1.5168,1.5961,1.7069,1.7469,1.7569,1.7311,1.795,1.8187,1.7273,1.7747,1.7445,1.5456,1.5083,1.4998,1.4941,1.459,1.4487,1.4754,1.4495,1.4412,1.4678,1.4338,1.4083,1.4001,1.3601,1.3173,1.2842,1.2827,1.2806,1.2707,1.2393,1.2532,1.3028,1.2288,1.2097,1.2337,1.1652,1.1335,1.1335,1.1186,1.1111,1.1037,1.055,1.0099,0.9636,0.9372,0.942,0.9582,0.0,0.0,0.0,0.0,0.0,0.0,0.0,0.0,0.8793,1.0299,1.06,1.1149,1.2501,1.3083,1.3448,1.3566,1.4284,1.4732,1.4808,1.5637,1.6529,1.7417,1.7505,1.7666,1.7974,1.7818,1.7818,1.8008,1.7852,1.7852,1.8042,1.8236,1.8337,1.8303,1.8303,1.8303,1.8269,1.7701,1.722,1.683,1.6377,1.5947,1.5657,1.5771,1.4856,1.3528,1.3884,1.3775,1.3455,1.3455,1.3455,1.3528,1.3956,1.3897,1.3682,1.3471,1.3412,1.3403,1.3563,1.3358,1.3068,1.2916,1.3096,1.3275,0.0,1.3885,1.4649,1.4247,1.5286,1.6468,1.7106,1.8148,1.9002,1.9221,1.9722,1.9817,1.9094,1.8912,1.851,1.7471,1.669,1.6106,1.5797,1.5028,1.4698,1.5019,1.4584,1.4412,1.4678,1.4657,1.4441,1.4119,1.3988,1.3608,1.2971,1.2928,1.2746,1.2459,1.2235,1.2293,1.2543,1.1972,1.1834,1.1946,1.1383,1.1149,1.1149,1.1111,1.1111,1.1074,1.1037,1.0962,1.0769,0.9712,0.942,0.9582,0.0,0.0,0.0,0.0,0.0,0.0,0.0,0.0,0.0,0.9024,0.9462,1.0192,1.1402,1.2548,1.3139,1.2963,1.373,1.4386,1.4698,1.5586,1.6462,1.7304,1.7426,1.7598,1.7818,1.7862,1.794,1.8008,1.8032,1.81,1.8178,1.8347,1.8414,1.8405,1.8337,1.8303,1.8269,1.7818,1.7451,1.7185,1.6691,1.6263,1.5947,1.5815,1.507,1.4155,1.4234,1.4079,0.0,1.3588,1.3649,1.3904,1.4676,1.4533,1.4096,1.4197,1.3991,1.38,1.3813,1.3715,1.3712,1.4283,1.4154,1.3997,1.4297,1.496,1.5468,1.5431,1.6341,1.7437,1.8412,1.9036,1.9454,1.963,2.014,2.0207,1.9426,1.9547,1.9569,1.9024,1.8367,1.7503,1.6483,1.594,1.5591,1.5443,1.5126,1.4988,1.5117,1.4999,1.479,1.4454,1.4407,1.4056,1.3361,1.3318,1.3114,1.2707,1.2305,1.219,1.2305,1.1884,1.1739,1.1778,1.154,1.1446,1.1446,1.1446,1.1446,1.1446,1.1446,1.1372,1.1186,1.0582,1.04,1.0475,0.0,0.0,0.0,0.0,0.0,0.0,0.0,0.0,0.0,0.0,0.871,0.9524,1.0679,1.1869,1.2562,1.2514,1.3317,1.4056,1.4656,1.5544,1.6385,1.7182,1.7348,1.7486,1.7647,1.7803,1.7872,1.7872,1.8008,1.8076,1.8076,1.8202,1.8269,1.8269,1.8168,1.8168,1.8202,1.775,1.7554,1.747,1.6855,1.6438,1.6202,1.5744,1.5182,1.4603,1.4453,1.4217,1.3976,1.3703,1.3785,1.4134,1.5006,1.4794,1.4369,1.4631,1.4687,1.4545,1.4294,1.4338,1.4689,1.5507,1.5073,1.4665,1.5359,1.5685,1.5914,1.6195,1.7065,1.8063,1.8926,1.9411,1.9672,1.9659,2.0178,2.0382,1.9736,2.0072,2.0264,1.9942,1.949,1.8727,1.7383,1.6804,1.6304,1.594,1.5582,1.5389,1.5389,1.5264,1.4999,1.465,1.4734,1.4386,1.3555,1.372,1.3492,1.2889,1.244,1.2177,1.2062,1.1696,1.1595,1.1706,1.1632,1.1632,1.1706,1.1706,1.1706,1.1706,1.1706,1.1632,1.1521,1.1298,1.1186,1.1186,0.0,0.0,0.0,0.0,0.0,0.0,0.0,0.0,0.0,0.0,0.0,0.0,0.0,1.1138,1.1622,1.2243,1.3121,1.3919,1.4656,1.5402,1.624,1.7148,1.7201,1.7314,1.7505,1.7505,1.7505,1.7505,1.7505,1.7539,1.7539,1.7647,1.7706,1.7706,1.7706,1.7818,1.7974,1.7451,1.7314,1.747,1.6855,1.6603,1.6533,1.6009,1.5331,1.4668,1.4453,1.4239,1.4011,1.3997,1.3983,1.4057,1.4486,1.4486,1.4361,1.471,1.5422,1.6014,1.5422,1.5747,1.6215,1.6187,1.5396,1.4827,1.5685,1.5623,1.5529,1.5865,1.7007,1.7951,1.7781,1.8944,1.9814,1.9629,2.0157,2.0605,2.0547,2.0595,2.0411,1.9942,1.9863,1.9548,1.8732,1.7448,1.6583,1.6394,1.579,1.5389,1.5389,1.5389,1.5082,1.444,1.4873,1.4531,1.3421,1.4048,1.3885,1.2889,1.2705,1.2286,1.1682,1.1304,1.1335,1.1706,1.1484,1.1521,1.1706,1.1706,1.1706,1.1706,1.1706,1.1818,1.1929,1.1558,1.1409,1.1409,0.0,0.0,0.0,0.0,0.0,0.0,0.0,0.0,0.0,0.0,0.0,0.0,0.0,0.0,0.0,0.0,1.2562,1.3317,1.3928,1.4796,1.5586,1.624,1.688,1.7279,1.7505,1.7588,1.7691,1.7837,1.7837,1.7759,1.7657,1.7828,1.7828,1.7706,1.7852,1.794,1.794,1.7132,1.6994,1.721,1.6114,1.5736,1.5755,1.4831,1.4328,1.4064,0.0,1.3647,1.3875,1.3953,1.4162,1.4475,1.5221,1.509,1.4767,1.5495,1.5952,1.6234,1.6457,1.6661,1.6774,1.6587,1.5748,1.5134,1.5913,1.5975,1.6086,1.6826,1.7513,1.8157,1.8656,1.9044,1.94,1.9736,2.0255,2.0605,2.0605,2.0605,2.0489,2.0186,2.0186,1.9951,1.9369,1.8376,1.7448,1.6648,1.6278,1.5873,1.5431,1.5389,1.5257,1.4873,1.5131,1.4957,1.4279,1.4356,1.3974,1.3107,1.2363,1.1884,1.1706,1.1558,1.1632,1.1892,1.1818,1.1892,1.2114,1.2114,1.2114,1.2114,1.2114,1.215,1.2187,1.204,1.2003,1.1966,0.0,0.0,0.0,0.0,0.0,0.0,0.0,0.0,0.0,0.0,0.0,0.0,0.0,0.0,0.0,0.0,0.0,1.2783,1.3453,1.4126,1.4778,1.5393,1.5918,1.6272,1.6391,1.6721,1.6997,1.7216,1.7479,1.7623,1.7613,1.7691,1.7657,1.7501,1.7588,1.7598,1.7564,1.6673,1.6568,1.6862,1.5411,1.5081,1.5297,1.4006,1.359,0.0,1.3303,1.3453,1.3814,1.3939,1.4367,1.4939,1.5688,1.59,1.5919,1.6211,1.6781,1.7353,1.7505,1.7756,1.7902,1.7605,1.6882,1.638,1.7009,1.7074,1.7145,1.7865,1.8112,1.8418,1.9069,1.8957,1.9024,1.9714,2.009,2.0352,2.0586,2.0605,2.0527,2.0303,2.0303,2.0117,1.9645,1.9073,1.8345,1.7335,1.6722,1.6188,1.579,1.5548,1.5305,1.509,1.5298,1.5166,1.4692,1.4545,1.4014,1.3058,1.2193,1.1781,1.1706,1.1706,1.1818,1.2003,1.2003,1.2114,1.2305,1.2305,1.2342,1.2415,1.2342,1.2378,1.2489,1.2342,1.2378,1.2452,0.0,0.0,0.0,0.0,0.0,0.0,0.0,0.0,0.0,0.0,0.0,0.0,0.0,0.0,0.0,0.0,0.0,0.0,1.3122,1.3453,1.3872,1.4565,1.4481,1.4416,1.4421,1.511,1.5523,1.5707,1.6447,1.697,1.7341,1.7185,1.7073,1.7073,1.6876,1.6817,1.6738,1.6,1.6,1.6373,1.4773,1.458,1.5053,1.3542,1.3236,1.3545,1.3512,1.3599,1.3803,1.3998,1.4678,1.5564,1.5957,1.6873,1.7649,1.6854,1.7906,1.9187,1.8545,1.8974,1.952,1.9116,1.859,1.8324,1.8818,1.8719,1.8625,1.8897,1.8779,1.8745,1.8993,1.8714,1.8722,1.9572,1.9744,1.9965,2.0508,2.0605,2.0537,2.0342,2.0303,2.0117,1.9645,1.9597,1.9271,1.8416,1.7204,1.6476,1.6394,1.579,1.534,1.5131,1.5298,1.5173,1.4734,1.4623,1.3957,1.2784,1.2258,1.1929,1.1744,1.1744,1.1818,1.2003,1.2003,1.2114,1.2305,1.2305,1.2415,1.2562,1.2378,1.2526,1.2826,1.2489,1.2562,1.2863,0.0,0.0,0.0,0.0,0.0,0.0,0.0,0.0,0.0,0.0,0.0,0.0,0.0,0.0,0.0,0.0,0.0,0.0,1.1857,1.2813,1.337,1.3357,1.4175,1.4591,1.447,1.4755,1.4813,1.462,1.4992,1.5258,1.5433,1.551,1.5542,1.5487,1.5487,1.5478,1.5414,1.4634,1.4642,1.5081,1.3798,1.3648,1.4073,1.3139,1.2927,1.3149,1.3117,1.3303,1.3617,1.4402,1.5486,1.6599,1.7173,1.762,1.8027,1.8471,1.8945,1.935,1.9468,1.9558,1.9559,1.9313,1.8698,1.8363,1.9055,1.9177,1.9316,1.9789,1.9573,1.9457,1.9844,1.945,1.924,1.9778,2.0291,2.0585,2.0595,2.0731,2.0702,2.0342,2.0303,2.0117,1.9645,1.9754,1.9627,1.9063,1.8296,1.7408,1.6435,1.6229,1.5906,1.5347,1.5389,1.5347,1.5215,1.4458,1.3708,1.293,1.2445,1.2187,1.215,1.215,1.2187,1.2231,1.2231,1.2268,1.2305,1.2305,1.2342,1.2378,1.2335,1.2452,1.2673,1.2716,1.2826,1.29,0.0,0.0,0.0,0.0,0.0,0.0,0.0,0.0,0.0,0.0,0.0,0.0,0.0,0.0,0.0,0.0,0.0,0.0,0.0,1.2374,1.2958,1.2808,1.3632,1.3975,1.3769,1.407,1.4113,1.3932,1.4347,1.4662,1.4843,1.4866,1.4812,1.4716,1.4771,1.4748,1.462,1.3971,1.3998,0.0,0.0,1.3065,1.3534,1.286,1.2781,1.3017,1.3169,1.3558,1.4158,1.5186,1.6431,1.7609,1.7925,1.8469,1.9051,1.9258,1.9551,1.9913,2.014,2.0109,2.004,2.0001,1.9752,1.9582,1.9889,1.9992,2.0082,2.0179,1.972,1.9419,1.9745,1.9297,1.911,1.9721,2.0146,2.0448,2.0712,2.0819,2.0829,2.0586,2.0547,2.0391,1.9951,2.0029,1.9912,1.9469,1.8825,1.8175,1.7448,1.6845,1.636,1.5982,1.5707,1.5325,1.4885,1.4324,1.3638,1.2808,1.2452,1.2305,1.2305,1.2305,1.2305,1.2305,1.2305,1.2305,1.2305,1.2305,1.2342,1.2415,1.2342,1.2415,1.2636,1.282,1.29,1.2936,0.0,0.0,0.0,0.0,0.0,0.0,0.0,0.0,0.0,0.0,0.0,0.0,0.0,0.0,0.0,0.0,0.0,0.0,0.0,0.0,0.0,1.262,1.3012,1.3116,1.2855,1.3278,1.3455,1.3391,1.3893,1.4335,1.4626,1.4442,1.4321,1.4224,1.4192,1.4103,1.3925,1.3509,1.3541,1.3811,1.2609,1.257,1.3186,0.0,0.0,0.0,1.348,0.0,0.0,0.0,1.7225,1.836,1.8463,1.9295,2.0159,1.964,1.998,2.0566,2.0644,2.0605,2.0644,2.0896,2.1061,2.1084,2.0856,2.0839,2.0726,2.0267,1.9525,1.9082,1.935,1.8961,1.8853,1.9742,1.9916,2.0166,2.0857,2.0945,2.0945,2.0906,2.0867,2.0702,2.0342,2.0303,2.0147,1.9676,1.9183,1.8856,1.8705,1.7578,1.6845,1.6698,1.6018,1.522,1.4308,1.4187,1.3627,1.2636,1.2452,1.2342,1.2305,1.2305,1.2305,1.2305,1.2305,1.2305,1.2305,1.2305,1.2415,1.2526,1.2378,1.2415,1.2599,1.2826,1.29,1.2936,0.0,0.0,0.0,0.0,0.0,0.0,0.0,0.0,0.0,0.0,0.9511,0.9549,0.0,0.0,0.0,0.0,0.0,0.0,0.0,0.0,0.0,0.0,1.2568,1.2887,1.3036,1.2985,1.2716,1.2284,1.2335,1.2489,1.2778,1.268,1.271,1.2837,1.268,1.259,1.253,1.2071,1.2089,1.2382,1.1565,1.1738,1.2468,0.0,0.0,0.0,0.0,0.0,0.0,0.0,1.727,1.8305,1.913,1.9635,2.0031,2.0275,2.0372,2.042,2.0741,2.0731,2.0683,2.1051,2.1061,2.0941,2.0819,2.0737,2.0515,2.006,1.9454,1.9207,1.9908,1.9673,1.971,2.0753,2.1084,2.1191,2.1156,2.1167,2.1099,2.0906,2.0741,2.0576,2.0303,2.045,2.0333,1.9863,1.9951,1.9627,1.8745,1.8264,1.7619,1.673,1.5838,1.515,1.4684,1.4072,1.349,1.2863,1.2636,1.2452,1.2305,1.2305,1.2305,1.2305,1.2305,1.2305,1.2305,1.2305,1.2335,1.2342,1.2305,1.2335,1.2415,1.2753,1.29,1.2936,0.0,0.0,0.0,0.0,0.0,0.0,0.0,0.8742,0.878,0.8975,0.9241,0.9435,0.9473,0.9733,0.0,0.0,0.0,0.0,0.0,0.0,0.0,0.0,0.0,0.0,1.3163,1.306,1.2961,1.283,0.0,1.2599,1.2699,1.2506,1.2366,1.2275,1.2078,1.1897,1.1715,1.138,1.1345,1.149,1.1146,1.1428,0.0,0.0,0.0,0.0,0.0,0.0,0.0,0.0,1.6216,1.7235,1.8581,1.9401,1.9943,2.0082,2.0285,2.0489,2.0693,2.0654,2.0644,2.0848,2.0896,2.0766,2.0155,1.9909,1.9559,1.876,1.8162,1.801,1.8616,1.8744,1.9006,1.973,2.0128,2.0432,2.0661,2.0691,2.0743,2.0876,2.0819,2.0693,2.0498,2.0527,2.045,2.0137,2.0108,1.9863,1.9341,1.8576,1.7691,1.673,1.5873,1.5178,1.4652,1.4136,1.359,1.3046,1.2746,1.2562,1.2452,1.2342,1.2305,1.2305,1.2305,1.2305,1.2305,1.2305,1.2305,1.2305,1.2305,1.2305,1.2342,1.2746,1.29,1.2973,0.0,0.0,0.0,0.0,0.0,0.0,0.0,0.8742,0.8742,0.8703,0.9089,0.9397,0.9511,0.9771,0.9884,0.0,0.0,0.0,0.0,0.0,0.0,0.0,0.0,0.0,0.0,0.0,0.0,1.3359,1.3132,0.0,0.0,0.0,0.0,0.0,1.1902,1.1584,1.1209,1.0958,1.0863,0.0,0.0,1.1083,0.0,0.0,0.0,0.0,0.0,0.0,0.0,0.0,1.5413,1.6455,1.7658,1.8638,1.9397,1.964,1.9995,2.0372,2.0537,2.0605,2.0605,2.0605,2.0731,2.0562,1.9475,1.9065,1.8621,1.753,1.7005,1.6865,1.737,1.7792,1.8213,1.8679,1.9137,1.9617,2.019,2.025,2.0381,2.0847,2.0867,2.078,2.0605,2.0605,2.0527,2.0381,2.0137,1.9942,1.9824,1.8727,1.7723,1.7009,1.6155,1.5336,1.4582,1.4181,1.3739,1.32,1.2826,1.2636,1.2599,1.2378,1.2305,1.2305,1.2305,1.2305,1.2305,1.2305,1.2305,1.2305,1.2305,1.2305,1.2342,1.2746,1.29,1.2973,0.0,0.0,0.0,0.0,0.0,0.0,0.0,0.8861,0.8903,0.8742,0.9203,0.9511,0.9359,0.9657,0.9846,0.0,0.0,0.0,0.0,0.0,0.0,0.0,0.0,0.0,0.0,0.0,0.0,1.2494,1.2662,0.0,0.0,0.0,0.0,0.0,0.0,1.1522,1.0982,1.0555,0.0,0.0,0.0,0.0,0.0,0.0,0.0,0.0,0.0,1.395,1.4618,0.0,1.5998,1.7062,1.6842,1.7123,1.7803,1.9279,1.9564,1.9583,2.0382,2.0605,2.0605,2.0605,2.0605,2.0311,1.9189,1.8768,1.8316,1.7266,1.6853,1.6897,1.7556,1.7982,1.8486,1.9133,1.9565,2.0018,2.0491,2.0334,2.0381,2.0847,2.0731,2.0605,2.0605,2.0605,2.0605,2.0566,2.0372,2.0069,1.9645,1.8785,1.8135,1.7876,1.6741,1.5685,1.4801,1.425,1.3739,1.32,1.2973,1.2783,1.2599,1.2378,1.2305,1.2305,1.2305,1.2305,1.2305,1.2305,1.2305,1.2305,1.2305,1.2305,1.2342,1.2746,1.29,1.2973,0.0,0.0,0.0,0.0,0.0,0.0,0.8703,0.878,0.8784,0.8703,0.9013,0.9213,0.9137,0.9473,0.9733,0.0,0.0,0.0,0.0,0.0,0.0,0.0,0.0,0.0,0.0,0.0,1.2458,1.3042,1.2684,0.0,0.0,0.0,0.0,0.0,0.0,1.1678,1.1248,1.0583,0.0,0.0,0.0,0.0,0.0,0.0,0.0,0.0,0.0,0.0,1.4352,1.46,1.523,1.6065,1.6457,1.65,0.0,1.8564,1.9325,1.9697,2.0411,2.0605,2.0605,2.0605,2.0605,2.0234,1.8909,1.8412,1.79,1.6633,1.6153,1.6026,1.6426,1.6771,1.7133,1.7652,1.8121,1.878,1.9853,1.9799,1.9982,2.0778,2.0731,2.0644,2.078,2.0654,2.0566,2.0411,2.0089,1.9932,2.0029,1.9192,1.8545,1.8175,1.729,1.6442,1.5646,1.4904,1.4306,1.3844,1.3322,1.2973,1.2783,1.2562,1.2415,1.2305,1.2305,1.2305,1.2305,1.2305,1.2305,1.2305,1.2305,1.2378,1.2526,1.2783,1.2973,1.3119,0.0,0.0,0.0,0.0,0.0,0.9018,0.8742,0.8856,0.8894,0.8737,0.898,0.9137,0.9027,0.9322,0.9582,0.9809,0.0,0.0,0.0,0.0,0.0,0.0,0.0,0.0,0.0,0.0,1.2077,1.279,1.2459,1.2635,0.0,0.0,1.2616,1.2643,0.0,0.0,0.0,0.0,0.0,0.0,0.0,0.0,0.0,0.0,0.0,0.0,0.0,0.0,0.0,0.0,0.0,0.0,0.0,0.0,0.0,0.0,1.9011,1.9572,2.0372,2.0605,2.0605,2.0605,2.041,1.9883,1.8563,1.7935,1.7262,1.6062,1.5605,1.5449,1.5575,1.5871,1.6242,1.6629,1.723,1.8055,1.916,1.9344,1.9659,2.0327,2.0418,2.0458,2.0583,2.0614,2.0527,2.042,2.0089,2.001,2.0303,1.9715,1.9103,1.8536,1.7956,1.7254,1.6404,1.5582,1.4971,1.4478,1.3696,1.3175,1.29,1.2673,1.2489,1.2305,1.2305,1.2305,1.2305,1.2305,1.2305,1.2305,1.2305,1.2378,1.2526,1.2783,1.2973,1.3163,0.0,0.0,0.0,0.0,0.0,0.0,0.878,0.9203,0.9392,0.878,0.9236,0.9435,0.9022,0.9175,0.9397,0.9582,0.0,0.0,0.0,0.0,0.0,0.0,0.0,0.0,0.0,0.0,1.1111,1.1111,1.1706,1.1996,1.2033,1.2285,1.2106,1.1601,0.0,0.0,0.0,0.0,0.0,0.0,0.0,0.0,0.0,0.0,0.0,0.0,0.0,0.0,0.0,0.0,0.0,0.0,0.0,0.0,0.0,0.0,1.8682,1.8983,2.0255,2.0605,2.0605,2.0605,1.9959,1.9072,1.8213,1.7321,1.6463,1.5605,1.5391,1.541,1.541,1.5762,1.6242,1.6629,1.7606,1.8384,1.8584,1.9183,1.9542,1.9333,1.9668,1.9922,1.9922,2.0312,2.0605,2.0605,2.0605,2.0489,2.0303,2.0303,1.9893,1.9036,1.8807,1.8113,1.6886,1.623,1.5561,1.4873,1.4073,1.3426,1.29,1.2673,1.2489,1.2305,1.2305,1.2305,1.2305,1.2305,1.2305,1.2305,1.2305,1.2305,1.2342,1.2746,1.29,1.2973,0.0,0.0,0.0,0.0,0.0,0.0,0.0,0.8856,0.8932,0.8737,0.8856,0.8932,0.8822,0.9094,0.9322,0.9397,0.0,0.0,0.0,0.0,0.0,0.0,0.0,0.0,0.0,0.0,1.1223,1.1521,1.1446,1.1744,1.2415,1.2204,1.2274,1.2456,1.1956,1.1627,0.0,0.0,0.0,0.0,0.0,0.0,1.1064,0.0,0.0,0.0,0.0,0.0,0.0,0.0,0.0,0.0,0.0,0.0,0.0,1.764,1.7772,1.7892,1.8822,1.8909,1.8712,1.8818,1.8613,1.8193,1.7301,1.6902,1.6515,1.588,1.5575,1.5478,1.5701,1.5684,1.6017,1.7194,1.7655,1.8257,1.9353,1.9551,1.9568,1.9495,1.9871,2.018,2.037,2.0653,2.0741,2.0605,2.0605,2.0566,2.0489,2.0489,2.0216,1.9618,1.9539,1.9198,1.8558,1.7978,1.7329,1.669,1.6068,1.5098,1.3925,1.3851,1.3282,1.2305,1.2305,1.2305,1.2305,1.2305,1.2305,1.2305,1.2305,1.2378,1.2526,1.2636,1.2863,1.3119,0.0,0.0,0.0,0.0,0.0,0.0,0.0,0.8894,0.897,0.8737,0.878,0.8784,0.8703,0.8975,0.9213,0.9284,0.0,0.0,0.0,0.0,0.0,0.0,0.0,0.0,1.0999,1.1074,1.1223,1.1484,1.1223,1.1409,1.204,1.1781,1.1855,1.2187,1.1818,1.1669,0.0,0.0,0.0,0.0,0.0,0.0,1.0925,0.0,0.0,0.0,0.0,0.0,0.0,0.0,0.0,0.0,0.0,0.0,0.0,0.0,1.7095,1.7073,0.0,1.8222,1.8133,1.8143,1.7896,1.7527,1.7067,1.656,1.6145,1.5879,1.5662,1.5575,1.5798,1.5643,1.592,1.7135,1.773,1.8318,1.9174,1.961,1.9759,1.9624,1.9742,2.0053,2.0546,2.0693,2.0731,2.0605,2.0605,2.0566,2.0489,2.0566,2.0372,1.9902,1.9902,1.9706,1.9301,1.8701,1.8144,1.7635,1.7064,1.6188,1.5009,1.4592,1.3895,1.2942,1.2647,1.2452,0.0,1.2452,1.2526,1.2526,1.2378,1.2592,1.3039,1.2973,1.3258,1.3724,0.0,0.0,0.0,0.0,0.0,0.0,0.0,0.0,0.9354,0.878,0.8865,0.8903,0.8742,0.8903,0.9099,0.9284,0.0,0.0,0.0,0.0,0.0,0.0,0.0,0.0,1.0812,1.0999,1.1111,1.1111,1.1111,1.1111,1.1111,1.1111,1.1111,1.1111,1.1111,1.1111,1.1111,1.1111,1.1074,1.1074,1.1074,1.1074,0.0,0.0,0.0,0.0,0.0,0.0,0.0,0.0,0.0,0.0,0.0,0.0,0.0,0.0,0.0,0.0,0.0,1.8247,1.8453,1.8312,1.7663,1.7108,1.7301,0.0,0.0,1.5722,1.5731,1.5711,1.573,1.5731,1.598,1.6662,1.7842,1.858,1.8387,1.9374,2.0011,1.972,1.9492,1.9695,2.0527,2.0605,2.0605,2.0605,2.0605,2.0527,2.0342,2.0489,2.0372,1.9902,1.9902,1.9706,1.9341,1.8745,1.8281,1.8016,1.7392,1.6752,1.6117,1.5039,1.4389,1.4059,1.3314,1.2746,1.2409,1.2783,1.2936,1.29,1.2526,1.2959,1.376,1.3593,1.3985,1.4637,0.0,0.0,0.0,0.0,0.0,0.0,0.0,0.0,0.0,0.0,0.8822,0.8822,0.8903,0.9094,0.9322,0.0,0.0,0.0,0.0,0.0,0.0,0.0,0.0,0.0,1.0812,1.0999,1.1111,1.1111,1.1111,1.1111,1.1111,1.1111,1.1111,1.1111,1.1111,1.1111,1.1111,1.1111,1.0999,1.0887,1.1037,1.0999,0.0,0.0,0.0,0.0,1.2378,1.2929,0.0,0.0,0.0,0.0,0.0,0.0,0.0,0.0,1.6609,1.6553,1.6692,0.0,1.6595,1.6829,1.6712,1.66,0.0,0.0,0.0,0.0,0.0,0.0,0.0,1.6077,1.6476,1.7478,1.8459,1.9121,1.8983,1.9243,1.9671,2.0293,2.0148,2.0206,2.0769,2.0693,2.0605,2.0605,2.0605,2.0566,2.0527,2.0566,2.0372,1.9902,1.9902,1.9863,1.9745,1.9578,1.9423,1.9222,1.9055,1.8216,1.6779,1.6346,1.5476,1.4237,1.3797,1.3542,1.3433,1.3375,1.3346,1.3346,1.3236,1.3441,1.3796,1.3768,1.4114,1.4601,0.0,0.0,0.0,0.0,0.0,0.0,0.0,0.0,0.0,0.0,0.0,0.0,0.0,0.0,0.0,0.0,0.0,0.0,0.0,0.0,0.0,0.0,0.0,1.07,1.0812,1.0999,1.1111,1.1111,1.1111,1.1111,1.1111,1.1111,1.1111,1.1111,1.1111,1.1111,1.1111,1.1111,1.1037,1.0962,1.1074,0.0,0.0,0.0,0.0,0.0,1.2342,1.2783,0.0,1.4474,1.4974,1.5196,0.0,0.0,0.0,0.0,1.6751,1.6706,1.6608,1.6318,1.6123,1.6271,1.6319,1.6392,1.6634,0.0,0.0,0.0,0.0,0.0,0.0,0.0,1.6748,1.7463,1.8428,1.9259,1.9701,1.9509,1.9652,2.0589,2.0494,2.0562,2.1011,2.0858,2.0731,2.0731,2.0644,2.0566,2.0459,2.0566,2.0372,1.9902,2.002,1.9942,1.9627,1.9618,1.9587,1.9478,1.9478,1.8825,1.7608,1.6999,1.6084,1.4964,1.4408,1.4013,1.3796,1.3956,1.3956,1.3848,1.3811,1.4057,1.4446,1.433,1.4653,1.5161,0.0,0.0,0.0,0.0,0.0,0.0,0.0,0.0,0.0,0.0,0.0,0.0,0.0,0.0,0.0,0.0,0.0,0.0,0.0,0.0,0.0,0.0,1.0443,1.0625,1.0812,1.0999,1.1111,1.1111,1.1111,1.1111,1.1111,1.1111,1.1111,1.1111,1.1111,1.1111,1.1111,1.1111,1.1111,1.1111,1.1111,0.0,0.0,0.0,0.0,0.0,0.0,0.0,0.0,1.4366,1.4832,1.5046,1.5982,0.0,0.0,0.0,0.0,0.0,1.6908,1.6615,1.6315,1.6392,1.6343,1.6411,1.6808,0.0,0.0,0.0,0.0,0.0,0.0,1.6544,1.7002,1.7384,1.8385,1.9442,2.0478,2.0113,2.0037,2.0866,2.0839,2.0878,2.1213,2.1061,2.0945,2.0945,2.077,2.0566,2.0381,2.0527,2.0343,1.9817,2.007,1.9913,1.921,1.9353,1.9381,1.9341,1.9341,1.9015,1.8328,1.7334,1.6495,1.5853,1.5093,1.4489,1.4086,1.4525,1.4597,1.4418,1.4274,1.4633,1.524,1.5018,1.5346,1.5903,0.0,0.0,0.0,0.0,0.0,0.0,0.0,0.0,0.0,0.0,0.0,0.0,0.0,0.0,0.0,0.0,0.0,0.0,0.0,0.0,0.0,1.07,1.0738,1.0775,1.0812,1.0999,1.1111,1.1111,1.1111,1.1111,1.1111,1.1111,1.1111,1.1111,1.1111,1.1111,1.1111,1.1111,1.1111,1.1111,1.1111,0.0,0.0,0.0,0.0,0.0,0.0,0.0,0.0,1.3985,1.4517,1.5046,1.5877,0.0,0.0,0.0,0.0,0.0,1.6839,1.6615,1.6453,1.7137,1.7049,1.6978,1.7667,0.0,0.0,0.0,0.0,0.0,0.0,1.7134,1.7644,1.8438,1.9369,2.0386,2.1428,2.116,2.1067,2.1594,2.1476,2.1403,2.1464,2.1282,2.1167,2.1167,2.0984,2.0829,2.0829,2.0693,2.0246,1.9401,1.9762,1.9576,1.8806,1.945,1.9706,1.9557,1.9557,1.9051,1.8126,1.7792,1.7104,1.621,1.5778,1.547,1.5248,1.5133,1.5098,1.5054,1.4856,1.5043,1.5426,1.524,1.5594,1.6237,0.0,0.0,0.0,0.0,0.0,0.0,0.0,0.0,0.0,0.0,0.0,0.0,0.0,0.0,0.0,0.0,0.0,0.0,0.0,0.0,1.04,1.0775,1.0812,1.085,1.0962,1.1037,1.1111,1.1111,1.1111,1.1111,1.1111,1.1111,1.1111,1.1111,1.1111,1.1111,1.1111,1.1111,1.1111,1.1111,0.0,0.0,0.0,0.0,0.0,0.0,0.0,0.0,0.0,0.0,1.4446,1.5046,1.585,0.0,0.0,0.0,0.0,0.0,1.6874,1.6683,1.6695,1.7606,1.7362,1.7044,1.756,0.0,0.0,0.0,0.0,0.0,0.0,1.7884,1.8646,1.9517,2.0127,2.0705,2.1342,2.1248,2.128,2.1745,2.1731,2.1655,2.1655,2.1464,2.1359,2.1359,2.1099,2.0906,2.0906,2.0615,2.0149,1.9545,1.9554,1.941,1.903,1.9298,1.9429,1.9429,1.9217,1.8649,1.783,1.7521,1.6892,1.6008,1.5867,1.5691,1.5505,1.5541,1.5461,1.5355,1.5363,1.5434,1.5505,1.5541,1.5859,1.6307,0.0,0.0,0.0,0.0,0.0,0.0,0.0,0.0,0.0,0.0,0.0,0.0,0.0,0.0,0.0,0.0,0.0,0.0,0.0,0.0,1.0519,1.085,1.0775,1.085,1.1074,1.1111,1.1111,1.1111,1.1111,1.1111,1.1186,1.1111,1.1149,1.1186,1.1111,1.1111,1.1111,1.1111,1.1111,1.1111,0.0,0.0,0.0,0.0,0.0,0.0,0.0,0.0,0.0,0.0,0.0,0.0,0.0,0.0,0.0,1.6473,1.6682,1.683,1.6908,1.6782,1.6887,1.7861,1.7605,0.0,0.0,0.0,0.0,0.0,0.0,0.0,1.7923,1.8818,1.976,2.0388,2.0786,2.1084,2.1228,2.128,2.1414,2.1766,2.1807,2.1807,2.1807,2.1655,2.1578,2.1578,2.1244,2.1022,2.1022,2.0664,2.0188,1.9627,1.943,1.9279,1.9005,1.8972,1.9042,1.9233,1.8876,1.8291,1.75,1.7187,1.6616,1.5867,1.5867,1.5761,1.5576,1.5726,1.5726,1.5576,1.5691,1.5647,1.5541,1.5823,1.607,1.6316,0.0,0.0,0.0,0.0,0.0,0.0,0.0,0.0,0.0,0.0,0.0,0.0,0.0,0.0,0.0,0.0,0.0,0.0,0.0,0.0,1.0293,1.1037,1.07,1.07,1.1074,1.1111,1.1111,1.1111,1.1111,1.1186,1.1372,1.1186,1.1186,1.1372,1.1186,1.1111,1.1111,1.1111,1.1111,1.1111,1.1111,0.0,0.0,0.0,0.0,0.0,0.0,0.0,0.0,0.0,0.0,0.0,0.0,0.0,1.6132,1.6272,1.6473,1.6647,1.6839,1.6881,1.7068,1.7892,1.7919,0.0,1.8929,1.9315,0.0,1.9143,0.0,1.8537,1.9074,2.0115,2.0829,2.0694,2.1429,2.1941,2.1783,2.1756,2.1766,2.1797,2.1807,2.1807,2.1807,2.1807,2.1769,2.1769,2.1578,2.1474,2.1474,2.1099,2.0396,1.9365,1.9493,1.9133,1.8216,1.854,1.8826,1.9001,1.8817,1.8192,1.7234,1.7198,1.6786,1.6061,1.6061,1.5964,1.577,1.5797,1.5797,1.5761,1.5576,1.5505,1.5568,1.607,1.6272,1.6342,0.0,0.0,0.0,0.0,0.0,0.0,0.0,0.0,0.0,0.0,0.0,0.0,0.0,0.0,0.0,0.0,0.0,0.0,0.0,1.0368,1.0513,1.1074,1.0812,1.0812,1.1074,1.1111,1.1111,1.1111,1.1223,1.1446,1.1781,1.1818,1.2003,1.2305,1.1855,1.1669,1.1669,1.1669,1.1669,1.1669,1.1669,1.1669,0.0,0.0,0.0,0.0,0.0,0.0,0.0,0.0,1.4892,1.5505,1.5576,1.5859,1.6096,1.6167,1.6368,1.6603,1.6682,1.689,1.7299,1.8248,1.8521,0.0,0.0,1.9532,1.9637,1.9809,1.9749,1.9841,2.0284,2.0575,2.0845,2.1087,2.1792,2.2176,2.1845,2.1807,2.1807,2.1807,2.1807,2.1807,2.1807,2.1807,2.1807,2.1807,2.1502,2.1359,2.1502,2.1002,2.0456,1.993,1.9479,1.9045,1.8655,1.8282,1.8133,1.8257,1.818,1.7805,1.718,1.6955,1.6545,1.6096,1.6096,1.607,1.6,1.6,1.6,1.599,1.6197,1.6358,1.6629,1.7069,1.7018,1.6732,0.0,0.0,0.0,0.0,0.0,0.0,0.0,0.0,0.0,0.0,0.0,0.0,0.0,0.0,0.0,0.0,0.0,0.0,1.1027,1.0798,1.079,1.1206,1.0935,1.0887,1.1111,1.1111,1.1111,1.1111,1.1446,1.1855,1.2378,1.2452,1.2673,1.2973,1.2489,1.2268,1.2268,1.2268,1.2268,1.2194,1.2194,1.215,0.0,0.0,0.0,0.0,0.0,0.0,0.0,0.0,1.4892,1.5426,1.547,1.5718,1.6035,1.6132,1.6342,1.6542,1.6647,1.689,1.7344,1.8286,0.0,0.0,1.9866,2.0106,2.0316,2.073,2.0907,2.0969,2.0965,2.1064,2.1212,2.1449,2.202,2.2252,2.1845,2.1807,2.1807,2.1807,2.1807,2.1807,2.1807,2.1807,2.1807,2.1807,2.154,2.1436,2.1502,2.1118,2.0657,2.0192,1.96,1.9134,1.878,1.8187,1.786,1.7781,1.7781,1.7498,1.7018,1.6773,1.6508,1.6167,1.6167,1.6132,1.6096,1.6132,1.6237,1.6386,1.6835,1.7105,1.7362,1.7691,1.744,1.6991,0.0,0.0,0.0,0.0,0.0,0.0,0.0,0.0,0.0,0.0,0.0,0.0,0.0,0.0,0.0,0.0,0.0,0.0,1.1599,1.1174,1.1074,1.1495,1.1079,1.0893,1.1111,1.1111,1.1111,1.1111,1.1706,1.2415,1.32,1.301,1.301,1.32,1.2973,1.29,1.29,1.29,1.279,1.2599,1.2599,1.2489,1.2335,0.0,0.0,0.0,0.0,0.0,0.0,0.0,1.5034,1.524,1.5426,1.5611,1.5867,1.6211,1.6307,1.6377,1.6769,1.6908,1.7114,1.7911,0.0,0.0,2.0646,2.1196,2.1617,2.2025,2.2057,2.1772,2.1046,2.1658,2.2158,2.1773,2.2094,2.2252,2.1845,2.1807,2.1807,2.1807,2.1807,2.1807,2.1807,2.1807,2.1807,2.1807,2.1807,2.1731,2.1512,2.1512,2.1029,1.9964,1.9897,1.9394,1.8323,1.8313,1.809,1.7706,1.7706,1.7329,1.6603,1.6795,1.67,1.6316,1.6307,1.6237,1.6105,1.6246,1.6546,1.6963,1.7425,1.7623,1.7623,1.7746,1.7458,1.7045,0.0,0.0,0.0,0.0,0.0,0.0,0.0,0.0,0.0,0.0,0.0,0.0,0.0,0.0,0.0,0.0,0.0,0.0,1.18,1.1688,1.1647,1.1766,1.1474,1.133,1.1369,1.1214,1.1298,1.1744,1.2489,1.3112,1.3622,1.3695,1.3912,1.4137,1.3295,1.3149,1.3506,1.3076,1.2863,1.2826,1.2826,1.2526,1.2114,0.0,0.0,0.0,0.0,0.0,0.0,0.0,0.0,0.0,1.5275,1.5312,1.5446,1.5852,1.5948,1.5996,1.6271,1.682,1.7457,1.7962,0.0,0.0,0.0,2.141,0.0,2.2402,2.1994,2.1563,2.1841,2.1843,2.1838,2.1901,2.2205,2.2327,2.2063,2.1883,2.1959,2.2365,2.244,2.2553,2.2815,2.259,2.2553,2.2815,2.2327,2.2101,2.2327,2.1959,2.1569,2.1264,2.0356,1.9828,1.9626,1.8758,1.8168,1.7896,1.7896,1.7657,1.722,1.7141,1.6968,1.6691,1.6577,1.6634,1.6884,1.7233,1.7685,1.8178,1.8172,1.8321,1.862,1.8797,1.8323,1.7594,0.0,0.0,0.0,0.0,0.0,0.0,0.0,0.0,0.0,0.0,0.0,0.0,0.0,0.0,0.0,0.0,0.0,0.0,0.0,1.2131,1.2077,1.2077,1.179,1.1636,1.1611,1.1625,1.1889,1.2489,1.2863,1.3331,1.3796,1.4129,1.4425,1.4569,1.3876,1.3768,1.4086,1.3731,1.355,1.3521,1.3521,1.3222,1.2849,0.0,0.0,0.0,0.0,0.0,0.0,0.0,0.0,0.0,1.5169,1.5267,1.5359,1.5618,1.5931,1.6235,1.6324,1.7027,1.7834,1.8147,1.9014,2.021,2.158,2.2025,2.2289,2.274,2.2371,2.2165,2.2833,2.2634,2.2488,2.2825,2.2952,2.2927,2.274,2.259,2.2665,2.3001,2.3075,2.3113,2.3298,2.3075,2.3038,2.3298,2.2852,2.2665,2.2927,2.244,2.1979,2.1651,2.0753,2.0123,1.9804,1.9229,1.8661,1.811,1.8488,1.8358,1.7811,1.7527,1.7364,1.7261,1.7125,1.7171,1.737,1.7849,1.8296,1.8685,1.8754,1.8894,1.9112,1.9262,1.8672,1.784,0.0,0.0,0.0,0.0,0.0,0.0,0.0,0.0,0.0,0.0,0.0,0.0,0.0,0.0,0.0,0.0,0.0,0.0,0.0,0.0,1.2349,1.2349,1.2095,1.1915,1.1848,1.2241,1.267,1.3162,1.3024,1.3295,1.3869,1.4382,1.4605,1.4605,1.4569,1.4569,1.4605,1.4569,1.4461,1.4353,1.4353,1.4209,1.4021,1.4173,0.0,0.0,0.0,0.0,0.0,0.0,0.0,0.0,1.5059,1.5271,1.5449,1.5428,1.6088,1.6821,1.6685,1.7379,1.8174,1.8351,1.922,2.0579,2.2568,2.2852,2.2815,2.3075,2.3075,2.3224,2.3849,2.3787,2.3776,2.4154,2.402,2.3824,2.3629,2.3593,2.3629,2.3666,2.3666,2.3629,2.3482,2.3409,2.3409,2.3446,2.3372,2.3335,2.3335,2.2964,2.2386,2.1555,2.1061,2.0368,1.9414,1.9706,1.9379,1.8442,1.9191,1.9144,1.8337,1.7969,1.7799,1.7812,1.7879,1.7797,1.766,1.8241,1.8597,1.8806,1.9164,1.9301,1.9301,1.9301,1.8681,1.784,0.0,0.0,0.0,0.0,0.0,0.0,0.0,0.0,0.0,0.0,0.0,0.0,0.0,0.0,0.0,0.0,0.0,0.0,0.0,0.0,1.262,1.262,1.2367,1.2229,1.2205,1.2575,1.2777,1.2797,1.3337,1.3876,1.4418,1.4569,1.4677,1.4792,1.4238,1.4274,1.4792,1.4201,1.3941,1.3949,1.3949,1.3622,1.3149,1.3229,1.3513,0.0,0.0,0.0,0.0,0.0,0.0,0.0,1.4476,1.4654,1.501,1.4906,1.5634,1.6466,1.6263,1.7396,0.0,1.8415,1.9449,2.0911,2.2596,2.2964,2.3113,2.3787,2.3677,2.3666,2.4274,2.4213,2.4152,2.4419,2.4141,2.3897,2.3824,2.3703,2.3776,2.4238,2.4311,2.4419,2.4683,2.4286,2.4152,2.4454,2.3897,2.3593,2.3751,2.3372,2.3032,2.2663,2.1597,2.0984,2.0933,2.0081,1.9545,1.932,1.9354,1.9165,1.8833,1.861,1.8328,1.8055,1.8554,1.8636,1.8485,1.8932,1.9134,1.9182,1.9265,1.9301,1.9301,1.9301,1.8759,1.8044,0.0,0.0,0.0,0.0,0.0,0.0,0.0,0.0,0.0,0.0,0.0,0.0,0.0,0.0,0.0,0.0,0.0,0.0,0.0,0.0,1.2705,1.2705,1.2705,1.2752,1.2924,1.3152,1.3484,1.3841,1.4238,1.4362,1.4238,1.4569,1.4792,1.4872,1.4497,1.4533,1.4864,1.4382,1.4165,1.4165,1.4165,1.3985,1.3695,1.3695,1.3912,1.4165,1.4165,0.0,0.0,0.0,0.0,0.0,0.0,0.0,1.4497,1.435,1.5165,1.6146,1.6219,1.7315,0.0,1.9275,0.0,2.1059,2.2879,2.3224,2.3482,2.4647,2.437,2.4068,2.4778,2.4707,2.4707,2.5111,2.5004,2.4862,2.4862,2.4683,2.4671,2.4993,2.4945,2.4957,2.5087,2.4742,2.4598,2.4921,2.437,2.4152,2.4467,2.3922,2.3482,2.3298,2.2344,2.1813,2.169,2.1287,2.074,2.0031,2.0337,2.0202,1.9601,1.9164,1.8779,1.8406,1.9049,1.9044,1.8742,1.9136,1.9301,1.9301,1.9301,1.9301,1.9283,1.9091,1.8641,1.8054,0.0,0.0,0.0,0.0,0.0,0.0,0.0,0.0,0.0,0.0,0.0,0.0,0.0,0.0,0.0,0.0,0.0,0.0,0.0,0.0,0.0,1.279,1.3052,1.3361,1.3735,1.394,1.4403,1.5203,1.5257,1.4866,1.4105,1.4764,1.5036,1.4935,1.49,1.49,1.4935,1.4713,1.4605,1.4605,1.4605,1.4605,1.4605,1.4605,1.4605,1.4605,1.4605,1.4605,1.4589,1.4462,0.0,0.0,0.0,0.0,1.404,1.3851,1.4711,1.5811,1.6296,1.7334,1.8675,2.0236,2.0605,2.1136,2.3102,2.3446,2.3801,2.5324,2.4933,2.4575,2.5324,2.5157,2.5133,2.5851,2.5836,2.573,2.5828,2.5688,2.5571,2.5535,2.5382,2.5276,2.5147,2.4957,2.4921,2.5087,2.4778,2.4706,2.5016,2.4406,2.397,2.3824,2.3187,2.2657,2.2292,2.2535,2.2057,2.0844,2.151,2.1377,2.0489,1.9899,1.9354,1.8938,1.9454,1.9362,1.8882,1.9164,1.9301,1.9301,1.9301,1.9301,1.9256,1.8861,1.8467,1.8027,0.0,0.0,0.0,0.0,0.0,0.0,0.0,0.0,0.0,0.0,0.0,0.0,0.0,0.0,0.0,0.0,0.0,0.0,0.0,0.0,0.0,1.3052,1.3392,1.3837,1.4295,1.5045,1.5476,1.5515,1.5857,1.5777,1.527,1.5544,1.5482,1.5133,1.4971,1.5007,1.5133,1.474,1.4605,1.4605,1.4605,1.4605,1.4605,1.4605,1.4605,1.4605,1.4605,1.4605,1.451,1.3934,1.3894,0.0,0.0,0.0,1.3868,1.3486,1.432,1.5514,1.6227,0.0,1.936,0.0,2.0605,2.1098,2.2916,2.3446,2.3995,2.5548,2.5347,2.5135,2.5945,2.5263,2.4921,2.5988,2.5483,2.5117,2.558,2.5606,2.5535,2.5347,2.5312,2.5276,2.5276,2.5147,2.5087,2.5123,2.4885,2.479,2.4825,2.4754,2.4682,2.4646,2.3897,2.3449,2.3382,2.2745,2.2339,2.2147,2.2092,2.1814,2.1349,2.1076,2.0507,1.9742,1.9816,1.9717,1.9483,1.9362,1.9301,1.9301,1.9301,1.9301,1.9256,1.8861,1.8467,1.8027,0.0,0.0,0.0,0.0,0.0,0.0,0.0,0.0,0.0,0.0,0.0,0.0,0.0,0.0,0.0,0.0,0.0,0.0,0.0,0.0,0.0,1.3094,1.3646,1.4188,1.4783,1.5541,1.6003,1.6224,1.6669,1.6458,1.564,1.6138,1.606,1.5355,1.5177,1.5106,1.5161,1.4776,1.4605,1.4605,1.4605,1.4605,1.4605,1.4605,1.4605,1.4605,1.4605,1.4605,1.4526,1.4053,1.3854,1.3737,1.3156,0.0,0.0,0.0,1.367,1.4616,1.6152,1.7834,1.9329,0.0,2.0527,2.1059,2.2879,2.3423,2.3998,2.5571,2.5688,2.5606,2.598,2.5714,2.5593,2.5978,2.5874,2.5834,2.607,2.6002,2.591,2.5793,2.5618,2.5465,2.5465,2.5253,2.5111,2.5218,2.4957,2.4861,2.4957,2.4861,2.479,2.479,2.4454,2.4236,2.4116,2.3751,2.3335,2.2889,2.258,2.2241,2.1845,2.1759,2.1136,2.0108,2.0108,1.9912,1.9597,1.9518,1.939,1.9301,1.9301,1.9499,1.969,1.8728,1.8452,1.8487,0.0,0.0,0.0,0.0,0.0,0.0,0.0,0.0,0.0,0.0,0.0,0.0,0.0,0.0,0.0,0.0,0.0,0.0,0.0,0.0,0.0,1.3185,1.3935,1.4608,1.5166,1.5873,1.6451,1.6812,1.7147,1.6853,1.5942,1.6531,1.6368,1.5576,1.539,1.5275,1.524,1.4856,1.4677,1.4677,1.4605,1.4605,1.4605,1.4605,1.4605,1.4605,1.4605,1.4605,1.4542,1.409,1.3807,1.3546,1.3124,1.2868,0.0,0.0,0.0,1.4238,1.5932,0.0,1.8648,1.9468,1.9974,2.0729,2.2472,2.3197,2.3913,2.55,2.5863,2.591,2.591,2.5793,2.5809,2.6013,2.6021,2.6117,2.6393,2.6305,2.6166,2.6131,2.5793,2.5606,2.5606,2.5324,2.5218,2.5347,2.5087,2.5016,2.523,2.5028,2.4921,2.4921,2.4897,2.4814,2.467,2.4562,2.42,2.3593,2.3261,2.2852,2.2402,2.2365,2.1749,2.077,2.0537,2.0255,1.9912,1.9754,1.9557,1.9381,1.9578,1.9854,2.0062,1.8929,1.8719,1.8805,0.0,0.0,0.0,0.0,0.0,0.0,0.0,0.0,0.0,0.0,0.0,0.0,1.31,1.2833,1.2705,1.2705,0.0,0.0,0.0,0.0,0.0,1.3398,1.4454,0.0,1.5394,1.6237,1.6812,1.7098,1.7098,1.6924,1.656,1.6598,1.6323,1.577,1.5576,1.547,1.547,1.5043,1.4872,1.4864,1.4677,1.4605,1.4605,1.4605,1.4605,1.4605,1.4605,1.4605,1.4502,1.3846,1.3592,1.3498,1.2829,1.2606,1.2652,0.0,0.0,0.0,0.0,1.6257,0.0,1.7791,1.8644,1.9773,2.1428,2.2576,2.3765,2.5288,2.5758,2.591,2.591,2.5074,2.4851,2.6255,2.5453,2.5054,2.6064,2.6213,2.6131,2.5945,2.5723,2.5606,2.5606,2.5418,2.5382,2.5571,2.5382,2.5347,2.5571,2.5382,2.5276,2.5276,2.5147,2.5087,2.5087,2.4706,2.449,2.4454,2.4225,2.3824,2.3224,2.3038,2.2628,2.1949,2.1213,2.0867,2.0789,2.0137,1.9754,1.9645,2.0294,2.0401,2.0178,1.9829,1.9393,1.8877,0.0,0.0,0.0,0.0,0.0,0.0,0.0,0.0,0.0,0.0,0.0,0.0,0.0,1.3009,1.2875,1.2705,1.2875,0.0,0.0,0.0,0.0,1.3568,1.4153,1.4734,1.5394,1.5989,1.6574,1.7098,1.7221,1.7136,1.6804,1.7076,1.6754,1.5975,1.5499,1.5311,1.5275,1.4892,1.4713,1.4721,1.4641,1.4605,1.4629,1.5033,1.5194,1.5227,1.5556,1.5454,1.5122,1.4665,1.4247,1.3799,1.3116,1.2933,1.2916,1.2993,1.378,1.4711,0.0,0.0,0.0,1.7429,1.7966,1.8874,2.1003,2.1905,2.2868,2.4956,2.5571,2.5793,2.605,2.5567,2.5407,2.618,2.569,2.5532,2.6296,2.6396,2.6361,2.628,2.6119,2.598,2.598,2.5793,2.5711,2.5793,2.5618,2.5535,2.5606,2.5418,2.5312,2.5312,2.5241,2.5182,2.5123,2.4945,2.4778,2.449,2.4574,2.4273,2.3677,2.3482,2.3187,2.2815,2.2166,2.1645,2.1272,2.1031,2.0799,2.0673,2.0905,2.1175,2.1334,2.0602,2.0244,2.0017,0.0,0.0,0.0,0.0,0.0,0.0,0.0,0.0,0.0,0.0,0.0,0.0,0.0,0.0,1.3094,1.2875,1.3009,1.3094,1.3094,1.3307,1.3603,1.3942,1.4482,1.5026,1.5609,1.5965,1.6456,1.7098,1.7187,1.7166,1.7004,1.7349,1.7103,1.6365,1.5866,1.5544,1.5275,1.4955,1.4748,1.4677,1.4641,1.4605,1.4629,1.5041,1.5312,1.556,1.5901,1.5806,1.5442,1.5113,1.4614,1.4013,1.3441,1.3283,1.334,1.3353,1.3748,0.0,1.4859,0.0,0.0,1.6617,1.7199,1.8161,2.033,2.1401,2.2465,2.446,2.5276,2.5688,2.5945,2.5729,2.5602,2.5956,2.5611,2.5523,2.6122,2.6197,2.6273,2.6474,2.6339,2.6213,2.6213,2.6015,2.5945,2.5992,2.5793,2.5688,2.5688,2.55,2.5382,2.5312,2.5312,2.5276,2.5182,2.5111,2.4909,2.461,2.4682,2.4454,2.397,2.3787,2.3604,2.3372,2.2927,2.2365,2.1807,2.1655,2.1492,2.1328,2.152,2.1825,2.201,2.1401,2.111,2.0898,0.0,0.0,0.0,0.0,0.0,0.0,0.0,0.0,0.0,1.4088,0.0,0.0,0.0,0.0,0.0,1.3137,1.3137,1.3137,1.3137,1.3766,1.4223,1.4433,0.0,0.0,0.0,1.6163,1.6509,1.7098,1.6989,1.7021,1.7234,1.7414,1.7287,1.6898,1.6699,1.6211,1.5513,1.5292,1.5078,1.4872,1.4677,1.4613,1.4657,1.4665,1.5025,1.5552,1.5577,1.556,1.5495,1.5153,1.4654,1.4077,1.3719,1.3692,1.3842,1.404,1.3948,0.0,0.0,0.0,0.0,1.5177,1.6267,1.7581,1.9241,2.0963,2.2547,2.3796,2.4862,2.5558,2.5606,2.5421,2.5369,2.5565,2.5126,2.5008,2.5523,2.5598,2.5812,2.6424,2.6339,2.6213,2.6213,2.6015,2.598,2.6201,2.6015,2.591,2.591,2.5711,2.55,2.5312,2.5312,2.5312,2.5312,2.5182,2.5016,2.479,2.461,2.4418,2.42,2.397,2.3787,2.3593,2.3372,2.2964,2.2402,2.1997,2.1731,2.1617,2.2176,2.2289,2.2124,2.228,2.1976,2.137,0.0,0.0,0.0,0.0,0.0,0.0,0.0,0.0,1.4629,0.0,0.0,0.0,1.4188,1.423,1.4321,1.4272,1.4447,1.4538,1.4538,1.4706,1.4908,1.5103,1.5291,1.5665,1.6319,1.6193,1.652,1.731,1.7293,1.7356,1.7548,1.7757,1.768,1.7321,1.7273,1.675,1.5917,1.5727,1.5352,1.4908,1.4828,1.5089,1.5495,1.5741,1.5934,1.6203,1.7013,1.6785,1.6124,1.6496,1.5943,1.4985,1.4191,1.3892,0.0,1.3736,1.378,0.0,1.3974,0.0,0.0,0.0,0.0,0.0,1.7708,1.8998,2.0511,2.2594,2.3584,2.4389,2.5428,2.5554,2.5473,2.5262,2.4975,2.5008,2.5523,2.5598,2.5812,2.6424,2.6339,2.627,2.6396,2.6084,2.605,2.6396,2.6084,2.5945,2.6097,2.5793,2.55,2.5312,2.5312,2.5312,2.5312,2.5276,2.5182,2.5016,2.4825,2.461,2.4418,2.4043,2.3861,2.3787,2.3446,2.3224,2.3038,2.2777,2.2628,2.259,2.2777,2.2815,2.2767,2.2785,2.2487,2.2042,0.0,0.0,0.0,0.0,0.0,0.0,0.0,1.4419,1.4587,0.0,0.0,0.0,1.481,1.4866,1.4866,1.4866,1.4999,1.509,1.509,1.5374,1.5609,1.5809,1.5989,1.6278,1.6812,1.6554,1.6758,1.7392,1.7324,1.7445,1.77,1.791,1.792,1.7697,0.0,0.0,1.6287,1.6082,1.5587,1.4908,1.5007,1.5291,1.5716,1.5988,1.6329,1.6776,1.7409,1.7243,1.6751,1.7064,1.6445,1.5357,1.4541,1.4119,1.396,1.4205,1.4106,0.0,0.0,0.0,0.0,1.4693,0.0,0.0,1.6836,1.8217,1.9738,2.1424,2.2489,2.3537,2.4885,2.5033,2.4947,2.4964,2.4941,2.5041,2.534,2.5178,2.5286,2.5847,2.5887,2.5909,2.6045,2.6017,2.6131,2.6374,2.6084,2.591,2.5945,2.5653,2.5418,2.5312,2.5312,2.5312,2.5312,2.5312,2.5241,2.5123,2.4885,2.4682,2.4502,2.4164,2.397,2.3897,2.3556,2.342,2.3409,2.3224,2.3075,2.3001,2.3187,2.315,2.3001,2.3075,2.29,2.2575,0.0,0.0,0.0,0.0,0.0,0.0,0.0,1.4377,1.4538,0.0,1.4859,1.5026,1.5443,1.5367,1.5291,1.5291,1.5291,1.5291,1.5291,1.5858,1.6263,1.6476,1.7057,1.7392,1.7432,1.711,1.711,1.7432,1.7309,1.7397,1.77,1.791,1.8,1.7983,0.0,0.0,1.6611,1.6388,1.5822,1.5036,1.5235,1.5473,1.5724,1.5889,1.6484,1.7218,1.726,1.7251,1.7218,1.7218,1.647,1.5491,1.488,1.4458,1.4297,1.4958,1.4693,0.0,0.0,0.0,0.0,1.5089,1.5282,0.0,1.6352,1.7907,1.9429,2.0118,2.1265,2.2548,2.3897,2.3888,2.3857,2.4396,2.4676,2.4896,2.5087,2.4632,2.4497,2.5038,2.5206,2.5257,2.529,2.5695,2.5983,2.6079,2.599,2.5828,2.5606,2.5453,2.5347,2.5312,2.5312,2.5312,2.5312,2.5312,2.5241,2.5111,2.4921,2.4718,2.4538,2.4309,2.4116,2.3934,2.3714,2.3641,2.3641,2.3446,2.3261,2.3113,2.3446,2.3335,2.3038,2.3224,2.315,2.2936,0.0,0.0,0.0,0.0,0.0,0.0,0.0,0.0,1.6304,1.5884,1.5974,1.6023,1.5955,1.6203,1.6409,1.6409,1.6409,1.6409,1.6409,1.6525,1.6689,1.6968,1.7098,1.7294,1.7619,1.7439,1.7398,1.7619,1.7632,1.7632,1.77,1.791,1.8,1.7983,0.0,0.0,1.6817,1.6507,1.6164,1.5858,1.5894,1.6392,1.7098,1.6951,1.7052,1.7251,1.7706,1.7581,1.7218,1.7218,1.6751,1.6037,1.5499,1.4969,1.4533,1.4745,1.4693,1.4621,1.4752,1.4811,1.4845,1.4959,1.5225,0.0,1.5424,1.6133,1.7071,1.8049,1.8828,1.9803,2.1476,2.1797,2.1992,2.248,2.2895,2.3613,2.4909,2.4632,2.4497,2.5038,2.4606,2.4336,2.4513,2.438,2.4557,2.5268,2.5815,2.598,2.5606,2.5723,2.5641,2.5312,2.5312,2.5312,2.5312,2.5312,2.5276,2.5276,2.5111,2.4957,2.4718,2.4538,2.4345,2.4127,2.3934,2.3824,2.3824,2.3787,2.3677,2.3482,2.3372,2.3298,2.3224,2.3113,2.3038,2.299,0.0,0.0,0.0,0.0,0.0,0.0,0.0,0.0,1.6345,1.6394,1.6599,1.673,1.6607,1.6656,1.6689,1.6689,1.6689,1.6689,1.6689,1.6902,1.7106,1.7221,1.7424,1.7627,1.787,1.7757,1.7757,1.787,1.787,1.787,1.787,1.7951,1.8,1.7974,0.0,0.0,1.6846,1.6319,1.6154,1.6252,1.6207,1.6648,1.7358,1.7358,1.7437,1.7624,1.7891,1.784,1.7581,1.7277,1.7005,1.6591,1.5773,1.5174,1.4816,1.4795,1.4763,1.4754,1.49,1.5074,1.5155,1.502,1.514,0.0,0.0,1.5616,1.6341,1.6888,1.7498,1.8417,2.0029,2.0378,2.0684,2.1506,2.2086,2.2778,2.3788,2.3761,2.3863,2.4399,2.4183,2.4046,2.4157,2.4235,2.4359,2.4439,2.5027,2.5251,2.5066,2.539,2.55,2.5312,2.5312,2.5312,2.5312,2.5312,2.5312,2.5312,2.5147,2.4992,2.4778,2.433,2.4127,2.4177,2.3709,2.3707,2.4043,2.3934,2.3713,2.3368,2.3295,2.3197,2.3117,2.2875,2.2904,2.3001,0.0,0.0,0.0,0.0,0.0,0.0,0.0,0.0,1.627,1.6812,1.7098,1.7245,1.7278,1.7081,1.6957,1.6957,1.6957,1.6884,1.6779,1.7147,1.7351,1.7392,1.7716,1.7919,1.8,1.8,1.8,1.8,1.7951,1.7951,1.8,1.7883,1.7891,1.7965,0.0,0.0,0.0,1.6299,1.6187,1.6426,1.6523,1.6778,1.7156,1.741,1.7655,1.7897,1.7965,1.7948,1.7846,1.735,1.7167,1.6921,1.5971,1.5389,1.5096,1.5113,1.4966,1.4852,1.5223,1.5437,1.5504,1.5283,1.5208,1.5115,0.0,0.0,0.0,1.5987,1.6486,1.7317,1.852,1.8814,1.9242,2.03,2.108,2.1672,2.2076,2.2321,2.2767,2.3565,2.3651,2.368,2.3789,2.4274,2.4338,2.3685,2.4119,2.4408,2.4374,2.4817,2.5094,2.5155,2.5155,2.5204,2.5312,2.5312,2.5312,2.5312,2.5182,2.5016,2.4778,2.4225,2.4036,2.4166,2.3621,2.3678,2.42,2.4007,2.3695,2.3273,2.3171,2.3008,2.2769,2.2606,2.2677,2.2881,1.5933,1.6353,0.0,0.0,0.0,0.0,0.0,0.0,1.7489,1.7578,1.761,1.7712,1.7896,1.7879,1.7862,1.7862,1.7862,1.7647,1.7074,1.7098,1.7221,1.7392,1.7432,1.7635,1.7991,1.8,1.8,1.8,1.7821,1.7829,1.7991,1.7508,1.7525,1.7948,1.6846,1.6659,1.7139,1.6942,1.6747,1.6635,1.7134,1.7186,1.6983,1.7346,1.7531,1.7617,1.7871,1.7817,1.7526,1.7265,1.6951,1.6611,1.6329,1.5868,1.5508,1.5863,1.5552,1.5217,1.5623,1.5737,1.5763,1.5721,1.5584,1.5396,1.5124,0.0,1.4938,1.49,0.0,1.5428,1.5959,0.0,0.0,1.7398,1.8388,1.932,1.9957,2.0305,2.1158,2.2895,2.2686,2.259,2.3059,2.361,2.3673,2.3144,2.3675,2.4011,2.389,2.4059,2.4268,2.459,2.4568,2.4831,2.53,2.5312,2.5312,2.5312,2.5276,2.5111,2.479,2.4886,2.4671,2.42,2.4288,2.4288,2.42,2.4164,2.3936,2.3506,2.3093,2.2559,2.2046,2.2243,2.2346,2.2455,1.7,1.7009,0.0,0.0,0.0,0.0,0.0,0.0,1.787,1.787,1.7781,1.7718,1.7804,1.7921,1.8004,1.8004,1.816,1.8176,1.7935,1.7729,1.7697,1.7912,1.7703,1.7708,1.7991,1.8,1.8,1.8,1.791,1.791,1.7991,1.7757,1.7766,1.7957,1.7187,1.7177,1.769,1.7331,1.7306,1.754,1.7805,1.7803,1.7623,1.7561,1.7603,1.7817,1.794,1.7792,1.7501,1.7613,1.7434,1.7081,1.6887,1.6436,1.5946,1.5786,1.5501,1.524,1.5426,1.5611,1.5805,1.5805,1.5747,1.5601,1.5372,1.5077,1.484,1.4787,0.0,0.0,0.0,0.0,0.0,0.0,1.7208,1.7962,1.8522,1.9136,2.0058,2.1583,2.1696,2.1721,2.1937,2.2779,2.3087,2.2464,2.3324,2.386,2.3806,2.386,2.3957,2.4073,2.4374,2.4592,2.482,2.5155,2.5312,2.5312,2.5206,2.5111,2.4945,2.4519,2.433,2.4358,2.3998,2.3925,2.4043,2.4152,2.3716,2.2967,2.2629,2.2366,2.2114,2.1955,2.2073,2.239,1.7821,0.0,0.0,0.0,0.0,0.0,0.0,1.7938,1.8034,1.8136,1.7929,1.7823,1.7916,1.8187,1.8372,1.8414,1.8665,1.8797,1.8697,1.8396,1.8246,1.8322,1.8002,1.789,1.8,1.8,1.8,1.8,1.7857,1.7806,1.7877,0.0,0.0,0.0,1.7125,1.7211,1.7734,1.7487,1.7624,1.8018,1.8212,1.8285,1.8302,1.7896,1.7943,1.8161,1.8121,1.7831,1.7548,1.7712,1.7658,1.7466,1.7248,1.6899,1.6461,1.6167,1.5827,1.561,1.5646,1.5804,1.5951,1.5951,1.5874,1.5738,1.5557,1.5277,1.4994,1.4787,1.4527,0.0,0.0,0.0,1.5323,1.5739,0.0,1.6888,1.7286,1.7918,1.887,2.0342,2.0865,2.1081,2.095,2.187,2.2375,2.203,2.2863,2.3493,2.3782,2.3806,2.3806,2.3806,2.4254,2.4484,2.4484,2.5035,2.5312,2.5312,2.5218,2.5147,2.5076,2.4425,2.426,2.4467,2.3838,2.3718,2.3995,2.3967,2.3593,2.2927,2.2383,2.2197,2.2133,2.1605,2.1701,2.2182,1.7991,1.8,0.0,0.0,0.0,0.0,1.8237,1.8108,1.8128,1.8519,1.8222,1.8136,1.8528,1.8922,1.9239,1.9435,1.9583,1.952,1.9196,1.8904,1.8607,1.833,1.8305,1.8169,1.8008,1.8,1.8,1.8,1.7482,1.7344,0.0,0.0,0.0,0.0,1.6373,1.6412,1.6954,1.7324,1.7504,1.7586,1.822,1.8583,1.8649,1.8457,1.8494,1.866,1.8442,1.799,1.7466,1.7305,1.7335,1.7466,1.7248,1.7209,1.7192,1.7402,1.7013,1.6602,1.68,1.6564,1.6319,1.6364,1.6107,1.5738,1.5557,1.5495,1.5302,1.4741,1.4604,1.4542,1.4369,1.4547,1.4804,1.5,1.5546,0.0,0.0,1.6459,1.7381,1.9322,2.0361,2.0729,2.0276,2.0849,2.1451,2.197,2.2159,2.269,2.3746,2.3806,2.3806,2.3806,2.4254,2.4484,2.4484,2.5035,2.5312,2.5312,2.5312,2.5241,2.5123,2.5194,2.4993,2.4467,2.4143,2.4061,2.4154,2.3637,2.3598,2.3736,2.2622,2.209,2.1838,2.117,2.1222,2.1715,0.0,0.0,0.0,0.0,1.77,1.7782,1.804,1.8282,1.8357,1.8237,1.8068,1.8042,1.8211,1.8793,1.9213,1.9299,1.9788,2.0052,1.9924,1.964,1.9478,1.9497,1.929,1.9012,1.8681,1.8672,1.846,1.8,1.7831,1.7772,0.0,0.0,0.0,0.0,1.6813,1.7081,1.7917,1.8145,1.8883,1.9896,1.9908,1.987,1.9819,1.8935,1.8797,1.9033,1.8732,1.8316,1.79,1.7766,1.7641,1.7518,1.7695,1.7491,1.7218,1.7288,1.6978,1.6598,1.6674,1.6524,1.6345,1.6336,1.6071,1.5762,1.5713,1.548,1.5393,1.5664,1.495,1.4482,1.511,1.4693,1.4359,1.4745,1.4971,1.5186,0.0,1.5884,1.6732,1.8024,1.8821,1.9177,1.9013,1.9957,2.0624,2.0801,2.1254,2.2063,2.3228,2.2919,2.3083,2.3782,2.4254,2.4484,2.4484,2.5035,2.5312,2.5312,2.5218,2.5182,2.5241,2.5052,2.4685,2.4167,2.391,2.3502,2.3027,2.3303,2.3322,2.3127,2.2557,2.2171,2.1815,2.1137,2.1269,2.1946,1.8442,0.0,1.835,1.8082,1.8134,1.8269,1.8401,1.8723,1.8783,1.8468,1.8557,1.864,1.8557,1.9211,1.9678,1.9756,2.0244,2.0609,2.0699,2.0329,2.0183,2.0228,1.9939,1.952,1.9005,1.8856,1.8464,1.7834,1.7569,1.7441,0.0,0.0,0.0,0.0,1.6972,1.735,1.8165,1.8385,1.9333,2.0714,2.1005,2.0897,2.0439,1.9907,1.9687,1.9646,1.9195,1.891,1.8671,1.8355,1.8117,1.7952,1.7994,1.7749,1.7491,1.7491,1.7313,1.711,1.711,1.6953,1.6785,1.6739,1.6501,1.6299,1.6299,1.6181,1.614,1.6493,1.5519,1.4813,1.55,1.475,1.413,1.4547,1.4636,1.4695,0.0,1.5565,1.6247,1.687,1.7634,1.8205,1.8286,1.9055,1.9747,2.0181,2.0647,2.144,2.2642,2.2739,2.3011,2.3505,2.4338,2.4676,2.4484,2.5035,2.5312,2.5312,2.5218,2.5206,2.5276,2.5087,2.4625,2.4001,2.3744,2.3213,2.2514,2.2846,2.2982,2.2962,2.2558,2.2376,2.2224,2.114,2.1262,2.2155,1.9213,1.923,1.9085,1.8708,1.9007,1.9264,1.9247,1.9419,1.9504,1.929,1.964,1.9793,1.9538,2.0112,2.057,2.0779,2.0909,2.1096,2.1347,2.0979,2.0676,2.0535,2.0298,1.9852,1.9081,1.8714,1.8183,1.7505,1.6848,1.645,0.0,0.0,0.0,0.0,1.6839,1.721,1.7774,1.8158,1.8963,2.0031,2.1474,2.1439,2.0626,2.126,2.1083,2.0449,1.9829,1.9736,1.9786,1.9002,1.8732,1.8652,1.8201,1.804,1.804,1.804,1.7991,1.8,1.8,1.7757,1.7505,1.7505,1.7337,1.7203,1.7203,1.7409,1.7516,1.7142,1.6219,1.5498,1.5548,1.4715,1.4109,1.4446,1.4515,1.4565,1.4686,1.5381,1.5874,1.5874,1.6937,1.7755,1.803,1.8259,1.8857,2.0023,2.0226,2.0836,2.2053,2.3063,2.3457,2.3039,2.4458,2.4976,2.4532,2.5059,2.5312,2.5312,2.5312,2.5312,2.5312,2.5312,2.4813,2.399,2.3641,2.3203,2.2672,2.2333,2.2636,2.3281,2.2685,2.2742,2.2934,2.1141,2.1219,2.2285,1.9213,1.9401,1.952,1.9418,1.9752,2.0004,1.9896,2.0183,2.035,2.0201,2.0022,1.9878,1.9793,2.0199,2.0535,2.057,2.082,2.1042,2.1096,2.1159,2.1212,2.1159,2.123,2.086,1.9898,2.0101,1.9365,1.7718,1.7835,1.7514,1.6718,0.0,0.0,0.0,0.0,1.751,1.8192,1.8787,1.9453,2.0208,2.1197,2.1368,2.11,2.1408,2.1833,2.2034,2.04,2.0098,2.0284,1.942,1.9042,1.8882,1.8803,1.8563,1.8322,1.8322,1.8161,1.8,1.8,1.7757,1.7505,1.7505,1.7337,1.7203,1.7203,1.7409,1.7658,1.797,1.6688,1.5699,1.6415,1.5155,1.4109,1.4446,1.4515,1.4565,1.4686,1.5108,1.5459,1.5652,1.656,1.7301,1.7606,1.7783,1.8199,1.8948,1.9042,1.9626,2.093,2.1182,2.1973,2.3553,2.3841,2.4321,2.5107,2.524,2.5312,2.5312,2.5312,2.5312,2.5312,2.5312,2.493,2.4197,2.372,2.3136,2.2519,2.2292,2.2319,2.2541,2.2762,2.2693,2.2417,2.2014,2.1913,2.2115,1.9667,1.9838,1.9984,1.9984,2.0382,2.064,2.0401,2.0663,2.0919,2.1033,2.0882,2.0783,2.0827,2.0925,2.1005,2.1005,2.1114,2.115,2.115,2.1195,2.1293,2.1392,2.1526,2.1145,2.021,2.0238,1.9445,1.7796,1.7712,1.7357,1.6773,0.0,0.0,0.0,0.0,1.8022,1.8684,1.944,2.0018,2.0599,2.1638,2.1887,0.0,2.211,2.2513,2.2619,2.1341,2.1021,2.1098,2.0167,1.9666,1.9359,1.9073,1.8843,1.8643,1.8434,1.8273,1.8161,1.8031,1.7837,1.7754,1.7873,1.7874,1.7872,1.7979,1.8181,1.8436,1.8722,1.7584,1.6732,1.7323,1.6193,1.5146,1.5053,1.4882,1.4738,1.4634,1.4982,1.5268,1.5332,1.6055,1.6733,1.7155,1.7617,1.8084,1.856,1.8545,1.8885,1.9777,2.0633,2.1672,2.2963,2.3853,2.4607,2.53,2.5312,2.5312,2.5312,2.5312,2.5312,2.5312,2.5382,2.507,2.4427,2.4162,2.3597,2.2791,2.2791,2.2647,2.2573,2.3186,2.3333,2.3199,2.312,2.2648,2.2141,2.0292,2.0292,2.0292,2.0292,2.075,2.1026,2.0928,2.1182,2.152,2.1908,2.1985,2.2069,2.2116,2.198,2.1876,2.1874,2.1651,2.1526,2.1482,2.1284,2.1275,2.1482,2.1516,2.1178,2.0422,2.009,1.9259,1.7949,1.7369,1.6979,0.0,0.0,0.0,0.0,0.0,1.8697,1.9273,2.0014,2.0556,2.1049,2.2391,2.2628,2.2252,2.3073,2.315,2.2815,2.2402,2.2214,2.1987,2.1069,2.0489,2.002,1.9508,1.9231,1.9073,1.8754,1.8594,1.8482,1.8161,1.8121,1.8152,1.8353,1.8571,1.8772,1.8962,1.9152,1.9301,1.9301,1.8554,1.7933,1.8091,1.7351,1.6533,1.5964,1.5469,1.5074,1.479,1.5053,1.5263,1.516,1.5819,0.0,1.6945,1.7573,1.8162,1.8639,1.8569,1.8666,1.908,2.0849,2.1963,2.2241,2.409,2.5132,2.5312,2.5312,2.5312,2.5312,2.5347,2.5347,2.5347,2.5535,2.5328,2.4766,2.4818,2.4312,2.341,2.354,2.3349,2.3081,2.3696,2.4148,2.44,2.4163,2.3379,2.2507,2.0292,2.0292,2.0292,2.0292,2.0397,2.0804,2.179,2.2129,2.2488,2.3099,2.291,2.2759,2.2812,2.28,2.2801,2.2857,2.2485,2.2132,2.2008,2.2087,2.2087,2.1963,2.2206,2.2086,2.1607,2.1489,2.0569,1.8786,1.8995,1.8532,0.0,0.0,0.0,0.0,0.0,1.9264,1.9943,2.0385,2.0793,2.1241,2.2601,2.3067,2.3052,2.3596,2.3751,2.3641,2.3224,2.2777,2.2289,2.1759,2.1425,2.1195,2.1118,2.0566,1.9971,1.9932,1.9539,1.9073,1.8692,1.8692,1.8763,1.8474,1.8683,1.8962,1.9002,1.9152,1.9301,1.9301,1.8554,1.7933,1.8091,1.7423,1.6828,1.6716,1.6065,1.568,1.5964,1.565,1.5523,1.5939,1.6981,1.7734,1.7913,1.7503,1.7718,1.8916,1.9006,1.9481,2.0629,2.0949,2.1834,2.3448,2.3699,2.4297,2.53,2.5312,2.5312,2.5312,2.5465,2.5535,2.5535,2.5758,2.5779,2.5634,2.5227,2.4835,2.4498,2.4162,2.3848,2.3628,2.3711,2.3814,2.3953,2.4294,2.4044,2.3535,2.0292,2.0292,2.0292,2.0292,2.0683,2.1235,2.2088,2.2688,2.3208,2.3804,2.3597,2.3494,2.3663,2.3532,2.3432,2.3452,2.2919,2.2574,2.2451,2.253,2.2574,2.2451,2.2689,2.2519,2.1897,2.1887,2.1033,1.9303,1.9293,1.886,1.8008,1.8027,1.8293,1.8808,0.0,1.9893,2.0882,2.1043,2.1644,2.2514,2.327,2.357,2.3627,2.409,2.4209,2.4093,2.4026,2.3618,2.2961,2.2336,2.1921,2.1655,2.154,2.1069,2.0518,2.0284,1.9854,1.939,1.9082,1.9073,1.9112,1.9033,1.9073,1.9192,1.928,1.9311,1.9301,1.9301,1.896,1.8656,1.8695,1.8247,1.7706,1.7284,1.6541,1.5969,1.5813,1.5692,1.5818,1.6339,1.7256,1.7929,1.8197,1.7861,1.8186,1.9511,1.9342,1.9731,2.1093,2.159,2.2392,2.3604,2.4142,2.4691,2.53,2.5312,2.5312,2.5312,2.5488,2.5606,2.5594,2.5512,2.5492,2.5455,2.4814,2.4435,2.4174,2.3622,2.3562,2.3893,2.3782,2.3815,2.3954,2.4372,2.4206,2.3833,2.0706,2.0706,2.0706,2.0706,2.1281,2.1904,2.2334,2.3096,2.3782,2.4295,2.4191,2.4201,2.4459,2.4224,2.4028,2.394,2.3384,2.2969,2.2925,2.2979,2.2979,2.2925,2.3144,2.2985,2.2334,2.2135,2.1372,2.0059,1.9558,1.9079,1.8738,1.8604,1.8876,1.9466,1.9869,2.0789,2.2042,2.2066,2.265,2.3677,2.3897,2.4027,2.4164,2.4498,2.4562,2.4545,2.4681,2.4387,2.382,2.3096,2.2497,2.2035,2.1883,2.153,2.1136,2.0673,2.0255,1.9872,1.9499,1.946,1.9548,1.9597,1.9508,1.946,1.9636,1.9548,1.942,1.9381,1.9341,1.9301,1.9301,1.9123,1.8747,1.8064,1.7432,1.6842,1.6369,1.6353,1.6583,1.7114,1.777,1.8239,1.8379,1.848,1.8939,1.9971,1.9668,2.0094,2.1611,2.2499,2.3235,2.3859,2.4809,2.5312,2.5312,2.5312,2.5312,2.5382,2.5571,2.5688,2.5711,2.549,2.5407,2.5382,2.4771,2.4347,2.3978,2.3199,2.324,2.3822,2.3845,2.3926,2.4053,2.4492,2.4468,2.4201,2.2014,2.2014,2.2014,2.2014,2.2097,2.2351,2.3003,2.3616,2.416,2.4777,2.4796,2.4871,2.5023,2.5001,2.4821,2.4459,2.4001,2.3624,2.346,2.3624,2.3624,2.346,2.3691,2.3773,2.3732,2.2867,2.2177,2.1583,2.0709,2.0238,2.0102,1.9695,2.023,2.1589,2.1463,2.2176,2.3481,2.3495,2.3649,2.3897,2.408,2.4416,2.4817,2.4736,2.4918,2.5249,2.4904,2.4736,2.4653,2.4395,2.3667,2.2889,2.2852,2.259,2.2176,2.1759,2.1387,2.0858,2.0059,2.002,2.0108,1.9715,1.9715,1.9863,1.9863,1.9863,1.9784,1.9597,1.9429,1.9301,1.9301,1.959,1.9709,1.9439,1.938,1.941,1.9531,1.8897,1.8573,1.9001,1.9445,1.9505,1.9045,1.9361,1.9661,1.9901,2.0165,2.1156,2.3185,2.3668,2.4269,2.5108,2.5252,2.5312,2.5312,2.5312,2.5382,2.5571,2.5793,2.598,2.6131,2.6311,2.6377,2.6377,2.6292,2.5877,2.5161,2.3939,2.3386,2.3312,2.3798,2.398,2.4101,2.4902,2.5321,2.5329,2.2215,2.2215,2.2215,2.2215,2.2888,2.3575,2.3847,2.4785,2.5681,2.6205,2.6187,2.6096,2.6172,2.6233,2.5995,2.5399,2.4923,2.4492,2.413,2.4196,2.4186,2.411,2.4193,2.4146,2.3929,2.3515,2.2956,2.2221,2.1401,2.0822,2.0523,1.9899,2.0374,2.1755,2.2539,2.357,2.4706,2.4427,2.4547,2.4994,2.5069,2.5027,2.4943,2.537,2.5644,2.582,2.5856,2.5616,2.5201,2.5132,2.4364,2.3438,2.3438,2.294,2.2365,2.2214,2.1693,2.1128,2.077,2.0576,2.0459,2.0255,2.0186,2.0216,2.0595,2.0284,1.9981,2.0333,2.001,1.9666,1.9666,2.0128,2.0391,2.0024,2.0092,2.0155,2.0129,1.9754,1.9609,1.9977,2.0307,2.0341,1.9935,2.0023,2.0185,2.0366,1.99,2.0291,2.184,2.2067,2.2781,2.4168,2.4203,2.4571,2.53,2.5312,2.5382,2.5606,2.5793,2.6027,2.6201,2.5819,2.5404,2.4969,2.4793,2.4455,2.4022,2.3179,2.2799,2.279,2.3587,2.3798,2.3802,2.456,2.4741,2.4539,2.2811,2.2946,2.3128,2.3128,2.4125,2.4948,2.4948,2.5968,2.6839,2.7268,2.7336,2.7237,2.7044,2.6998,2.6718,2.5954,2.5532,2.5114,2.4646,2.4615,2.4583,2.4497,2.4583,2.4437,2.4074,2.4023,2.3639,2.2904,2.1991,2.145,2.1269,2.0812,2.1265,2.2573,2.3697,2.4792,2.5791,2.526,2.5219,2.5577,2.5505,2.5337,2.5207,2.5949,2.6291,2.6473,2.6632,2.6337,2.5913,2.5832,2.5057,2.4073,2.3853,2.3319,2.274,2.2628,2.2138,2.1617,2.1502,2.1118,2.077,2.077,2.0722,2.076,2.1175,2.0905,2.0595,2.0867,2.0663,2.0391,2.0245,2.0828,2.1217,2.0818,2.1073,2.1254,2.1061,2.0921,2.0897,2.1029,2.128,2.1257,2.0761,2.0723,2.0727,2.071,1.9814,1.9884,2.1287,2.1659,2.2394,2.3685,2.3931,2.4429,2.53,2.5312,2.5382,2.5606,2.5793,2.6027,2.6188,2.5481,2.4804,2.4054,2.3658,2.3394,2.3142,2.2608,2.2389,2.2437,2.3417,2.3644,2.3484,2.4234,2.4295,2.3907,2.4192,2.4756,2.5275,2.5275,2.5906,2.6446,2.6446,2.6887,2.7278,2.7542,2.8045,2.8107,2.7395,2.7133,2.6673,2.5954,2.5695,2.5408,2.4935,2.4903,2.4786,2.4497,2.4743,2.4775,2.4487,2.4305,2.4075,2.3857,2.247,2.2101,2.267,2.2803,2.3503,2.4672,2.5145,2.5939,2.6853,2.6011,2.5588,2.5388,2.5055,2.5233,2.5761,2.6306,2.6772,2.7179,2.6974,2.6891,2.6839,2.6633,2.593,2.4943,2.4232,2.3809,2.3519,2.3113,2.2852,2.259,2.2187,2.1655,2.1205,2.1205,2.1359,2.1512,2.1502,2.1807,2.1835,2.1059,2.1357,2.1576,2.1011,2.1711,2.2317,2.2096,2.2745,2.3202,2.2979,2.2917,2.2746,2.24,2.256,2.236,2.1548,2.1486,2.1265,2.0733,2.0084,2.0526,2.2368,2.3425,2.4059,2.429,2.4918,2.53,2.5312,2.5312,2.5382,2.5606,2.5793,2.6027,2.6188,2.5638,2.4992,2.4263,2.3722,2.3394,2.3142,2.2608,2.234,2.2294,2.3396,2.3567,2.3312,2.4167,2.4295,2.3907,2.4962,2.5586,2.6119,2.6119,2.6733,2.7258,2.7258,2.7835,2.8326,2.8409,2.8571,2.8598,2.8354,2.8111,2.7515,2.6477,2.6303,2.5964,2.5168,2.5115,2.5073,2.4999,2.5073,2.5073,2.4999,2.4766,2.4651,2.4566,2.3186,2.2289,2.198,2.2797,2.3631,2.4555,2.5636,2.6428,2.6835,2.6022,2.5665,2.5577,2.5482,2.5566,2.5807,2.6657,2.7093,2.719,2.7149,2.7015,2.6891,2.6809,2.6142,2.5244,2.5008,2.434,2.3556,2.3446,2.315,2.2889,2.274,2.2365,2.2025,2.2025,2.2063,2.2214,2.2628,2.2815,2.2729,2.2052,2.209,2.2166,2.1977,2.2515,2.3001,2.2916,2.3482,2.3897,2.3824,2.3906,2.3764,2.3154,2.3248,2.3155,2.2571,2.2535,2.2509,2.2477,2.1792,2.1174,2.0618,2.1335,2.2171,2.3029,2.373,2.4453,2.53,2.5312,2.5465,2.5793,2.5357,2.5255,2.5413,2.4892,2.4723,2.4792,2.3882,2.3394,2.3142,2.2608,2.2359,2.24,2.3019,2.3317,2.3435,2.3881,2.3993,2.3907,2.5674,2.6398,2.6924,2.6924,2.7552,2.8023,2.8023,2.8466,2.8803,2.8803,2.8803,2.8803,2.8803,2.8465,2.7858,2.6947,2.6633,2.6161,2.538,2.5422,2.5411,2.5327,2.5422,2.5411,2.5316,2.52,2.5168,2.5115,2.4127,2.3199,2.2388,2.3419,2.4243,2.4952,2.5821,2.6445,2.6812,2.5817,2.5455,2.5588,2.5677,2.5716,2.5819,2.68,2.719,2.719,2.719,2.7108,2.7015,2.7015,2.6479,2.5761,2.5568,2.4865,2.405,2.3796,2.3482,2.3224,2.3224,2.2927,2.2628,2.2628,2.2665,2.2889,2.3409,2.3593,2.3446,2.2777,2.2852,2.3001,2.2777,2.3224,2.3629,2.3629,2.397,2.4236,2.4309,2.4418,2.4338,2.3871,2.4061,2.4073,2.3711,2.3569,2.3554,2.3656,2.3017,2.2171,2.1121,2.1459,2.2136,2.3145,2.3825,2.4582,2.5418,2.5418,2.5571,2.591,2.5497,2.5151,2.4792,2.4756,2.4448,2.4002,2.3558,2.3208,2.2863,2.2473,2.2359,2.2462,2.3043,2.32,2.3091,2.3606,2.3619,2.3252,2.6456,2.7163,2.7683,2.7683,2.8315,2.8803,2.8803,2.8803,2.8803,2.8803,2.8803,2.8792,2.876,2.8276,2.7751,2.7304,2.6639,2.6055,2.5634,2.5822,2.5812,2.5538,2.577,2.5801,2.5538,2.5591,2.558,2.5484,2.5121,2.4529,2.366,2.4437,2.5115,2.562,2.5658,2.608,2.6687,2.5428,2.5085,2.5376,2.5581,2.5658,2.5761,2.6709,2.711,2.7133,2.7133,2.7156,2.719,2.719,2.6887,2.6421,2.5911,2.5371,2.4746,2.4107,2.3787,2.3641,2.3641,2.3335,2.3075,2.3075,2.3224,2.3446,2.3824,2.408,2.397,2.3224,2.3677,2.4043,2.3482,2.3824,2.42,2.4236,2.4236,2.4309,2.4454,2.4526,2.4526,2.449,2.4873,2.5016,2.4825,2.4519,2.4349,2.4361,2.3749,2.3376,2.3445,2.3376,2.3644,2.429,2.493,2.5382,2.5606,2.5606,2.5664,2.5849,2.6035,2.549,2.4312,2.4954,2.4197,2.2392,2.2885,2.2863,2.2438,2.2259,2.2278,2.2456,2.3345,2.3095,2.2306,2.3324,2.3071,2.2197,2.7305,2.7977,2.8513,2.8513,2.8653,2.8803,2.8803,2.8803,2.8803,2.8803,2.8803,2.8661,2.8244,2.7774,2.7293,2.6791,2.6606,2.6323,2.5855,2.5853,2.5853,2.5812,2.6021,2.6104,2.6021,2.6041,2.5823,2.5256,2.4796,2.4426,2.4228,2.3996,2.4265,2.4865,2.5032,2.5348,2.5701,2.512,2.4955,2.502,2.5058,2.5107,2.5176,2.583,2.6313,2.6685,2.6685,2.6898,2.719,2.719,2.6887,2.6478,2.6363,2.5592,2.4656,2.4265,2.397,2.3824,2.3824,2.3751,2.3677,2.3677,2.3824,2.4007,2.4116,2.4164,2.4164,2.397,2.408,2.4164,2.4007,2.4116,2.4236,2.4418,2.4418,2.4465,2.449,2.4766,2.4838,2.4526,2.4873,2.5087,2.5016,2.4815,2.4803,2.5061,2.4305,2.4105,2.4788,2.4325,2.4148,2.4302,2.493,2.5382,2.5606,2.5606,2.5481,2.5296,2.5487,2.5128,2.4288,2.3883,2.3741,2.3741,2.2824,2.2648,2.296,2.2416,2.2216,2.2271,2.2493,2.2414,2.2221,2.2474,2.2402,2.2197,2.807,2.8502,2.8803,2.8803,2.8803,2.8803,2.8803,2.8803,2.8727,2.8462,2.8661,2.8484,2.774,2.7468,2.713,2.6628,2.6377,2.6179,2.5917,2.599,2.6032,2.6032,2.6271,2.6396,2.6396,2.626,2.5975,2.5459,2.5411,2.5105,2.4612,2.434,2.4411,2.4736,2.462,2.4929,2.5504,2.4863,2.4717,2.4912,2.4912,2.4912,2.4969,2.5509,2.6026,2.6501,2.6501,2.6795,2.719,2.719,2.7047,2.6772,2.6582,2.6044,2.5371,2.4703,2.4226,2.3897,2.3897,2.397,2.4043,2.4043,2.4116,2.42,2.42,2.42,2.42,2.42,2.42,2.42,2.42,2.42,2.4236,2.4345,2.4454,2.4538,2.461,2.4814,2.4921,2.4814,2.4981,2.5052,2.4957,2.4981,2.5087,2.5218,2.4837,2.4801,2.5252,2.493,2.4752,2.4752,2.5097,2.543,2.5723,2.5933,2.5924,2.5741,2.5831,2.551,2.4777,2.437,2.4103,2.3907,2.3384,2.3084,2.2952,2.2747,2.2496,2.2302,2.2481,2.2402,2.2221,2.2493,2.2402,2.2197,2.8435,2.8585,2.8585,2.8585,2.8585,2.8585,2.8585,2.8585,2.8396,2.7936,2.8287,2.82,2.7304,2.7206,2.7031,2.6562,2.6136,2.5895,2.5895,2.6063,2.6157,2.6199,2.6396,2.6561,2.6644,2.6437,2.6236,2.6015,2.6337,2.6014,2.5142,2.4992,2.4958,2.5015,2.4453,2.4717,2.5532,2.459,2.4476,2.49,2.4832,2.4855,2.4958,2.5337,2.5842,2.6386,2.6386,2.6726,2.719,2.719,2.719,2.711,2.6714,2.657,2.6329,2.5406,2.4685,2.4127,2.3943,2.4007,2.4164,2.42,2.42,2.42,2.42,2.42,2.42,2.42,2.42,2.42,2.4236,2.4236,2.4273,2.4334,2.4326,2.4423,2.4802,2.4696,2.4708,2.5064,2.5123,2.5016,2.4861,2.5052,2.5182,2.5123,2.5182,2.5241,2.5312,2.5312,2.5312,2.5312,2.5347,2.5535,2.5945,2.6327,2.6499,2.6499,2.6499,2.6129,2.5411,2.5336,2.4702,2.3688,2.3919,2.3624,2.2979,2.3011,2.2851,2.2547,2.2778,2.2582,2.2246,2.2702,2.2582,2.2197,2.7489,2.7534,2.7534,2.7534,2.7534,2.7534,2.7534,2.7534,2.7512,2.7435,2.749,2.7337,2.6748,2.6693,2.654,2.6059,2.595,2.5895,2.5895,2.5937,2.6032,2.6188,2.624,2.6437,2.685,2.6985,2.7021,2.6994,2.668,2.6421,2.6249,2.5325,2.5153,2.5543,2.4613,2.451,2.5004,2.443,2.4476,2.4877,2.4464,2.4545,2.4877,2.4556,2.5015,2.583,2.583,2.6427,2.719,2.719,2.719,2.7179,2.7098,2.6818,2.6478,2.6306,2.5865,2.5215,2.4161,2.3934,2.397,2.4164,2.42,2.42,2.42,2.42,2.42,2.42,2.42,2.4236,2.4418,2.4454,2.4562,2.4909,2.4142,2.3847,2.4898,2.4256,2.4065,2.498,2.5123,2.5087,2.5052,2.4814,2.4766,2.5087,2.4957,2.4981,2.5276,2.5312,2.5312,2.5312,2.5453,2.5758,2.6131,2.6396,2.6499,2.6499,2.6499,2.6129,2.5398,2.4929,2.4611,2.4367,2.3198,2.3322,2.4186,2.2907,2.2648,2.3021,2.2513,2.2258,2.2197,2.2282,2.2258,2.2197,2.7315,2.7315,2.7315,2.7315,2.7315,2.7315,2.7315,2.7315,2.7228,2.6977,2.7162,2.7042,2.631,2.6431,2.6431,2.5939,2.5895,2.5895,2.5895,2.5979,2.6104,2.6199,2.6437,2.6685,2.6891,2.6974,2.7026,2.7026,2.6827,2.6657,2.649,2.5704,2.5474,2.5681,2.4923,2.4866,2.5314,2.4797,2.4877,2.5279,2.451,2.4487,2.4866,2.4384,2.482,2.5716,2.5716,2.637,2.719,2.719,2.719,2.719,2.719,2.6875,2.6501,2.6501,2.6106,2.5574,2.5017,2.4853,2.4902,2.4978,2.5015,2.5015,2.5015,2.4786,2.4579,2.4579,2.4445,2.4381,2.449,2.461,2.4718,2.4921,2.4542,2.447,2.5016,2.4671,2.454,2.5028,2.4981,2.4957,2.4957,2.4885,2.4849,2.4921,2.5016,2.5111,2.5182,2.5276,2.5312,2.5312,2.5606,2.591,2.6213,2.6396,2.6499,2.6499,2.6499,2.6327,2.5983,2.5332,2.49,2.4666,2.3804,2.3533,2.3635,2.3112,2.2834,2.2729,2.2425,2.2247,2.2197,2.2197,2.2197,2.2197,2.6977,2.6977,2.6977,2.6977,2.6977,2.6977,2.6977,2.6977,2.6856,2.6464,2.6769,2.6704,2.5983,2.6234,2.631,2.5928,2.5895,2.5895,2.5895,2.6146,2.6271,2.6271,2.6727,2.6933,2.6891,2.6933,2.6974,2.6974,2.6974,2.6805,2.6501,2.5945,2.5773,2.5853,2.5199,2.521,2.567,2.5142,2.5222,2.5635,2.4728,2.4728,2.5222,2.4728,2.5107,2.5888,2.5888,2.6462,2.719,2.719,2.719,2.7167,2.7093,2.6783,2.6478,2.6363,2.6014,2.5681,2.5566,2.5624,2.5658,2.5417,2.5543,2.5681,2.5555,2.521,2.4912,2.4949,2.4717,2.4538,2.4634,2.479,2.4932,2.5087,2.4993,2.5016,2.5302,2.5087,2.4945,2.5099,2.4957,2.4861,2.479,2.4957,2.4992,2.4897,2.5111,2.5206,2.5147,2.5241,2.5347,2.543,2.5723,2.6015,2.627,2.643,2.6499,2.6499,2.6499,2.6424,2.6273,2.5699,2.5223,2.4775,2.436,2.3857,2.335,2.346,2.3285,2.2879,2.2651,2.2522,2.2416,2.2388,2.2371,2.2371,2.6005,2.6005,2.6005,2.6005,2.6005,2.6005,2.6005,2.6005,2.5994,2.5961,2.5983,2.5983,2.5906,2.5928,2.5939,2.5895,2.5895,2.5895,2.5895,2.6313,2.6561,2.6561,2.6974,2.7097,2.6891,2.7067,2.719,2.719,2.719,2.6967,2.6501,2.5945,2.5968,2.6409,2.536,2.521,2.567,2.5142,2.5222,2.5658,2.5084,2.5463,2.6329,2.5796,2.5934,2.6455,2.6455,2.676,2.719,2.719,2.719,2.711,2.6668,2.6536,2.6409,2.5911,2.5739,2.5601,2.5107,2.5337,2.5486,2.4545,2.5015,2.5578,2.5084,2.4946,2.4949,2.5147,2.4838,2.4598,2.4981,2.5087,2.5266,2.5889,2.5087,2.4765,2.5865,2.5063,2.454,2.5028,2.5087,2.4981,2.4825,2.479,2.4897,2.5052,2.5123,2.5147,2.5276,2.5276,2.5465,2.5828,2.5875,2.6084,2.6465,2.6499,2.6499,2.6499,2.6499,2.621,2.5649,2.5611,2.531,2.4763,2.4046,2.4103,2.4593,2.3813,2.3867,2.4335,2.3484,2.313,2.3101,2.2911,2.2848,2.2909,2.5895,2.5895,2.5895,2.5895,2.5895,2.5895,2.5895,2.5895,2.5895,2.5895,2.5895,2.5895,2.5895,2.5895,2.5895,2.5895,2.5895,2.5895,2.5895,2.6354,2.6727,2.6974,2.7108,2.7108,2.6891,2.6974,2.7015,2.7015,2.7015,2.6845,2.6501,2.5945,2.598,2.6455,2.5383,2.5383,2.6117,2.5279,2.5222,2.567,2.513,2.5348,2.598,2.5784,2.6026,2.6501,2.6501,2.6795,2.719,2.719,2.7024,2.6726,2.657,2.6026,2.5463,2.5268,2.567,2.5991,2.5142,2.5302,2.5693,2.5624,2.5658,2.5739,2.5853,2.5635,2.5497,2.5923,2.5715,2.5518,2.5793,2.583,2.6,2.6512,2.6102,2.5934,2.6525,2.62,2.5828,2.5551,2.5539,2.5372,2.5016,2.4992,2.5016,2.5087,2.5182,2.5218,2.5182,2.5359,2.5676,2.6062,2.6097,2.6223,2.6499,2.6499,2.6499,2.6499,2.6499,2.6386,2.616,2.5762,2.5485,2.5259,2.4165,2.4103,2.475,2.3965,2.379,2.4032,2.4072,2.3702,2.3158,2.3479,2.3487,2.3352,2.5895,2.5895,2.5895,2.5895,2.5895,2.5895,2.5895,2.5895,2.5895,2.5895,2.5895,2.5895,2.5895,2.5895,2.5895,2.5895,2.5895,2.5895,2.5895,2.6354,2.6768,2.719,2.719,2.7108,2.6891,2.6974,2.6974,2.6891,2.6974,2.6754,2.6221,2.5876,2.5807,2.5984,2.5233,2.5314,2.5934,2.521,2.5119,2.5429,2.5061,2.5325,2.5945,2.5945,2.6267,2.6703,2.6703,2.6932,2.7167,2.7047,2.676,2.6444,2.6122,2.5383,2.4717,2.4866,2.5314,2.5708,2.5279,2.5199,2.5325,2.5708,2.5727,2.5807,2.6152,2.5957,2.5853,2.6438,2.6255,2.6062,2.6268,2.6294,2.6467,2.695,2.6935,2.6909,2.71,2.71,2.6832,2.6146,2.587,2.5621,2.5325,2.5183,2.5111,2.5147,2.5241,2.5276,2.5253,2.5583,2.591,2.6179,2.627,2.6374,2.6499,2.6658,2.6658,2.6499,2.6829,2.6604,2.5971,2.5899,2.5575,2.5059,2.4417,2.4424,2.4859,2.4582,2.4506,2.4487,2.468,2.4507,2.4139,2.4048,2.4099,2.4177,2.5895,2.5895,2.5895,2.5895,2.5895,2.5895,2.5895,2.5895,2.5895,2.5895,2.5895,2.5895,2.5895,2.5895,2.5895,2.5895,2.5895,2.5895,2.5906,2.6354,2.6768,2.719,2.719,2.7108,2.6891,2.7108,2.7108,2.6891,2.7108,2.6674,2.5716,2.5716,2.5429,2.4923,2.4912,2.4912,2.4923,2.4912,2.49,2.49,2.4912,2.5532,2.649,2.6501,2.6783,2.7179,2.7179,2.7179,2.711,2.6634,2.6501,2.6306,2.5233,2.4579,2.4292,2.4774,2.4568,2.4418,2.5429,2.4969,2.42,2.42,2.4958,2.5704,2.5716,2.5716,2.5892,2.6584,2.6333,2.6073,2.6279,2.6318,2.6559,2.7272,2.7406,2.7484,2.769,2.7523,2.7204,2.6681,2.5971,2.5579,2.58,2.5361,2.5147,2.5276,2.5312,2.5382,2.5571,2.598,2.6213,2.6213,2.6396,2.6499,2.6499,2.6973,2.6973,2.6521,2.751,2.6889,2.4858,2.5916,2.5525,2.4073,2.4792,2.5129,2.5179,2.5915,2.6211,2.6114,2.5377,2.564,2.6201,2.4683,2.4717,2.5453,2.5644,2.5686,2.5728,2.5864,2.5895,2.5895,2.5895,2.5895,2.5895,2.5895,2.5895,2.5895,2.5895,2.5895,2.5895,2.5895,2.5895,2.6021,2.6354,2.652,2.6768,2.719,2.719,2.7026,2.6685,2.7015,2.7015,2.6685,2.7015,2.6674,2.5716,2.5716,2.5624,2.544,2.4728,2.4809,2.5429,2.4717,2.4407,2.4441,2.4774,2.5096,2.5451,2.6226,2.6605,2.6691,2.6691,2.6691,2.6611,2.6106,2.5681,2.5256,2.4613,2.4315,2.4223,2.4372,2.4545,2.4694,2.4659,2.4671,2.4694,2.4694,2.4935,2.5245,2.5624,2.598,2.6421,2.6927,2.6956,2.6892,2.7109,2.7041,2.7179,2.7838,2.7834,2.7885,2.8191,2.8191,2.796,2.7433,2.7191,2.6759,2.6068,2.5889,2.5673,2.5336,2.5418,2.5606,2.5793,2.6062,2.627,2.6396,2.6782,2.7007,2.7007,2.6816,2.6816,2.7007,2.7297,2.7294,2.7033,2.6991,2.6899,2.6778,2.623,2.6446,2.7118,2.67,2.6557,2.6499,2.5993,2.5767,2.566,2.5402,2.5167,2.5058,2.5686,2.5728,2.578,2.5895,2.5895,2.5895,2.5895,2.5895,2.5895,2.5895,2.5895,2.5895,2.5895,2.5895,2.5895,2.5895,2.5895,2.6104,2.6561,2.6603,2.6768,2.719,2.7108,2.6974,2.6727,2.7015,2.7026,2.6727,2.7026,2.6674,2.5716,2.5716,2.5497,2.5084,2.4464,2.4533,2.5073,2.4453,2.42,2.4223,2.451,2.474,2.4981,2.5612,2.598,2.6163,2.6163,2.6163,2.6094,2.5566,2.505,2.4579,2.4292,2.42,2.42,2.42,2.4407,2.4568,2.4281,2.4407,2.4682,2.4866,2.4912,2.505,2.5693,2.6212,2.6713,2.6984,2.7054,2.7042,2.7111,2.7002,2.7192,2.7955,2.8002,2.8042,2.8431,2.8431,2.8311,2.8038,2.7693,2.726,2.6765,2.6284,2.5817,2.5466,2.5688,2.5875,2.6027,2.6201,2.6465,2.6782,2.704,2.7297,2.7497,2.7242,2.7242,2.753,2.796,2.8004,2.7679,2.7574,2.7449,2.7352,2.6997,2.7198,2.7776,2.7541,2.7436,2.741,2.6933,2.664,2.6472,2.6106,2.5924,2.5828,2.5812,2.5864,2.5895,2.5895,2.5895,2.5895,2.5895,2.5895,2.5895,2.5895,2.5895,2.5895,2.5895,2.5895,2.5895,2.5895,2.5895,2.6104,2.6561,2.6603,2.6768,2.719,2.7015,2.6933,2.6891,2.7067,2.7067,2.6891,2.7108,2.6697,2.5784,2.5739,2.5222,2.4326,2.4292,2.4269,2.4258,2.4221,2.4235,2.42,2.4189,2.4416,2.4817,2.4863,2.5184,2.5608,2.5608,2.5647,2.5566,2.5027,2.4556,2.42,2.42,2.42,2.42,2.42,2.42,2.42,2.42,2.4223,2.4361,2.4809,2.4981,2.5252,2.5915,2.6442,2.679,2.679,2.679,2.6711,2.6541,2.6501,2.6794,2.7758,2.7846,2.7995,2.8431,2.8339,2.8299,2.8471,2.7763,2.7364,2.769,2.6568,2.5792,2.5607,2.6015,2.627,2.627,2.6499,2.6816,2.7263,2.733,2.7597,2.8072,2.8137,2.8137,2.8072,2.9053,2.8795,2.7431,2.7933,2.7602,2.6727,2.739,2.7683,2.7723,2.8388,2.8651,2.8597,2.794,2.7896,2.8033,2.6726,2.6736,2.7161,2.5327,2.5506,2.5728,2.5853,2.5895,2.5895,2.5895,2.5895,2.5895,2.5895,2.5895,2.5895,2.5895,2.5895,2.5895,2.5895,2.5895,2.6104,2.6561,2.6603,2.6768,2.719,2.7149,2.7056,2.6891,2.6933,2.6933,2.6891,2.7108,2.6909,2.6329,2.5899,2.5601,2.5371,2.4782,2.4588,2.4763,2.4588,2.4371,2.42,2.4043,2.4039,2.4164,2.4599,2.4827,2.4918,2.5058,2.5084,2.5015,2.4522,2.4281,2.42,2.42,2.42,2.42,2.42,2.42,2.42,2.42,2.4464,2.4823,2.5136,2.5811,2.6437,2.6593,2.6579,2.6632,2.6751,2.666,2.6553,2.6501,2.6501,2.6794,2.7758,2.7528,2.7546,2.8371,2.8471,2.8471,2.851,2.8323,2.8056,2.7726,2.6817,2.6081,2.5619,2.6358,2.685,2.685,2.7377,2.7709,2.7829,2.8241,2.85,2.8643,2.904,2.904,2.8643,2.8867,2.9002,2.908,2.9205,2.9136,2.8931,2.9087,2.9143,2.9126,2.9044,2.9004,2.8917,2.8034,2.7896,2.8074,2.7045,2.6553,2.6329,2.5506,2.5644,2.577,2.5895,2.5895,2.5895,2.5895,2.5895,2.5895,2.5895,2.5895,2.5895,2.5895,2.5895,2.5895,2.5895,2.6104,2.6354,2.6603,2.6685,2.6891,2.719,2.7108,2.7067,2.7056,2.6933,2.685,2.6768,2.6974,2.6793,2.632,2.5906,2.5578,2.5276,2.4659,2.4468,2.4568,2.4443,2.4331,2.4189,2.397,2.3897,2.3931,2.4218,2.432,2.432,2.4505,2.4568,2.4533,2.4281,2.42,2.42,2.42,2.42,2.42,2.42,2.42,2.4246,2.4476,2.4717,2.5076,2.5823,2.6171,2.6352,2.6535,2.6671,2.6628,2.619,2.602,2.5893,2.5766,2.5727,2.6124,2.7336,2.7297,2.7333,2.8011,2.8354,2.8318,2.7813,2.7942,2.796,2.7495,2.7051,2.6639,2.6304,2.6794,2.713,2.7108,2.743,2.7861,2.8384,2.8643,2.8931,2.9166,2.9477,2.9477,2.9166,2.9166,2.9338,2.9602,2.9602,2.9602,2.9602,2.9602,2.9602,2.9571,2.9415,2.9352,2.9293,2.8803,2.8529,2.8374,2.7889,2.7304,2.682,2.5853,2.5864,2.5895,2.5895,2.5895,2.5895,2.5895,2.5895,2.5895,2.5895,2.5895,2.5895,2.5895,2.5895,2.5895,2.5948,2.6313,2.6561,2.6644,2.6809,2.6974,2.719,2.7026,2.7015,2.7149,2.6974,2.685,2.6685,2.685,2.6705,2.6274,2.5993,2.5555,2.5027,2.4588,2.4324,2.42,2.4256,2.4244,2.4189,2.397,2.3897,2.3897,2.3897,2.3897,2.3934,2.4127,2.42,2.42,2.42,2.42,2.42,2.42,2.42,2.42,2.42,2.42,2.4303,2.4786,2.4981,2.5294,2.6391,2.6278,2.5951,2.6098,2.6417,2.6449,2.5506,2.5257,2.5171,2.4949,2.4912,2.5396,2.6866,2.7027,2.7171,2.7666,2.8102,2.8017,2.7043,2.7358,2.7483,2.7088,2.7224,2.7164,2.6897,2.7218,2.7414,2.7323,2.7417,2.7914,2.8899,2.8931,2.9166,2.9602,2.9602,2.9602,2.9602,2.9602,2.9602,2.9602,2.9602,2.9602,2.9602,2.9602,2.9602,2.9602,2.9602,2.9602,2.9602,2.9602,2.9293,2.883,2.8731,2.8292,2.7811,2.5644,2.577,2.5895,2.5895,2.5895,2.5895,2.5895,2.5895,2.5895,2.5895,2.5895,2.5895,2.5895,2.5895,2.5979,2.6157,2.624,2.6448,2.6809,2.6891,2.6974,2.719,2.719,2.7097,2.6933,2.6891,2.6974,2.7108,2.7149,2.7115,2.7023,2.66,2.6094,2.5562,2.534,2.4865,2.4223,2.4437,2.4417,2.4189,2.397,2.3897,2.3897,2.3897,2.3897,2.3934,2.4127,2.42,2.42,2.42,2.42,2.42,2.42,2.42,2.42,2.42,2.42,2.4303,2.4786,2.5256,2.5674,2.602,2.6384,2.6453,2.5634,2.531,2.5209,2.528,2.5122,2.4949,2.4912,2.4912,2.5396,2.6866,2.6694,2.6783,2.7825,2.7893,2.7635,2.7209,2.7234,2.7064,2.6566,2.725,2.7333,2.6387,2.7354,2.7967,2.7901,2.8338,2.8867,2.9477,2.9509,2.954,2.9602,2.9602,2.9602,2.9602,2.9602,2.9602,2.9602,2.9602,2.9602,2.9602,2.9602,2.9602,2.9602,2.9602,2.9602,2.9602,2.9602,2.956,2.942,2.8886,2.8633,2.8577,2.578,2.5853,2.5895,2.5895,2.5895,2.5895,2.5895,2.5895,2.5895,2.5895,2.5895,2.5895,2.5895,2.5979,2.6104,2.6199,2.6437,2.6644,2.6727,2.685,2.6933,2.7015,2.7015,2.7056,2.7067,2.7067,2.7108,2.719,2.7108,2.7015,2.7003,2.6663,2.6198,2.5693,2.528,2.4791,2.4212,2.4331,2.4322,2.4189,2.397,2.3897,2.3931,2.424,2.4354,2.4425,2.486,2.4855,2.4648,2.4946,2.5038,2.5038,2.5038,2.5038,2.4981,2.4793,2.4883,2.5133,2.5416,2.562,2.5812,2.6321,2.6086,2.5639,2.5361,2.4877,2.4547,2.468,2.4595,2.451,2.451,2.451,2.4992,2.6432,2.6447,2.6529,2.7274,2.7575,2.7442,2.6821,2.6384,2.6287,2.6685,2.7003,2.7098,2.6826,2.7319,2.7748,2.8,2.8222,2.8753,2.9571,2.9602,2.9602,2.9602,2.9602,2.9602,2.9602,2.9602,2.9602,2.9602,2.9602,2.9634,2.9713,2.9634,2.9634,2.9713,2.9634,2.9602,2.9602,2.9602,2.9665,2.967,2.9402,2.9379,2.9515]}]]